GFSSGP_sfc_temp_009.txt.gz
Temp
86 86 87 84 76 77 67 68 76 72 73 77 80 76 70 71 71 66 81 83 84 84 85 84 82 82 82 82 82 82 83 83 83 83 83 84 84 84 84 84 84 84 84 84 84 84 84 84 83
89 89 85 79 73 67 67 73 72 75 76 80 79 77 73 68 75 76 79 83 85 86 86 86 80 82 81 82 82 82 83 83 83 83 83 84 84 84 84 84 84 84 84 84 84 84 84 84 83
88 89 83 75 71 67 67 73 75 77 80 79 75 79 74 70 76 79 84 84 86 85 86 86 81 82 82 82 82 83 83 83 83 83 84 84 84 84 84 84 84 84 84 84 84 84 84 84 83
88 87 85 76 70 73 73 76 78 76 78 79 79 72 78 82 80 83 85 85 86 85 87 84 82 83 82 82 83 83 83 83 83 83 84 84 84 84 84 84 84 84 84 84 84 84 84 84 83
89 84 77 72 71 76 79 80 80 76 76 77 78 71 72 79 84 85 84 86 86 87 87 87 82 83 83 83 83 83 84 84 83 84 84 84 84 84 84 84 84 84 84 84 84 84 84 84 83
84 82 77 72 71 75 79 82 80 76 76 76 76 74 74 82 82 84 86 86 88 87 88 87 83 83 83 84 83 83 84 84 84 84 84 84 84 84 84 84 84 84 84 85 84 84 84 83 83
82 79 72 73 72 73 76 84 79 76 75 75 81 73 74 79 84 85 86 87 88 88 87 87 87 85 83 84 84 84 84 84 84 84 84 84 84 84 84 84 84 84 85 85 85 84 84 83 83
87 84 74 75 73 74 80 81 82 80 75 83 84 73 71 80 84 85 85 86 86 87 86 86 85 87 87 87 84 84 84 84 84 84 84 84 84 84 84 84 83 84 84 85 84 84 84 84 83
87 81 75 75 75 78 82 79 82 85 78 80 82 81 84 83 84 83 82 83 84 84 85 87 87 86 85 85 86 84 84 84 84 85 84 85 88 88 88 81 83 83 84 84 84 84 83 81 82
84 79 79 84 85 81 82 82 80 78 78 78 77 81 82 82 81 80 80 80 82 83 84 85 85 85 86 88 86 86 87 89 88 87 87 88 87 87 86 84 82 83 84 84 82 81 82 85 89
84 80 84 85 86 87 83 80 84 78 75 79 76 76 79 80 80 80 81 82 83 84 85 85 85 84 85 84 86 84 87 87 87 86 86 85 87 87 88 89 89 88 84 91 89 88 89 85 86
81 86 87 87 86 85 82 85 80 80 82 86 83 81 80 79 80 81 81 82 83 82 84 85 85 84 84 84 86 86 87 87 87 86 85 83 82 85 85 87 87 85 89 87 86 88 85 84 84
83 86 87 89 86 87 85 81 81 79 84 86 83 81 80 80 81 83 84 84 84 83 84 85 84 83 84 83 85 86 85 88 88 86 85 86 82 83 84 84 85 85 87 87 85 85 84 83 84
87 86 85 87 84 84 82 80 82 82 83 80 80 79 81 81 82 82 82 82 82 83 84 85 84 83 84 83 82 84 85 85 87 87 87 84 85 81 80 83 83 86 85 87 85 83 83 83 84
86 80 82 82 84 80 84 74 77 83 82 78 79 79 80 81 83 81 83 82 83 84 85 84 84 84 83 83 82 84 86 87 87 87 85 84 83 81 82 81 80 85 84 82 83 82 84 84 85
82 82 76 80 83 81 84 75 80 82 80 77 78 79 79 81 83 84 85 85 85 84 83 84 87 86 84 84 84 85 85 86 86 82 82 84 85 84 83 80 81 83 83 84 83 83 83 84 83
78 75 75 75 84 80 81 77 80 82 81 78 78 80 80 80 82 84 85 85 86 84 83 83 84 85 84 82 84 83 83 84 82 85 85 84 83 83 82 81 80 81 83 81 83 83 81 82 82
74 74 76 76 79 80 77 77 77 79 80 79 79 80 80 80 82 84 85 86 86 85 84 84 84 84 83 81 82 82 80 80 83 85 85 83 82 83 82 82 80 82 83 83 82 79 81 80 80
83 79 78 78 81 79 77 78 75 78 79 79 78 79 80 81 85 86 86 87 86 85 84 83 82 82 83 84 82 81 83 82 84 82 84 83 82 82 82 80 81 81 82 81 80 81 78 82 81
80 78 78 78 81 80 76 76 78 78 77 80 79 79 80 82 83 83 85 86 86 84 83 82 82 82 83 84 83 85 84 84 85 85 83 83 83 82 82 81 81 81 82 79 79 78 80 80 80
78 77 77 78 78 77 77 75 73 77 80 80 81 83 83 82 82 83 83 84 85 83 82 82 82 83 83 83 83 81 82 82 83 83 83 83 83 82 82 81 82 80 81 82 79 79 76 78 78
76 81 81 78 75 69 79 66 74 77 75 77 80 81 82 82 84 84 84 83 85 84 84 83 82 82 83 82 82 80 82 81 84 83 84 84 82 82 82 81 81 79 82 79 80 80 79 77 77
79 82 80 79 77 72 70 68 77 74 73 76 80 82 83 85 85 84 85 85 86 86 84 84 82 82 82 81 82 82 81 84 84 82 80 81 80 81 82 80 80 79 81 79 78 78 77 79 78
80 78 75 74 75 64 73 70 74 71 75 80 83 83 84 85 86 86 87 86 85 87 85 84 81 80 81 81 81 80 80 81 80 80 80 82 82 81 79 80 79 80 80 78 79 78 76 77 77
81 76 64 62 61 62 71 68 75 83 83 85 85 83 85 86 86 85 84 84 84 84 84 84 81 80 80 81 81 81 81 80 79 79 80 80 80 80 79 78 78 80 78 78 78 77 77 77 77
75 78 68 56 59 65 65 64 75 86 90 87 88 88 87 87 88 87 85 85 84 84 83 83 82 80 80 81 81 81 81 83 83 81 82 81 82 81 80 79 79 79 78 78 77 79 80 78 77
74 70 83 73 65 67 71 72 79 84 84 85 86 87 85 86 88 87 87 86 85 84 83 83 82 81 82 82 81 80 81 81 81 79 79 81 79 82 79 79 78 78 77 77 77 80 78 77 77
79 82 70 70 59 56 66 66 74 80 84 86 82 85 86 87 86 88 88 87 87 87 86 85 84 83 83 83 83 82 82 80 81 79 76 78 79 79 78 78 78 78 77 78 76 78 78 76 78
74 72 71 76 71 64 61 68 81 82 85 87 85 86 87 86 86 88 87 88 87 88 87 86 85 84 83 83 83 82 82 79 80 78 74 74 77 77 77 77 77 78 77 77 76 76 77 76 76
82 77 76 69 62 68 69 71 86 84 88 89 90 88 88 86 85 87 87 87 88 87 88 87 87 86 86 85 82 81 80 79 76 77 77 77 70 77 77 77 76 77 78 78 76 76 78 76 76

GFSSGP_sfc_temp_012.txt.gz
Temp
87 92 96 90 79 81 69 74 85 80 79 85 85 81 80 81 77 69 92 91 91 91 90 87 81 82 82 82 83 83 83 83 83 83 84 84 84 84 84 84 84 84 84 84 84 84 84 84 84
98 93 94 93 83 71 75 82 80 83 85 87 86 85 82 75 85 86 87 91 93 95 94 91 81 82 83 82 83 83 84 84 83 83 84 84 84 84 84 84 84 84 84 84 84 84 84 84 84
99 100 90 89 85 76 75 82 83 85 87 85 83 87 83 78 87 89 92 93 94 94 95 90 82 82 83 83 83 83 83 84 84 84 84 84 84 84 84 84 84 84 84 84 84 84 84 84 84
99 98 95 81 77 81 82 85 86 84 86 87 87 79 85 90 88 92 93 94 94 94 92 85 83 83 83 83 83 83 83 83 84 84 84 84 84 85 85 85 84 84 84 84 84 84 84 84 84
100 97 87 82 80 84 88 88 88 85 85 85 88 80 80 87 93 93 93 94 94 95 91 92 82 83 83 83 83 84 84 84 84 84 84 84 85 85 85 84 84 84 84 84 84 84 84 84 83
93 95 86 80 80 84 87 90 88 86 86 85 85 82 82 90 90 92 95 95 97 96 94 92 83 83 83 83 83 84 84 84 84 84 84 84 85 84 84 84 85 85 85 85 85 85 84 84 83
92 90 83 84 81 82 85 92 87 86 85 84 91 82 84 88 92 94 96 97 98 98 96 94 93 87 84 83 84 84 84 84 84 84 84 84 84 84 84 84 84 85 85 85 85 85 84 84 83
98 94 84 86 83 82 89 90 91 89 84 94 94 80 79 88 92 95 95 96 96 96 94 91 93 93 91 90 84 84 84 84 84 85 85 85 85 85 85 85 84 84 85 85 85 84 84 83 83
98 88 85 84 83 86 92 88 92 94 87 88 91 91 92 92 94 92 91 92 93 93 91 95 95 90 90 91 89 85 84 84 84 86 85 86 96 95 92 85 83 84 84 85 84 84 83 83 83
93 88 87 93 93 91 91 91 90 87 86 86 86 91 92 91 90 89 89 89 90 89 92 96 95 93 92 95 90 90 92 94 94 94 92 94 95 94 91 88 83 84 84 84 83 83 83 85 98
95 88 93 93 95 96 92 90 93 89 84 88 85 87 89 89 89 90 90 91 92 92 94 94 93 92 92 92 93 94 94 95 94 91 92 93 94 94 96 97 96 95 86 96 92 92 96 91 93
90 95 96 97 95 95 92 96 90 90 90 95 94 91 89 88 89 91 91 92 92 91 92 94 93 90 91 93 93 95 94 94 95 94 90 90 92 92 89 95 95 91 97 93 93 96 91 90 90
91 95 97 98 96 97 97 92 90 90 93 96 94 90 89 90 90 92 94 94 93 91 92 93 92 89 90 89 93 94 93 94 96 94 92 93 93 90 90 90 89 90 94 95 91 92 90 89 90
96 95 96 96 95 95 92 91 91 92 95 92 90 89 91 90 91 91 92 91 91 92 92 93 91 90 90 89 88 90 92 94 94 95 94 90 92 88 92 90 90 90 90 94 90 89 89 90 91
95 89 90 93 94 91 95 84 85 94 93 89 89 90 90 91 92 90 91 91 92 93 93 92 91 92 89 89 89 90 94 94 94 95 92 89 88 87 87 89 89 90 90 87 89 87 87 88 92
91 92 85 91 92 91 91 81 89 93 91 88 89 89 89 90 92 92 93 93 93 93 90 91 94 93 91 90 90 92 94 94 92 93 92 90 89 88 89 89 90 91 90 87 86 86 89 90 90
90 83 85 84 92 88 88 85 91 93 92 89 88 89 89 89 91 92 94 93 94 92 90 89 90 91 90 89 91 91 91 88 90 92 91 90 89 89 89 90 87 88 86 86 86 90 88 88 88
81 83 87 84 87 89 86 87 89 92 92 90 89 89 89 90 90 93 94 94 94 93 91 90 91 89 89 87 86 88 92 92 93 92 89 89 88 89 87 87 87 87 83 86 90 84 88 86 87
90 87 85 90 92 88 87 87 88 89 91 90 89 89 89 90 94 94 94 94 94 93 90 89 88 88 86 89 89 90 90 90 91 92 89 89 89 89 87 89 87 85 87 87 86 86 84 86 89
89 86 86 91 90 89 88 86 90 91 89 91 90 90 90 92 93 92 93 94 94 92 90 89 88 87 87 90 87 91 91 94 93 94 88 89 89 88 88 87 87 86 90 84 84 83 85 87 87
87 85 86 86 87 89 88 83 86 92 92 92 93 94 94 92 92 92 92 93 94 92 90 89 87 87 88 88 88 87 87 88 89 90 90 90 89 88 87 87 88 86 86 88 84 84 81 84 86
82 92 90 87 83 76 87 74 85 91 89 90 91 92 94 93 94 94 93 92 93 92 92 90 88 87 88 88 89 86 88 89 92 92 93 92 89 89 88 87 86 84 88 85 85 86 83 81 83
84 94 89 88 84 83 81 77 83 89 87 90 92 93 94 95 95 93 94 93 94 94 93 92 88 87 88 87 87 89 86 92 92 92 88 86 87 88 89 86 85 84 86 84 84 83 81 85 83
92 89 89 88 85 73 81 79 80 86 86 92 95 95 94 96 96 95 95 95 93 95 94 92 88 86 87 87 86 86 87 87 90 88 88 90 90 89 87 86 85 84 85 83 84 82 81 81 82
88 83 71 68 70 70 83 79 81 91 95 96 98 97 96 97 96 95 93 93 92 92 92 91 88 85 87 87 86 86 86 86 86 86 88 89 90 90 86 84 83 85 83 84 83 81 82 81 82
83 84 74 61 67 72 82 73 82 94 98 100 101 101 99 98 99 97 95 94 92 92 91 91 89 86 87 87 85 86 86 89 89 88 91 90 91 90 88 85 85 84 84 84 82 84 84 83 82
83 78 90 80 81 75 80 81 90 95 94 97 98 98 98 98 98 97 96 95 94 92 91 90 89 87 88 88 87 86 86 86 90 89 87 90 89 91 88 85 84 85 84 83 82 84 82 82 81
87 90 77 80 65 63 74 77 79 85 90 96 95 97 98 98 98 99 98 97 96 96 94 93 91 89 89 89 88 88 87 87 88 88 85 87 88 86 86 85 84 84 83 82 81 83 82 81 83
82 80 82 84 79 69 67 74 90 88 92 94 98 98 101 99 98 99 100 99 98 98 96 95 93 90 90 90 89 89 89 89 87 87 86 85 85 84 84 83 83 83 82 82 80 81 82 81 80
88 82 83 74 69 78 76 78 97 96 96 98 99 102 104 102 99 99 100 100 98 97 97 97 96 94 93 93 90 89 89 89 88 85 85 83 81 83 83 82 81 81 83 82 80 80 83 80 80

GFSSGP_sfc_temp_015.txt.gz
Temp
86 91 92 81 63 66 74 78 81 79 80 90 90 80 75 73 72 68 81 87 91 92 90 87 82 82 82 83 83 83 83 83 83 84 84 84 84 84 84 84 84 84 84 84 84 84 84 84 84
98 97 92 88 77 60 71 81 77 82 90 93 92 88 82 79 89 83 85 90 91 95 94 91 81 83 83 83 83 83 84 84 84 84 84 84 84 84 84 84 84 84 84 85 85 85 84 84 84
102 102 90 87 75 69 72 83 87 89 92 90 88 91 87 79 89 87 93 93 93 91 92 88 82 83 83 83 83 84 84 84 84 84 84 84 85 85 85 85 84 84 84 84 85 85 85 84 84
99 99 98 88 82 86 83 88 91 89 92 93 92 83 91 95 89 95 95 94 92 93 94 85 83 83 83 83 83 84 84 84 84 84 84 85 85 85 85 85 85 85 85 85 85 85 85 84 84
103 99 86 84 82 88 91 93 93 88 91 91 92 83 84 93 99 98 93 92 91 95 95 91 83 83 83 83 83 84 84 84 84 84 84 85 85 85 85 85 85 85 85 85 85 85 85 84 84
92 99 82 83 84 89 93 95 93 91 92 90 89 85 86 96 95 95 94 93 93 95 96 91 84 83 84 84 84 84 84 84 84 84 84 85 85 85 85 85 85 85 85 85 85 85 84 84 84
92 86 83 88 85 87 90 97 93 92 91 91 93 84 87 93 97 99 97 97 95 98 94 93 92 87 84 84 84 84 84 84 84 84 85 85 85 85 85 85 85 85 85 86 85 85 84 84 84
100 87 89 88 85 85 94 96 98 95 91 100 99 84 82 92 99 101 101 95 94 93 99 95 93 93 91 90 84 84 84 84 85 85 85 85 85 86 85 86 84 85 85 85 85 85 84 84 84
105 79 84 87 86 89 97 93 98 101 93 95 96 95 95 97 99 99 98 95 91 93 95 96 97 93 92 91 89 85 84 85 85 86 85 86 90 86 91 86 85 84 85 85 85 84 84 84 84
99 63 82 98 97 93 95 96 95 93 91 91 92 98 96 96 95 95 94 94 95 91 92 96 90 95 94 97 89 90 92 93 93 93 90 93 91 92 93 90 85 85 85 85 85 85 85 85 86
99 79 88 98 99 99 96 96 99 93 88 92 89 91 93 93 93 94 95 96 96 93 97 96 88 87 95 93 94 95 95 96 95 94 93 95 95 89 90 81 88 92 87 86 87 86 89 89 95
94 99 98 100 100 99 96 100 95 95 96 99 97 96 94 93 93 95 96 97 97 95 97 99 96 93 94 90 96 98 97 98 97 96 91 90 92 90 93 84 85 88 85 90 87 89 91 92 92
96 98 100 101 101 101 101 96 95 95 99 101 99 96 93 94 95 97 98 99 98 96 97 97 95 92 93 92 96 91 96 97 97 97 94 94 93 90 92 92 92 91 91 84 91 85 89 88 88
100 99 99 101 101 100 97 96 96 97 100 98 96 94 95 95 96 96 96 96 96 96 96 97 95 92 92 92 91 94 94 91 97 94 96 91 93 88 87 88 92 92 88 85 85 90 85 82 84
101 93 97 98 99 97 100 91 91 99 99 95 95 94 95 96 97 95 97 96 96 97 96 96 95 95 91 91 91 92 95 97 90 93 95 93 91 90 89 89 92 89 91 89 89 86 88 88 90
95 95 88 97 98 97 96 83 94 100 97 94 94 94 94 95 98 97 98 98 97 96 94 95 98 96 93 92 92 93 95 86 87 92 86 93 90 90 89 90 91 88 90 88 86 88 78 90 92
92 84 87 89 98 96 93 68 95 99 97 95 94 95 95 94 96 97 99 98 98 96 94 93 95 95 93 91 93 93 91 91 93 94 94 85 91 90 89 90 91 90 90 87 87 85 88 89 89
83 85 90 87 94 95 91 85 95 97 97 95 95 95 94 95 95 98 98 99 99 97 95 93 94 92 92 91 89 90 93 94 95 95 93 92 91 91 90 92 89 88 86 88 81 85 88 86 88
92 90 87 93 97 92 90 90 93 96 97 95 95 95 95 95 98 99 98 99 98 97 93 91 90 90 91 89 86 86 90 88 95 96 93 90 89 89 87 88 82 88 87 82 87 87 86 87 89
91 89 89 94 94 94 91 90 95 95 95 96 96 95 95 97 98 97 97 98 97 95 93 91 90 89 89 90 89 87 89 95 95 95 93 92 92 90 87 87 91 88 90 86 85 84 84 88 87
90 88 89 89 92 95 91 84 91 96 97 97 99 99 99 98 97 96 96 96 97 94 93 91 90 90 89 89 91 90 89 92 92 94 92 91 91 91 89 88 87 87 87 89 84 85 83 84 87
84 94 93 92 82 79 92 76 87 93 94 95 97 98 99 99 99 99 97 95 97 96 95 93 91 90 90 88 90 86 88 88 93 94 96 94 92 91 90 89 89 87 88 86 86 87 83 82 83
87 96 93 92 88 82 86 81 86 93 91 94 97 98 100 101 100 99 99 97 98 98 96 94 91 89 90 89 88 90 87 93 95 95 91 90 89 90 91 89 88 85 87 86 84 84 82 85 83
96 92 92 92 89 75 84 80 82 85 92 96 100 100 100 101 102 100 101 100 97 99 97 95 90 88 88 90 88 87 88 89 92 91 90 91 92 90 88 89 87 86 86 86 85 84 83 82 82
91 86 74 73 73 73 87 83 82 95 98 99 100 102 102 102 102 100 98 98 97 96 96 95 90 87 88 88 89 88 88 88 88 89 90 90 92 92 87 87 85 86 84 86 85 82 83 82 82
86 86 76 64 70 75 86 78 86 99 102 103 104 106 106 104 104 102 100 99 97 96 95 94 91 88 88 89 88 88 88 91 91 90 93 91 93 93 89 87 86 85 85 85 84 84 84 84 83
86 81 92 82 84 78 82 87 95 99 99 100 102 103 104 104 103 102 101 100 98 96 94 93 91 89 89 90 89 88 88 88 91 90 89 93 91 95 90 88 85 85 85 84 83 84 83 83 83
88 94 81 84 68 67 77 80 82 89 91 97 98 101 103 105 104 104 102 101 100 99 97 96 94 90 90 91 90 90 89 89 89 91 90 89 91 90 89 87 86 85 85 84 82 84 83 82 84
84 84 87 86 82 72 70 79 95 92 94 95 98 102 104 104 104 104 104 103 101 100 99 97 95 93 91 92 91 90 90 90 89 90 90 89 86 88 88 86 85 84 83 83 81 82 83 82 81
90 85 86 79 72 80 79 81 99 99 99 99 100 103 106 106 105 105 106 104 102 100 100 98 97 95 94 93 91 90 91 90 90 89 90 89 86 88 86 84 83 84 80 81 80 81 82 81 80

GFSSGP_sfc_temp_018.txt.gz
Temp
83 87 91 74 63 60 62 72 79 78 81 83 79 71 71 76 75 63 81 84 85 85 84 84 82 83 83 82 82 83 83 83 83 83 84 84 84 84 84 84 84 84 84 84 84 84 84 84 84
91 89 78 65 59 55 62 77 65 71 88 82 79 80 78 74 82 80 81 86 89 89 87 86 81 82 83 83 83 83 84 84 84 84 84 84 84 84 84 84 84 84 84 84 84 84 84 84 84
94 91 71 70 74 56 70 80 82 88 92 90 83 82 82 77 85 84 87 89 91 89 89 84 82 82 83 83 83 84 84 84 84 84 84 84 84 85 85 84 84 84 84 84 85 85 84 84 84
91 82 82 71 74 79 80 87 90 89 91 91 87 78 87 92 87 90 91 92 91 91 89 84 83 83 83 83 83 84 84 84 84 84 84 84 85 85 85 85 85 85 85 85 85 85 84 84 84
92 74 69 78 83 85 91 93 90 88 89 87 87 77 79 91 93 93 91 92 91 91 88 86 83 83 83 83 84 84 84 84 84 84 85 85 85 85 85 85 85 85 85 85 85 85 85 84 84
68 83 71 79 83 89 92 94 86 87 88 87 85 79 79 92 90 92 93 93 92 91 90 86 84 83 83 84 84 84 84 84 84 84 85 85 85 85 85 86 85 85 85 85 85 85 84 84 84
68 74 81 84 83 86 91 98 91 91 90 87 90 78 84 85 90 93 92 94 93 93 90 87 87 85 84 84 84 84 84 84 84 84 85 85 85 85 85 86 86 85 86 85 85 85 85 84 84
69 72 76 80 83 83 93 96 96 94 87 98 95 80 78 86 93 95 93 93 92 92 91 88 87 86 85 85 84 84 84 84 84 85 85 85 85 85 86 85 85 85 85 85 85 85 85 85 85
79 80 77 76 85 87 96 92 99 98 94 95 92 90 94 97 95 92 91 90 92 92 93 92 90 87 86 86 86 84 84 84 85 85 85 85 85 86 88 86 85 85 85 85 85 86 85 85 84
83 65 75 81 92 90 95 94 94 92 91 92 90 95 96 97 95 89 89 88 80 88 90 92 91 89 88 92 84 85 87 87 86 87 85 85 79 85 88 86 86 86 85 85 85 85 85 85 86
88 71 84 94 96 96 90 95 97 91 87 91 86 89 92 94 94 92 90 90 90 90 89 90 89 88 90 86 86 87 88 88 88 86 84 88 83 77 85 81 76 81 84 85 83 86 82 87 86
89 93 95 95 100 94 89 98 94 94 92 97 95 93 92 92 93 94 94 94 92 91 89 92 91 85 87 86 88 90 90 90 89 89 88 87 87 86 79 85 81 81 83 83 83 81 84 86 85
95 97 98 102 101 99 97 95 94 94 99 99 97 93 91 92 93 96 97 97 92 91 92 91 88 85 86 86 89 87 88 90 89 88 87 88 86 81 83 84 86 85 84 86 81 83 82 81 84
99 99 99 102 101 100 95 95 96 96 100 97 95 92 92 93 94 95 96 95 93 93 94 92 89 88 89 87 88 84 84 89 84 86 86 88 88 84 83 84 83 83 87 86 84 82 82 83 84
99 93 97 98 99 97 99 89 90 97 99 95 93 92 93 93 95 94 96 95 95 95 94 91 90 90 87 87 89 89 88 91 86 86 86 84 86 86 86 82 83 84 83 85 85 83 84 82 85
92 93 85 96 98 98 96 81 93 98 96 93 93 93 92 93 95 96 97 97 96 94 91 91 95 91 88 87 88 88 89 87 87 84 87 86 87 88 85 83 83 82 81 81 77 80 78 79 81
89 81 84 88 98 95 91 76 89 99 96 92 92 93 93 93 95 95 97 97 96 93 90 90 91 90 87 87 88 88 86 83 87 87 83 86 84 86 84 82 82 84 84 83 80 79 78 78 80
79 82 86 85 93 95 78 71 82 86 95 93 93 93 93 93 94 96 97 97 97 93 91 89 91 89 86 86 86 85 85 83 84 87 87 82 86 88 82 83 83 85 82 80 80 78 81 80 78
88 87 86 89 93 91 80 69 70 83 95 94 93 93 93 93 97 98 97 98 97 93 90 88 87 87 87 86 84 84 84 86 87 88 85 84 86 87 85 84 83 84 79 80 78 81 78 79 79
87 85 86 91 90 90 89 77 81 87 94 95 94 94 94 95 96 95 95 97 96 92 89 86 86 86 86 86 84 85 85 86 88 84 84 85 85 84 85 82 81 80 80 79 80 79 76 77 79
85 84 85 87 92 93 90 85 87 94 96 97 98 97 97 96 95 93 94 95 95 91 88 86 85 85 85 86 85 83 83 82 83 84 84 84 87 85 83 82 83 82 82 80 79 79 79 74 77
80 91 90 89 85 76 89 71 82 89 90 93 96 97 97 97 97 96 95 93 95 92 91 87 86 85 86 85 84 83 82 80 85 86 87 86 86 86 85 84 83 83 81 78 79 80 78 77 73
86 93 90 90 84 81 82 76 83 89 86 91 94 97 99 99 99 97 95 95 96 95 91 89 86 85 85 85 84 84 83 85 86 87 85 82 84 87 87 85 84 80 80 80 80 79 77 77 75
95 90 89 89 86 73 80 78 78 85 83 89 96 98 99 101 100 98 98 96 94 96 93 90 85 84 84 84 83 83 81 82 85 85 83 84 84 84 85 84 82 80 80 79 79 79 80 77 77
90 84 72 70 72 71 85 77 78 89 92 93 85 97 100 101 101 98 96 95 93 92 92 90 85 83 84 85 84 83 84 83 84 86 84 83 82 83 81 82 80 80 80 81 80 78 79 77 76
85 84 75 61 67 72 84 76 83 95 95 95 93 101 102 101 103 101 98 96 93 92 91 90 86 83 84 84 84 84 84 86 86 86 86 84 84 85 81 82 81 81 80 80 79 78 77 78 77
84 78 89 78 81 75 81 86 94 96 94 94 97 102 102 101 102 101 99 97 94 92 91 89 86 84 85 85 84 84 83 84 86 84 84 86 84 87 82 82 81 80 80 79 78 77 76 78 77
87 91 76 78 64 63 75 77 80 88 87 93 91 98 102 104 102 102 101 99 97 96 93 92 89 85 86 86 85 86 85 84 85 84 84 83 85 84 82 82 81 80 79 79 77 76 77 76 77
82 80 82 83 79 70 68 76 93 89 91 93 96 99 102 103 102 103 102 101 98 98 94 93 90 87 86 86 86 85 85 86 85 85 85 84 84 83 82 81 80 79 79 79 76 75 76 75 75
89 82 82 73 69 77 76 79 98 95 96 98 98 100 102 102 102 104 103 101 98 96 95 93 92 91 88 87 86 85 85 85 85 84 85 85 83 84 82 81 79 79 79 77 75 74 76 74 74

GFSSGP_sfc_temp_021.txt.gz
Temp
81 82 83 75 62 59 59 64 72 72 71 76 78 76 72 72 70 59 75 78 78 78 79 81 82 83 82 82 82 83 83 83 83 83 83 83 83 83 83 84 84 84 84 84 84 84 84 84 83
82 84 76 66 59 54 59 70 70 73 77 78 79 79 73 67 77 72 71 79 81 80 80 80 81 82 83 82 83 83 84 83 83 83 83 83 83 84 84 84 84 84 84 84 84 84 84 84 83
86 87 68 63 60 57 62 71 75 77 81 80 77 83 77 69 77 75 80 83 83 81 80 80 82 82 83 83 83 83 83 83 83 83 84 84 84 84 84 84 84 84 84 84 84 84 84 84 84
84 74 69 62 63 71 73 77 82 78 82 83 81 74 80 84 81 82 86 86 83 81 80 82 83 83 83 83 83 83 83 83 83 84 84 84 84 84 84 84 84 84 84 84 84 84 84 84 84
81 71 61 64 69 78 81 82 84 80 80 81 80 72 74 82 86 86 86 87 81 80 80 82 83 83 83 83 83 83 83 83 83 84 84 84 84 85 85 85 85 85 85 85 85 84 84 84 84
69 68 61 63 73 84 83 81 79 79 80 80 77 73 73 84 84 86 89 86 83 80 81 82 83 83 83 84 84 83 83 84 83 84 84 84 84 84 84 85 85 85 85 85 85 84 84 84 84
66 64 64 68 75 80 81 85 83 81 78 78 82 70 76 80 85 89 88 88 84 83 81 80 81 82 84 83 83 83 83 84 84 84 84 84 84 85 85 85 85 85 85 85 85 84 84 84 84
68 68 65 68 71 74 83 86 88 84 80 87 84 70 70 81 87 88 89 88 85 82 81 80 79 79 78 80 84 84 84 84 84 84 84 84 85 85 85 84 85 85 85 85 85 85 84 84 84
77 63 62 71 74 81 87 83 91 93 84 84 87 81 82 87 88 85 84 85 84 83 81 81 80 78 77 78 82 83 84 84 84 84 84 83 79 79 83 82 83 85 85 85 85 84 84 84 84
70 64 74 83 81 84 88 85 85 87 81 79 83 86 86 87 84 81 81 81 78 80 81 82 81 80 80 84 78 77 80 78 77 78 78 78 77 75 82 83 85 85 85 85 84 84 85 84 79
79 70 82 84 89 89 88 89 90 85 76 81 80 81 84 85 82 82 82 81 82 82 84 84 82 82 81 82 78 78 78 77 78 78 78 78 77 75 75 75 74 75 82 79 81 82 80 77 80
77 86 88 91 91 87 86 88 86 87 84 89 88 88 85 83 83 82 82 82 83 82 84 85 83 83 81 80 79 80 80 79 78 79 79 78 74 74 76 74 73 77 78 77 77 77 78 80 80
84 87 91 93 92 87 92 89 88 87 89 90 90 89 85 82 84 86 86 86 85 82 84 84 84 81 79 80 80 81 82 83 82 82 80 79 77 77 74 78 76 75 78 81 79 79 77 77 79
89 90 91 91 90 88 86 88 87 88 90 88 87 85 86 86 86 86 86 85 85 85 85 84 82 79 81 79 79 82 81 83 82 80 82 81 77 75 76 77 79 81 80 80 77 77 76 75 77
90 83 89 89 87 86 87 75 84 89 90 85 85 85 86 86 87 85 87 85 86 86 86 84 83 82 82 79 80 81 83 82 81 80 81 81 79 79 77 76 77 77 80 80 77 78 76 78 80
82 78 70 85 90 89 78 64 85 89 87 83 85 86 86 86 87 86 88 87 87 86 85 84 88 84 80 80 79 81 80 80 80 78 79 80 80 79 77 77 76 79 79 78 74 74 73 76 73
72 66 71 79 90 88 79 69 87 89 86 83 84 85 86 85 86 86 89 88 87 85 84 84 86 83 81 79 79 80 81 79 81 79 79 82 80 80 77 76 76 77 75 73 73 73 72 71 72
64 67 74 75 84 81 76 74 84 86 82 84 84 85 85 85 85 88 89 88 88 84 85 85 82 83 82 80 78 77 77 78 82 79 78 79 79 79 77 76 75 76 74 73 73 73 75 72 71
77 75 74 82 88 75 75 76 79 82 79 78 83 84 84 85 88 89 90 90 87 85 84 83 80 81 82 79 79 75 75 77 78 79 79 79 79 80 76 76 76 76 74 73 75 72 71 70 72
77 74 74 82 88 77 73 73 78 80 82 81 84 84 85 86 87 87 89 90 87 84 84 82 81 79 82 81 77 77 77 77 78 78 80 82 79 78 78 75 75 75 74 76 73 72 67 69 73
76 72 74 75 83 82 73 67 68 79 83 85 88 88 88 86 86 86 88 88 87 84 81 82 81 79 80 80 78 76 75 76 77 79 79 80 80 79 78 77 75 74 75 72 72 71 70 67 71
69 82 82 80 76 66 77 61 67 76 81 83 86 87 87 88 88 87 88 87 88 84 83 82 81 80 80 79 78 75 74 72 77 80 77 81 79 78 78 77 76 75 73 72 71 72 69 68 66
76 83 81 81 75 72 75 66 68 76 75 80 85 88 89 89 89 87 87 89 89 86 84 82 82 82 81 79 80 77 75 79 78 76 76 76 77 78 80 77 76 74 72 71 72 71 69 69 67
86 80 79 78 74 63 70 70 63 72 78 82 87 89 90 90 91 89 90 90 89 87 85 82 81 80 80 80 78 77 75 76 75 74 74 77 76 75 77 77 74 74 72 71 72 71 70 69 68
81 66 61 58 59 56 69 68 66 80 84 87 88 89 92 92 91 90 88 87 88 85 84 82 81 79 81 80 80 78 78 77 75 75 77 74 73 73 74 74 73 73 72 73 72 71 70 69 68
75 72 62 48 54 59 68 64 72 86 89 92 93 91 94 94 93 91 88 89 87 87 84 83 81 80 80 81 80 79 78 81 78 77 76 77 77 77 75 75 75 73 73 73 72 70 70 70 69
71 68 75 59 61 56 65 70 80 85 88 89 87 92 92 91 93 92 91 90 87 87 84 84 80 81 81 81 80 80 79 79 78 77 77 77 77 78 77 77 76 74 73 72 71 70 72 71 69
78 75 63 69 53 53 64 63 67 73 81 81 82 84 89 91 94 93 91 90 88 89 87 85 82 81 81 82 81 81 81 81 79 77 77 77 77 77 77 76 76 74 74 72 70 69 71 69 72
73 72 68 65 67 57 54 63 74 76 82 81 85 90 88 94 94 93 92 91 89 90 88 85 83 82 81 81 82 82 81 80 81 77 78 79 77 75 76 77 76 75 73 73 70 69 70 69 70
81 72 67 61 52 57 61 64 81 84 84 88 88 90 86 86 95 94 93 92 88 88 88 86 83 82 82 83 82 81 82 81 80 81 78 78 79 76 78 77 75 75 75 72 72 70 72 69 69

GFSSGP_sfc_temp_024.txt.gz
Temp
81 81 80 72 61 60 58 64 71 70 69 75 80 74 67 68 67 58 72 75 76 76 77 79 81 83 83 82 82 83 83 83 83 83 83 83 83 83 83 83 83 84 84 84 84 83 83 83 83
82 81 76 67 58 55 58 69 68 71 74 78 79 76 70 65 72 69 70 76 78 77 77 79 80 82 83 82 82 83 83 83 83 83 83 83 83 83 84 84 84 84 84 84 84 84 84 83 83
84 81 66 62 59 56 58 71 71 75 80 79 76 78 73 65 72 72 76 78 79 77 77 80 82 82 83 83 83 83 83 83 83 83 83 83 84 84 84 84 84 84 84 84 84 84 83 83 83
80 71 69 61 60 68 69 72 75 75 80 81 77 68 76 80 76 78 79 80 78 77 78 82 83 83 83 83 83 83 83 83 83 83 83 84 84 84 84 84 84 84 84 84 84 84 83 83 83
78 70 60 60 65 75 74 76 76 75 77 75 76 69 71 79 82 80 80 80 77 76 79 81 83 83 83 83 83 83 83 83 83 83 84 84 84 84 84 84 84 84 84 84 84 84 83 83 83
67 67 59 59 68 76 75 78 80 77 76 74 72 70 69 80 79 81 82 79 79 77 79 80 83 83 83 83 83 83 83 83 83 84 84 84 84 84 84 84 84 84 85 85 84 84 83 83 83
67 62 62 64 68 72 75 82 76 76 75 74 78 67 71 76 81 84 81 80 79 79 78 79 80 82 84 83 83 83 83 83 83 84 84 84 84 84 84 84 84 85 85 85 84 84 84 84 83
69 66 63 67 68 70 77 80 80 77 76 83 81 67 66 77 84 84 81 79 78 78 78 76 76 78 78 79 83 84 83 83 84 84 84 84 84 85 85 84 84 85 85 85 85 84 84 83 83
75 62 63 66 71 74 81 77 83 86 78 80 82 77 79 83 85 82 78 77 77 78 76 76 76 75 75 77 81 83 84 84 84 83 84 82 77 78 82 82 84 84 85 85 85 84 84 83 84
68 59 68 78 80 79 84 80 81 77 76 77 77 81 83 83 82 79 77 74 73 75 75 76 76 75 76 82 77 76 78 77 76 77 76 76 76 75 79 82 84 85 85 85 85 84 85 82 75
71 65 76 82 85 85 82 80 83 76 72 76 73 77 80 81 80 79 78 77 76 76 77 77 77 77 76 78 75 74 75 74 74 75 75 75 75 74 75 73 75 75 81 75 79 78 79 78 77
70 79 82 84 88 84 81 83 78 79 79 83 80 81 80 79 79 79 78 78 78 77 78 78 78 78 77 77 76 76 75 74 73 73 75 74 73 73 73 72 74 73 75 78 75 75 77 79 78
77 81 84 88 88 84 86 83 80 81 85 85 83 82 79 79 80 81 82 81 80 78 80 79 79 78 78 77 77 73 76 76 76 76 76 76 74 73 73 75 75 74 76 76 76 77 77 75 76
82 83 85 88 87 87 84 83 82 82 86 82 81 79 80 80 80 81 81 80 80 81 81 81 80 79 79 78 74 76 78 79 79 81 78 79 74 73 73 74 77 76 78 77 76 76 74 74 76
83 76 82 84 84 83 83 76 76 83 85 81 79 80 81 81 82 81 82 82 82 82 82 81 80 79 78 78 78 80 83 83 79 81 78 78 76 75 75 74 75 75 76 77 75 76 74 77 76
74 69 65 78 83 82 79 66 79 83 82 80 81 80 80 80 82 84 84 84 84 82 81 82 85 81 79 77 78 78 78 80 77 78 77 78 77 77 75 74 75 75 76 76 72 72 71 72 71
64 60 65 72 85 82 74 64 80 83 80 78 80 82 81 82 82 84 86 85 85 83 82 81 83 81 79 76 78 78 78 77 76 76 77 78 78 77 76 74 74 75 73 73 73 71 71 70 69
59 61 64 67 76 78 71 70 79 81 79 78 79 81 82 82 83 82 86 87 85 84 82 82 82 81 79 78 75 75 76 75 76 76 76 77 78 77 75 74 74 73 72 72 71 72 72 69 69
69 66 66 72 79 73 73 73 77 79 79 77 78 79 80 82 86 84 85 86 84 84 82 81 81 80 79 75 74 72 72 74 74 76 77 77 76 77 75 74 74 73 71 72 72 70 68 68 68
71 68 67 72 78 71 71 75 79 79 79 79 79 79 80 82 84 84 83 85 82 81 81 81 80 80 80 80 79 76 74 75 76 76 76 77 78 77 76 73 73 73 72 71 71 69 65 66 68
69 67 68 68 75 72 71 65 69 77 77 81 82 83 83 82 82 83 85 83 84 80 80 80 80 80 80 79 75 73 73 73 74 74 75 79 79 77 77 74 73 73 72 70 70 68 67 66 67
58 75 76 73 66 59 71 54 65 72 71 77 80 81 82 83 85 84 85 84 84 82 82 82 80 79 80 79 79 76 76 73 73 75 75 76 78 77 76 75 74 72 71 70 70 69 67 66 65
68 76 73 74 66 60 67 57 62 71 70 73 77 82 83 84 85 84 85 86 85 85 82 82 79 78 79 80 80 79 75 75 73 74 74 74 74 76 77 75 73 72 70 70 69 67 67 67 65
80 71 69 66 66 53 64 64 59 65 72 76 81 83 85 85 86 86 87 88 86 85 84 82 80 78 78 79 79 79 77 73 73 71 71 72 75 75 75 75 73 71 70 69 69 68 67 67 66
72 59 53 51 53 53 63 60 66 73 78 82 83 84 86 87 86 86 84 85 85 83 82 81 79 79 78 78 78 78 77 75 74 72 72 71 73 70 73 73 71 71 70 70 69 68 70 68 66
64 65 55 44 45 51 62 55 68 79 84 85 89 88 88 87 88 87 86 86 86 84 82 81 79 79 79 78 78 78 77 78 77 74 73 75 77 76 73 74 73 72 71 70 69 68 68 67 67
65 59 69 53 47 49 56 62 71 77 80 83 85 86 87 88 89 89 88 87 86 84 82 80 79 80 79 80 79 78 77 78 78 73 75 75 76 76 74 74 73 72 71 70 69 67 67 67 66
70 71 57 50 49 49 52 56 63 68 73 77 82 85 87 89 90 91 89 88 87 87 83 82 81 80 80 80 80 80 79 79 78 75 75 76 75 76 74 74 73 73 71 69 68 67 68 68 67
67 65 56 60 59 54 45 59 68 71 72 74 82 87 89 89 90 90 90 89 88 88 84 82 81 81 80 80 81 80 79 79 79 78 76 76 77 76 74 74 74 73 71 70 69 67 68 67 66
75 68 62 59 50 55 63 63 76 76 76 77 80 87 90 90 89 90 91 89 87 86 84 82 81 81 81 81 80 80 79 78 79 79 76 77 77 76 76 75 74 73 73 71 71 69 71 68 66

GFSSGP_sfc_temp_027.txt.gz
Temp
80 80 77 72 61 59 58 63 68 68 68 73 77 72 65 66 65 57 73 75 77 75 75 79 81 82 82 82 82 83 83 83 83 83 83 83 83 83 83 83 83 83 83 83 83 83 83 83 83
80 79 75 66 57 51 55 68 66 68 73 76 76 73 68 63 70 68 69 75 77 76 74 77 81 82 83 82 83 83 83 83 83 83 83 83 83 83 83 83 83 83 83 83 83 83 83 83 82
81 82 67 61 56 53 58 68 69 73 77 77 72 75 70 64 70 70 74 77 77 76 76 78 81 82 83 83 83 83 83 83 83 83 83 83 83 83 83 83 83 83 83 83 83 83 83 83 83
78 72 68 60 59 68 69 70 73 74 77 77 74 66 73 77 73 74 77 78 75 75 76 81 82 83 83 83 83 83 83 83 83 83 83 83 83 84 84 83 83 83 83 84 83 83 83 83 83
76 69 60 59 63 72 74 75 75 72 72 73 75 66 66 75 77 77 77 78 74 73 76 80 82 83 83 83 83 83 83 83 83 83 83 83 84 84 84 84 84 84 84 84 84 83 83 83 83
65 66 58 57 66 73 75 77 76 73 72 72 70 68 66 75 74 76 78 76 77 75 76 79 82 83 83 83 83 83 83 83 83 83 83 83 84 84 84 84 84 84 84 84 84 83 83 83 83
63 59 60 65 67 70 72 77 74 71 72 71 75 64 67 71 76 78 77 77 77 77 77 77 79 82 83 83 83 83 83 83 83 83 83 83 84 84 84 84 84 84 84 84 84 84 83 83 84
68 62 60 64 65 65 76 77 78 74 73 80 78 63 63 72 78 79 77 75 75 76 76 75 75 78 77 79 83 83 83 83 83 83 83 84 84 84 84 83 83 84 84 84 84 82 83 83 83
72 58 57 63 66 70 76 73 80 82 74 78 79 75 77 78 80 76 74 73 74 75 74 74 74 74 75 76 80 83 83 83 83 83 83 82 77 77 80 81 83 84 84 84 84 83 84 84 83
65 57 64 75 74 72 77 76 77 74 73 74 74 78 79 79 77 72 71 70 70 72 73 74 74 74 74 80 76 75 77 76 76 76 76 75 75 74 79 81 84 84 85 84 84 82 84 80 75
68 63 72 78 84 80 77 77 80 73 69 72 70 73 76 77 75 73 73 72 71 73 75 75 74 74 75 77 73 73 73 73 73 74 74 74 75 73 74 73 75 74 79 75 78 77 77 77 76
65 73 76 80 85 83 77 80 75 75 75 79 78 77 77 76 75 74 73 73 74 73 75 75 75 74 74 73 74 73 74 72 72 72 74 73 72 72 72 72 73 73 74 76 75 74 77 76 79
69 74 79 81 83 84 83 78 76 76 81 81 80 78 76 76 77 78 77 76 76 74 75 75 75 74 75 72 73 72 72 72 72 73 74 74 72 72 72 72 73 73 75 75 76 76 76 74 75
76 78 79 81 81 85 78 78 77 78 82 78 77 76 77 77 78 78 77 75 76 76 76 76 75 75 75 74 72 72 72 73 74 74 75 77 73 72 72 71 74 74 76 76 76 75 74 73 75
78 72 76 78 79 77 83 73 73 81 79 76 76 76 77 78 79 78 78 77 77 77 78 77 76 76 75 75 73 73 75 76 76 78 76 74 75 73 72 71 72 73 73 75 75 73 75 76 75
69 66 62 75 76 79 80 66 77 80 77 74 75 76 76 77 79 80 81 80 80 79 78 78 81 78 76 75 74 76 76 80 81 75 77 76 75 75 72 72 73 74 74 73 71 71 70 70 71
61 58 62 69 77 76 74 63 75 80 76 73 74 75 76 76 78 80 82 81 81 80 79 78 79 77 77 76 75 75 75 77 78 74 74 76 76 76 74 73 73 73 72 72 71 70 70 68 70
56 57 62 64 72 72 66 65 74 77 76 74 75 75 76 76 77 81 82 83 82 81 80 79 79 78 78 76 75 73 73 74 75 74 74 75 76 76 74 73 73 73 71 71 70 70 69 67 67
65 63 63 68 75 70 69 67 72 76 76 75 74 75 75 76 80 82 83 84 83 80 79 79 78 78 78 73 73 71 72 71 72 74 76 75 75 76 74 73 72 72 71 70 70 69 68 66 66
66 63 64 67 74 69 67 68 74 75 75 76 76 76 76 77 79 80 82 83 82 80 79 78 78 78 78 79 78 75 72 72 74 74 75 75 75 75 75 73 72 72 70 70 69 68 64 65 65
61 61 65 65 68 67 66 61 67 74 76 77 78 80 80 80 80 78 80 82 82 79 79 78 79 79 79 79 76 71 72 72 71 72 73 75 76 76 75 73 72 71 71 69 68 68 65 65 65
54 68 70 68 62 55 66 51 61 69 71 74 76 77 79 80 82 82 79 80 81 80 81 80 80 79 79 78 77 78 75 74 71 72 74 75 77 77 75 74 72 71 70 69 68 69 65 65 64
65 71 69 67 61 54 60 54 59 69 66 71 75 77 79 81 82 82 81 81 83 82 80 80 79 80 79 78 80 78 77 78 71 71 73 73 73 74 75 74 72 70 69 69 69 67 66 65 65
73 66 63 60 56 48 63 58 61 62 69 73 76 79 81 81 83 83 85 84 82 83 81 80 77 78 79 77 78 78 77 72 71 70 70 71 72 72 74 74 72 70 69 69 68 67 66 66 65
66 56 47 45 46 50 60 54 66 68 76 79 78 79 82 83 83 83 83 83 82 81 80 79 77 77 78 77 78 77 78 76 74 72 72 70 70 70 72 72 71 69 69 69 68 66 66 66 65
60 59 44 39 41 51 56 52 62 78 78 81 84 85 84 84 84 84 84 84 84 82 80 79 77 77 77 77 77 78 79 77 78 74 73 74 73 73 75 74 72 70 69 69 67 66 66 65 65
60 57 64 49 42 45 51 59 66 74 75 76 77 82 82 84 84 84 85 85 85 83 81 79 78 78 77 77 78 77 78 78 76 72 74 74 73 75 72 74 72 71 70 69 67 66 66 66 65
68 65 54 45 44 44 48 52 56 64 72 71 75 78 82 84 85 86 86 86 86 86 83 82 81 79 79 79 79 78 77 78 77 74 73 73 72 73 73 73 72 71 70 69 68 66 66 66 64
60 59 53 55 50 49 43 55 67 68 70 70 73 79 83 83 85 87 88 88 87 87 83 82 81 80 80 79 79 79 78 78 77 76 74 75 72 72 73 73 72 71 70 69 68 66 66 65 65
70 66 57 50 49 52 58 56 68 72 75 72 74 77 83 86 86 88 89 88 86 85 84 81 81 80 81 81 80 79 79 78 77 77 74 75 74 73 73 73 72 72 71 70 69 68 69 65 64

GFSSGP_sfc_temp_030.txt.gz
Temp
80 80 76 70 60 59 56 61 67 66 66 71 75 70 66 66 64 56 71 74 76 75 76 78 81 82 83 82 82 83 83 83 83 83 83 83 83 83 83 83 83 83 83 83 83 83 83 83 83
80 78 73 65 56 51 55 64 63 66 70 74 73 70 66 62 69 67 68 75 76 75 74 76 81 82 83 83 83 83 83 83 83 83 83 83 83 83 83 83 83 83 83 83 83 83 83 82 83
79 80 65 61 55 55 55 65 66 71 75 75 70 73 69 64 70 70 73 76 76 74 74 77 82 82 83 83 83 83 83 83 83 83 83 83 83 83 83 83 83 83 83 83 83 83 83 83 83
76 71 67 60 59 65 65 68 72 71 74 74 71 65 70 75 72 73 76 76 74 74 74 81 82 83 83 83 83 83 83 83 83 83 83 83 83 83 83 83 83 83 83 83 83 83 83 83 83
76 68 61 60 62 70 73 74 74 70 71 71 72 63 64 73 75 75 75 76 73 73 75 79 83 83 83 83 83 83 83 83 83 83 83 83 84 84 83 83 83 83 84 84 83 83 83 83 83
65 67 58 54 61 70 72 74 74 71 70 70 68 67 65 72 73 74 76 75 76 75 76 78 83 83 83 83 83 83 83 83 83 83 83 83 84 84 84 84 84 84 84 84 84 83 83 83 83
62 60 58 59 62 67 70 76 70 69 70 69 73 63 67 69 74 76 75 75 76 76 75 76 79 81 83 83 83 83 83 83 83 83 83 83 83 84 84 84 84 84 84 84 84 83 83 83 83
66 61 60 63 61 63 72 74 74 72 70 78 75 62 63 69 75 76 75 74 74 74 75 74 75 78 77 79 83 83 83 83 83 83 83 83 84 84 84 83 82 84 84 84 84 84 83 83 83
71 56 55 59 64 67 73 71 77 79 72 75 76 72 74 75 76 72 71 71 72 74 73 74 74 74 75 76 79 83 83 83 83 83 83 81 78 78 81 81 83 84 83 84 84 84 84 84 83
63 55 61 71 73 70 75 74 74 72 71 71 72 75 75 75 73 70 70 70 70 72 72 74 73 74 75 79 76 76 77 78 77 78 78 78 77 76 79 81 83 85 85 83 84 84 82 81 78
65 60 69 75 76 76 73 74 76 71 67 70 68 70 72 73 71 70 71 71 70 73 74 74 74 74 74 76 74 74 75 75 75 76 76 76 76 75 75 75 76 76 80 78 78 78 78 79 79
62 70 73 76 79 76 73 76 73 74 72 79 75 74 73 71 70 70 70 71 71 72 74 74 74 74 74 74 74 74 74 74 74 74 75 74 73 73 74 74 75 75 76 77 78 77 78 78 80
66 74 78 81 77 77 78 75 75 73 79 78 77 75 72 72 72 73 74 74 73 72 73 74 74 74 74 72 73 73 73 74 74 74 74 74 73 74 74 74 75 74 76 77 77 76 77 77 78
72 73 76 76 75 75 74 75 75 76 79 76 74 73 73 73 73 73 74 73 73 73 73 74 74 74 74 73 72 72 72 73 73 74 74 75 74 73 73 73 74 75 76 77 76 76 77 77 77
74 69 72 73 73 74 78 69 71 78 77 73 73 74 74 74 76 74 75 74 74 75 75 74 74 74 73 73 72 71 73 74 73 74 74 74 74 74 74 73 74 74 76 76 75 76 77 76 76
66 63 59 70 73 75 75 64 74 77 74 72 73 74 74 74 76 77 77 77 76 76 74 75 78 75 73 73 72 72 73 74 75 75 77 75 75 75 74 73 74 76 74 75 74 74 74 74 74
57 54 59 66 75 72 72 63 75 76 74 71 72 73 74 74 76 77 79 78 77 76 75 74 76 75 74 73 72 73 74 74 76 77 76 75 75 75 75 75 75 75 74 74 74 73 73 72 72
53 54 57 62 69 69 66 64 71 74 73 72 72 73 73 74 74 78 79 79 79 77 76 76 76 75 74 74 73 72 74 74 75 75 75 75 76 76 75 75 75 75 74 73 73 73 72 71 70
61 60 60 65 71 68 68 64 67 72 73 72 71 72 73 74 77 79 80 80 79 78 76 76 75 75 74 72 71 71 73 73 74 74 76 75 76 77 75 75 74 74 74 74 74 72 72 71 70
63 59 59 65 71 65 64 67 68 71 72 73 72 72 73 75 76 77 78 80 79 77 76 75 75 75 75 76 75 74 75 73 75 76 76 76 76 76 76 74 74 74 73 73 72 72 70 69 70
56 59 60 60 66 64 62 59 62 70 72 75 75 76 76 75 75 76 77 79 80 77 76 76 75 76 76 76 75 72 72 73 73 74 74 75 76 77 76 75 74 74 74 73 72 71 70 69 69
50 64 67 66 59 54 62 50 58 65 68 72 73 74 76 76 78 77 78 78 79 78 78 77 76 76 76 76 75 74 75 73 75 74 75 76 76 76 76 75 74 74 74 72 72 71 70 69 70
61 69 65 65 58 53 56 52 56 62 62 68 72 75 77 79 79 78 78 79 81 81 79 78 76 76 76 76 76 76 75 76 73 73 74 74 75 76 77 75 74 74 74 72 71 70 69 69 69
69 64 58 54 52 47 56 55 52 56 66 69 74 76 78 79 80 81 82 80 80 82 79 78 75 75 76 75 76 75 75 73 72 71 73 73 74 74 75 75 75 74 73 72 71 70 70 69 69
63 54 43 42 44 47 55 53 63 65 71 74 74 76 78 80 80 81 80 78 79 78 78 77 75 74 76 75 75 76 76 74 73 73 74 72 72 73 74 74 73 73 72 72 71 69 69 69 69
56 54 42 38 39 47 52 50 58 72 73 78 80 81 81 81 82 82 81 81 79 79 78 77 76 74 76 75 75 76 76 77 77 75 75 75 75 75 75 75 75 74 73 72 70 70 70 69 69
55 55 58 46 40 43 48 54 65 70 70 73 77 79 79 81 82 82 83 83 82 79 79 77 76 75 76 76 76 76 76 76 76 75 75 76 75 76 75 75 75 74 73 72 70 70 69 69 69
63 62 51 43 40 37 45 48 55 60 69 71 70 75 79 82 81 83 84 84 84 84 81 80 78 76 77 77 77 77 77 77 77 75 74 75 75 75 74 74 74 74 72 72 70 70 69 69 69
56 55 49 54 46 43 39 50 59 65 67 73 75 76 79 79 81 84 84 85 85 85 82 80 79 77 77 77 77 77 77 77 77 75 75 75 75 74 74 74 74 73 72 71 70 69 69 69 68
70 62 53 50 46 44 45 53 65 68 71 70 73 74 76 78 80 83 85 85 85 83 83 80 80 79 79 78 77 77 77 77 77 75 76 75 74 74 74 74 74 73 73 72 71 70 71 69 68

GFSSGP_sfc_temp_033.txt.gz
Temp
82 84 82 75 63 64 60 65 74 72 72 78 81 75 72 69 67 61 73 74 79 77 83 84 81 83 82 82 82 83 83 83 83 83 83 83 83 83 83 83 83 83 83 83 83 83 83 83 83
82 82 76 69 60 61 65 71 70 74 75 80 78 76 72 67 73 70 70 78 81 85 85 85 80 82 82 82 83 83 83 83 83 83 83 83 83 83 83 83 83 83 83 83 83 83 83 83 83
82 83 72 67 67 64 67 72 73 76 79 78 73 77 73 69 74 76 78 83 85 85 86 84 82 82 83 83 83 83 83 83 83 83 83 83 83 83 83 83 83 83 83 83 83 83 83 83 83
80 76 72 66 66 72 72 75 77 76 78 78 77 69 73 79 77 81 83 85 86 85 86 84 83 83 83 83 83 83 83 83 83 83 83 83 83 83 83 83 83 83 84 83 83 83 83 83 83
81 76 68 67 69 74 78 80 79 75 75 75 76 68 67 76 81 82 83 85 85 86 86 87 83 83 83 83 83 83 83 83 83 83 83 83 84 84 83 83 84 83 84 84 84 83 83 83 83
72 75 69 69 71 75 78 81 79 76 75 74 73 71 70 78 80 81 84 85 87 86 88 88 83 83 83 83 83 83 83 83 83 83 83 84 84 84 84 84 84 84 84 84 84 83 83 83 83
73 74 69 69 71 73 76 83 78 76 75 74 78 69 68 75 81 83 84 85 86 87 87 87 88 85 83 83 83 83 83 83 83 83 83 83 83 83 84 84 84 84 85 85 84 84 84 84 83
76 76 69 72 71 72 79 80 81 79 74 82 82 69 65 75 82 83 84 84 85 86 87 86 87 88 87 87 83 83 83 83 83 83 83 83 84 84 84 83 83 84 84 85 84 84 84 84 83
79 73 70 71 72 76 81 77 81 84 78 80 80 79 81 80 82 81 80 81 82 83 85 86 87 86 85 86 86 84 83 83 83 84 83 85 90 89 87 83 83 83 84 85 84 84 84 84 83
74 71 73 79 81 81 81 80 79 77 77 77 76 80 80 80 79 78 78 78 80 81 84 86 86 85 85 87 85 85 87 89 88 88 86 89 87 86 86 85 82 83 85 85 84 84 84 85 92
74 72 77 82 84 84 82 80 83 78 74 80 74 75 77 78 78 78 79 80 81 83 84 84 84 83 85 85 86 86 87 87 87 85 85 86 87 87 89 89 90 90 86 92 90 90 91 85 86
70 76 79 82 84 82 80 84 78 80 81 86 82 80 78 77 78 79 80 80 81 81 82 84 84 82 83 85 85 86 86 86 87 86 84 84 86 86 86 88 88 87 91 82 83 86 86 89 87
72 77 81 83 85 85 84 82 82 80 86 87 83 80 78 78 79 81 82 82 82 81 82 83 83 81 82 82 85 85 85 86 87 86 85 86 86 85 86 87 88 87 83 84 83 80 84 86 89
79 78 80 84 85 85 82 83 82 85 87 82 80 79 80 79 80 80 80 80 80 81 82 84 82 82 82 82 81 83 84 86 85 87 86 84 85 84 86 86 86 84 85 87 80 85 81 85 85
81 76 82 83 84 83 86 78 77 85 83 79 79 79 80 80 81 80 81 81 82 82 83 82 82 83 82 81 82 83 85 86 86 87 85 84 83 84 83 86 86 85 87 85 85 82 83 80 81
77 76 73 82 83 85 85 76 84 86 82 78 79 78 78 80 81 82 83 83 83 83 81 82 85 83 82 82 82 83 85 85 86 87 86 84 84 83 84 85 87 88 86 82 84 78 87 87 82
73 70 71 75 85 83 82 79 83 86 82 79 78 79 79 79 81 82 84 84 84 83 81 81 82 83 82 81 83 83 83 84 86 87 87 85 82 84 84 87 87 85 87 82 86 86 85 85 87
65 67 72 72 81 81 80 78 81 83 82 80 79 80 79 80 81 83 85 85 85 84 82 82 82 82 81 82 81 83 84 84 86 86 84 85 86 85 84 87 85 85 86 85 86 83 85 85 84
72 72 72 75 81 78 79 80 80 81 82 80 79 79 80 81 85 85 85 86 85 84 82 81 80 80 81 81 81 81 82 83 85 86 85 84 85 84 83 87 85 84 83 84 83 85 82 84 84
71 70 71 75 80 78 79 78 82 80 80 82 80 80 81 83 83 83 84 85 85 83 82 81 80 80 80 82 82 83 83 86 86 87 85 85 85 84 85 84 85 84 84 82 82 81 83 84 83
69 69 71 71 77 79 77 76 76 80 82 83 83 84 83 83 83 82 83 84 85 83 82 81 81 81 81 82 82 82 83 83 83 85 86 86 86 85 84 84 84 84 84 85 82 81 80 83 81
65 74 73 71 70 66 78 66 72 79 77 79 82 82 84 84 85 85 84 83 85 85 84 83 82 81 82 82 82 80 82 82 85 86 87 87 86 86 85 84 84 83 85 83 83 83 82 80 80
69 76 73 73 71 71 71 67 75 74 74 77 81 83 84 86 86 85 85 86 86 86 85 84 82 81 82 81 82 82 81 85 87 86 84 83 85 85 86 84 83 83 84 83 82 80 78 82 83
78 72 73 71 71 59 69 68 71 75 77 81 83 84 84 86 87 87 87 87 86 87 86 84 81 80 81 81 81 80 81 82 84 83 84 85 87 87 84 85 83 83 84 82 83 81 80 80 81
74 70 60 57 58 58 74 67 71 81 83 87 85 84 86 86 87 87 86 85 85 85 85 84 81 79 81 81 81 81 81 81 81 82 84 84 85 86 84 83 82 84 83 83 82 80 80 79 80
69 71 62 52 57 63 68 63 72 84 88 88 91 91 89 87 89 88 88 87 85 85 85 84 82 79 80 81 80 81 81 84 85 84 86 86 87 87 86 84 84 83 83 83 81 82 82 81 80
69 65 76 66 62 61 68 73 78 82 85 87 88 89 88 89 89 89 89 89 87 86 85 83 82 80 81 82 81 80 81 82 84 84 83 86 85 88 86 85 84 84 83 82 81 83 80 79 80
73 77 62 66 53 53 63 63 70 75 80 83 84 87 89 90 90 90 90 90 90 88 87 85 84 82 82 82 82 82 82 82 83 83 82 84 86 85 85 84 84 84 83 82 80 81 80 78 80
68 67 70 71 66 59 58 66 77 78 80 83 87 89 90 90 90 91 92 92 91 91 89 87 85 83 83 83 83 82 83 83 83 83 83 83 84 83 84 83 83 83 82 82 79 80 80 78 78
76 71 71 63 58 64 66 67 82 83 85 84 88 89 91 92 91 91 92 92 91 90 90 88 87 86 85 84 82 82 83 83 83 83 83 83 82 83 84 83 83 83 83 82 80 79 81 78 78

GFSSGP_sfc_temp_036.txt.gz
Temp
85 89 86 78 66 75 70 70 82 79 79 86 86 81 75 75 70 60 76 74 84 78 81 85 82 83 83 82 82 83 83 83 83 83 83 83 83 83 84 84 84 84 84 84 83 83 84 84 83
91 88 77 81 70 70 71 80 77 82 84 87 85 83 79 73 81 72 74 81 81 80 86 88 81 82 83 83 83 83 84 83 83 83 83 83 83 84 84 84 84 84 84 84 84 84 84 84 84
90 88 76 78 77 71 74 80 82 83 86 85 81 86 82 70 77 78 78 84 84 87 91 88 82 82 83 83 83 83 83 83 83 83 83 84 84 84 84 84 84 84 84 84 84 83 84 84 84
86 82 81 68 76 80 81 83 84 83 85 86 85 76 80 84 80 83 84 84 89 90 92 85 82 83 83 83 83 83 83 83 83 84 84 84 84 84 84 84 84 84 84 84 84 84 84 84 84
92 87 76 75 79 83 86 87 86 83 83 83 84 71 68 80 87 89 88 91 91 93 94 91 83 83 83 83 84 84 84 84 83 84 84 84 84 84 84 84 84 84 84 84 84 84 84 84 84
75 86 79 75 80 84 87 88 87 84 83 82 81 76 70 84 83 86 90 91 93 94 96 92 84 83 83 84 84 83 83 83 83 84 84 84 84 84 84 84 84 85 85 84 84 84 84 84 84
81 84 80 81 80 82 84 90 87 85 83 82 87 77 77 80 85 88 91 92 92 97 96 93 93 87 84 84 84 84 83 83 84 84 84 84 84 84 84 84 84 85 85 85 85 85 84 84 84
84 86 79 83 81 80 87 88 89 87 83 91 90 76 72 81 88 92 91 90 91 96 96 93 93 93 91 90 84 84 83 84 84 84 84 84 84 84 85 84 84 85 85 85 85 85 85 84 84
89 82 82 81 82 84 90 86 90 92 86 87 88 88 87 88 91 90 86 86 88 93 95 95 95 92 91 91 89 84 84 84 84 85 84 85 94 94 93 85 84 85 85 86 85 86 85 85 84
84 82 83 89 90 88 90 89 87 86 85 85 85 91 89 89 88 87 84 82 88 91 93 95 94 93 92 95 90 90 92 94 94 94 91 95 93 93 91 88 84 86 86 85 85 85 86 85 92
86 83 88 89 91 92 91 89 92 87 83 87 83 84 86 87 86 88 88 89 90 91 93 94 93 91 92 92 93 93 94 95 93 90 91 93 94 94 98 96 94 95 88 91 91 93 94 93 96
80 87 88 91 91 90 88 93 89 89 90 94 90 88 87 85 87 89 89 90 91 90 91 94 93 90 91 93 93 94 94 95 95 94 90 91 92 93 94 98 95 93 93 93 93 93 93 95 93
82 87 89 92 92 92 92 89 89 89 93 96 92 88 87 87 88 90 92 92 92 90 91 92 91 88 88 88 93 94 93 94 96 94 92 94 95 93 94 94 97 95 93 94 92 94 93 92 93
89 88 89 92 93 94 89 90 91 93 95 91 89 87 89 88 90 90 90 90 90 90 91 92 90 88 88 88 88 90 92 94 94 95 94 90 93 92 91 94 95 96 97 93 91 92 91 90 94
90 82 88 89 92 90 93 87 88 95 94 89 89 88 89 89 91 89 90 90 91 91 91 90 90 90 87 87 88 89 93 95 94 95 91 90 90 90 88 92 93 95 92 91 92 87 87 93 93
83 86 80 91 92 93 91 82 92 97 93 88 89 88 88 89 91 91 92 92 92 91 89 90 93 91 89 88 89 91 93 94 95 95 94 90 90 89 89 92 96 94 91 93 93 91 91 93 91
83 78 81 84 93 91 89 85 91 98 93 90 89 89 88 88 90 91 93 92 93 91 89 88 90 90 89 88 90 90 90 91 94 95 95 91 90 90 90 93 96 92 91 94 93 92 91 91 93
76 77 82 82 89 90 88 87 93 95 92 91 89 90 88 89 89 92 92 93 93 92 90 88 90 88 88 89 87 91 92 92 94 94 94 91 91 90 90 93 91 91 95 92 93 88 90 91 90
84 82 80 86 91 87 86 88 91 93 92 91 90 89 89 90 93 93 93 94 93 92 89 87 86 86 87 87 87 88 89 91 92 93 91 90 90 90 89 93 90 89 89 90 90 91 86 90 90
80 77 80 86 90 86 86 86 92 92 91 92 90 90 90 92 92 91 92 93 93 90 89 87 86 85 86 88 88 91 90 93 93 94 92 91 91 90 90 89 92 90 91 88 88 87 91 91 91
77 77 79 80 85 87 85 82 86 91 93 93 95 94 94 92 92 91 91 92 93 90 88 87 86 86 86 88 89 88 90 90 91 92 92 92 91 91 89 89 89 90 88 92 88 87 85 88 88
74 83 81 81 79 73 87 73 84 90 89 91 94 93 95 92 94 93 92 91 93 91 91 89 87 86 86 86 88 85 87 87 91 92 94 94 91 92 92 90 90 88 92 90 89 89 88 85 86
77 86 81 80 78 77 79 75 81 90 86 90 93 95 95 96 96 94 93 93 94 94 92 90 87 86 87 86 87 87 86 91 93 94 91 89 90 91 93 91 89 88 89 89 88 86 84 88 89
85 81 80 79 78 68 77 77 78 85 86 91 95 96 95 96 97 96 96 96 94 95 94 92 87 85 86 86 85 86 86 88 91 90 91 92 93 93 90 91 89 89 89 89 88 87 85 85 86
81 76 66 64 66 65 81 76 79 89 94 94 95 97 97 96 97 96 95 94 94 93 93 92 88 85 86 86 86 86 86 86 87 89 90 91 93 94 92 89 88 90 88 89 88 86 86 85 85
76 77 70 58 65 70 79 71 80 92 96 97 98 101 100 98 98 98 96 95 93 93 93 91 89 85 86 86 86 86 86 90 90 90 93 92 94 95 93 90 90 89 90 89 88 89 88 87 86
76 71 84 76 77 72 79 81 88 92 93 95 96 99 100 98 98 97 98 97 95 93 93 91 90 87 87 88 87 86 86 87 90 89 90 93 92 96 93 91 89 90 90 89 87 90 86 87 85
83 84 72 75 61 60 72 74 77 84 86 91 94 97 100 101 99 100 99 99 98 97 95 93 91 89 89 89 88 88 88 88 89 90 89 90 93 91 92 90 90 90 89 88 86 88 87 85 87
77 76 78 80 76 67 66 75 89 86 89 90 94 98 101 101 101 101 101 101 100 100 97 95 93 91 90 90 90 89 89 89 88 89 89 89 90 91 90 89 89 89 89 88 86 87 88 84 84
84 78 78 70 66 73 74 79 92 92 93 94 96 98 101 102 103 104 104 103 101 99 99 97 96 94 92 92 89 89 89 89 89 88 89 89 88 90 89 90 88 89 89 88 86 85 88 85 83

GFSSGP_sfc_temp_042.txt.gz
Temp
82 86 85 75 63 65 63 67 70 72 77 86 89 82 78 79 73 60 78 78 83 85 85 85 82 83 83 83 82 83 83 83 83 83 83 84 84 84 84 84 84 84 84 84 84 84 84 84 84
90 89 81 72 60 57 61 79 72 78 86 87 87 85 80 71 75 71 75 81 85 88 88 86 82 82 83 83 83 83 84 83 83 83 83 84 84 84 84 84 84 84 84 84 84 84 84 84 84
90 88 70 65 62 58 61 77 79 86 89 84 81 85 83 73 77 76 81 83 87 90 90 84 82 82 82 83 83 83 83 84 83 84 84 84 84 84 84 84 84 84 84 84 84 84 84 84 84
85 79 74 64 66 71 77 82 86 86 87 86 84 75 81 85 79 85 82 82 88 86 90 83 83 82 83 83 83 83 84 84 84 84 84 84 84 84 84 85 84 84 84 84 84 85 85 85 85
82 77 60 57 69 80 88 90 91 86 84 84 84 73 72 84 87 88 82 86 88 87 88 86 82 83 83 83 84 84 84 84 84 84 84 84 84 84 85 85 85 85 85 85 85 85 85 85 85
72 66 58 59 68 87 91 93 88 84 84 84 79 75 71 84 86 85 88 90 90 90 90 86 83 83 83 84 84 84 84 84 84 84 84 84 84 84 85 85 85 85 85 85 85 85 84 84 84
75 61 60 64 65 84 89 95 89 90 86 83 85 73 74 81 86 88 90 89 91 91 90 87 86 85 84 84 84 84 84 84 84 84 84 84 84 85 85 85 85 86 86 85 85 85 85 84 84
86 81 67 63 72 79 93 93 95 90 86 92 88 72 68 80 88 88 88 90 89 92 90 88 87 87 85 85 84 84 84 84 84 84 84 84 85 85 85 84 85 86 86 86 85 85 85 84 84
94 68 69 76 76 74 95 90 93 97 91 92 90 82 83 86 89 86 86 86 90 85 91 90 90 87 85 85 85 84 84 84 84 85 84 83 83 86 84 86 86 86 86 86 86 86 85 85 84
84 60 63 80 80 80 90 93 92 90 90 85 84 83 85 86 85 81 85 82 86 85 91 92 90 89 88 91 83 85 86 87 86 84 75 71 80 83 89 87 86 86 86 86 85 82 86 84 86
88 72 69 76 82 93 88 93 97 90 85 85 80 81 84 84 83 82 85 87 86 91 93 93 90 88 89 85 86 88 88 88 79 75 73 75 79 84 85 83 80 74 81 84 83 80 81 82 83
85 78 83 83 90 86 76 84 84 92 89 92 88 86 85 83 83 85 85 88 89 91 93 94 91 87 88 87 88 90 90 85 85 85 81 82 77 77 75 76 75 73 78 78 81 82 82 84 87
88 79 84 81 88 83 75 84 79 88 95 95 91 88 86 86 85 86 87 90 90 91 94 93 89 86 87 86 88 88 89 92 91 89 88 84 77 79 78 78 78 81 79 82 84 83 84 81 85
92 93 93 89 97 90 87 84 87 88 98 93 90 88 89 89 87 88 88 88 90 93 93 93 89 87 89 88 89 85 90 89 90 90 88 89 80 80 84 82 83 82 77 78 84 85 83 83 84
94 86 92 88 96 95 97 82 85 77 96 91 90 89 90 92 92 90 91 90 93 94 93 90 89 89 87 87 88 88 91 91 91 89 87 90 88 87 86 81 81 80 81 83 84 84 80 78 85
88 86 78 90 94 96 94 81 88 89 93 90 90 90 90 92 94 94 95 95 95 93 90 90 95 90 87 86 87 88 89 90 89 90 88 89 90 89 82 74 77 79 85 83 83 79 80 81 81
85 75 79 84 95 93 91 84 94 96 95 90 89 90 90 90 93 94 97 96 95 92 89 89 90 88 86 86 87 86 87 89 90 91 90 86 88 88 85 76 74 76 83 82 84 82 81 80 81
75 77 81 80 90 92 89 88 94 97 92 91 91 91 90 90 92 94 96 97 96 93 90 88 90 87 84 85 84 87 87 88 89 90 90 86 87 88 83 76 75 80 77 83 84 82 83 82 81
84 82 81 87 92 88 87 88 91 94 92 91 88 91 90 91 94 95 96 97 96 93 89 86 86 85 85 84 84 84 84 86 87 88 90 86 88 87 85 81 81 85 80 80 82 81 83 81 83
82 81 82 88 93 89 88 86 93 93 94 93 90 92 92 92 93 93 94 95 95 90 88 85 85 84 85 85 84 85 85 87 88 88 88 90 88 88 87 83 83 82 82 84 84 83 79 81 82
80 79 81 84 88 87 88 82 88 93 93 95 95 96 95 93 93 92 91 93 94 90 87 85 84 84 84 85 85 85 86 86 86 86 87 88 88 87 85 85 82 81 81 80 84 83 83 77 81
75 86 86 85 83 75 89 72 83 90 90 92 95 93 95 95 95 93 93 92 93 91 89 86 84 84 85 84 84 82 82 82 85 85 86 87 86 87 87 85 84 83 82 81 80 84 83 81 77
80 89 85 85 82 81 82 76 82 89 87 90 94 92 97 97 97 94 93 93 94 93 90 87 84 83 84 83 83 84 82 85 86 86 84 84 84 87 89 85 85 84 81 81 82 82 82 82 80
90 86 85 84 81 70 78 79 79 85 87 92 95 97 98 99 98 96 95 94 94 95 91 88 83 82 83 83 82 83 81 83 84 84 85 86 86 86 86 87 84 84 84 83 84 84 82 81 81
86 79 68 66 67 65 80 77 80 91 94 96 95 97 99 100 99 97 93 93 92 92 90 88 84 81 83 83 82 82 83 82 82 84 85 85 86 87 85 85 84 84 83 83 84 83 83 82 81
81 79 69 57 63 68 79 72 79 93 99 102 101 101 102 101 102 99 95 94 91 92 90 89 85 82 83 84 82 82 83 85 85 85 87 86 88 88 86 85 85 84 84 84 84 84 84 82 81
80 74 85 75 77 71 76 80 89 94 95 98 100 101 100 101 102 99 97 96 93 92 90 88 85 83 84 84 84 83 82 84 84 83 86 88 86 91 88 86 85 85 85 84 84 84 82 83 81
85 88 73 76 61 61 72 75 77 83 89 94 96 99 101 101 101 100 99 97 95 95 94 91 89 85 85 85 85 85 84 84 84 84 84 85 87 87 90 85 85 85 85 85 83 84 84 82 82
81 79 80 80 76 66 66 75 93 86 90 92 96 99 101 102 101 102 101 100 98 97 95 93 91 87 86 86 85 85 85 84 84 85 85 86 86 87 86 86 85 85 84 84 83 82 83 82 81
86 81 81 71 67 75 75 77 96 96 96 97 97 99 102 102 102 102 103 102 99 96 96 95 93 92 89 87 86 85 86 86 85 84 86 86 85 86 87 86 85 85 84 84 83 82 84 83 81

GFSSGP_sfc_temp_045.txt.gz
Temp
80 81 79 74 61 60 60 63 71 71 67 78 84 79 73 72 68 59 72 75 79 77 79 82 82 83 83 82 82 83 83 83 83 83 83 83 84 83 83 83 84 83 84 84 84 84 84 84 83
81 81 76 68 60 55 59 71 66 74 82 83 82 80 75 65 70 69 70 78 80 80 79 80 82 82 83 82 83 83 83 83 83 83 83 83 84 84 84 84 84 84 84 84 84 84 84 84 83
84 86 67 63 59 55 59 73 78 82 84 81 78 80 77 66 73 73 78 81 82 81 80 81 82 82 83 83 83 83 83 83 83 83 83 84 84 84 84 84 84 84 84 84 84 84 84 84 84
79 74 70 60 59 67 68 76 83 81 82 84 79 70 75 79 75 77 81 82 82 80 80 82 82 83 83 83 83 83 83 83 83 83 84 84 84 84 84 84 84 84 84 84 84 84 84 84 84
79 72 59 58 60 68 76 81 83 78 80 78 78 66 67 77 79 80 81 84 82 79 79 81 82 83 83 83 83 83 83 83 83 83 84 84 84 84 84 84 84 84 84 84 84 84 84 84 84
68 67 58 55 63 74 78 86 84 82 78 75 71 70 69 77 77 79 82 82 83 80 80 81 82 83 83 84 83 83 83 83 83 84 84 84 84 84 84 85 85 85 85 85 84 84 84 84 84
69 60 55 59 63 72 82 87 82 79 77 74 78 67 71 73 78 79 81 85 86 83 80 79 80 83 84 83 84 83 83 84 84 84 84 84 84 84 84 84 85 85 85 85 85 84 84 84 83
74 62 56 61 61 64 86 88 86 80 77 85 81 68 67 75 81 82 83 84 85 82 81 79 79 78 77 79 84 84 84 84 84 84 84 84 84 85 85 83 84 86 85 85 85 84 84 84 84
85 61 59 64 71 74 76 82 88 89 81 82 83 77 79 81 83 81 80 79 81 81 81 80 79 77 77 77 82 83 84 84 84 83 84 80 77 79 82 81 84 85 86 86 85 85 84 84 83
75 61 64 75 76 76 82 82 83 80 75 74 75 80 82 82 81 78 78 77 77 79 81 81 80 79 79 84 77 77 80 78 78 77 72 71 72 75 81 83 85 86 85 85 85 84 85 84 79
80 65 73 74 78 84 80 81 87 77 70 73 71 76 80 80 79 79 79 79 80 82 83 82 82 81 80 80 76 76 76 77 77 74 72 71 75 75 75 76 75 71 78 77 80 78 79 79 79
75 82 80 82 83 80 81 78 81 81 77 80 79 79 80 79 78 79 80 81 81 83 83 84 83 82 79 79 78 79 79 77 75 74 75 70 73 72 72 74 73 72 72 74 76 75 77 77 81
79 81 83 86 82 78 84 81 80 81 82 81 81 80 79 78 80 82 84 83 85 82 84 84 83 81 80 79 78 78 79 80 79 76 75 73 73 71 76 75 72 72 73 72 77 77 78 79 79
84 84 82 80 79 82 79 82 82 82 84 80 79 78 79 79 80 82 82 83 83 85 85 84 83 81 83 83 78 80 83 83 85 84 79 75 75 73 74 73 74 75 73 73 77 79 80 79 78
86 81 81 79 80 80 82 76 80 83 83 80 79 79 80 80 81 81 82 82 85 85 85 84 83 81 81 80 80 82 80 85 79 84 80 79 77 74 74 75 76 75 74 78 79 78 75 76 78
79 80 73 82 84 83 81 67 80 86 81 78 79 80 80 80 81 83 84 85 86 88 83 84 88 82 79 79 79 80 79 81 84 83 80 81 80 79 74 72 74 74 74 76 76 76 78 75 77
72 66 70 76 87 84 80 72 79 83 82 79 80 81 81 81 82 83 86 86 87 88 83 83 84 81 78 78 78 79 79 79 81 83 80 80 81 80 75 73 72 73 75 78 77 76 76 74 77
63 65 72 72 82 84 78 75 76 80 82 80 81 82 83 81 81 84 86 88 88 85 84 84 82 81 79 78 77 77 77 78 79 80 79 80 80 81 75 74 74 74 74 77 78 76 74 74 77
74 72 72 79 86 80 79 78 78 80 81 73 72 82 82 84 87 88 89 90 88 85 82 84 80 79 80 77 77 74 75 75 77 79 80 80 80 80 75 73 75 74 75 76 77 76 75 74 74
74 71 73 79 85 82 78 77 82 81 75 74 75 70 82 84 86 87 88 89 87 83 83 81 80 79 80 80 80 75 76 76 78 79 79 80 80 80 79 76 75 76 75 75 75 75 73 73 73
72 70 71 72 82 86 80 75 80 82 77 75 72 73 85 84 85 85 87 87 86 82 82 80 80 79 80 79 79 76 76 76 75 76 77 79 80 80 79 78 76 75 75 74 76 76 74 73 72
66 78 78 77 74 62 77 58 69 80 76 74 74 77 83 85 87 86 87 86 86 83 83 82 80 79 80 79 80 79 80 77 74 77 77 78 80 80 80 79 77 77 75 75 75 77 75 73 71
71 80 77 76 71 70 72 65 71 77 76 76 75 75 79 87 86 86 86 88 88 86 83 82 81 80 81 80 81 79 76 74 75 76 77 76 77 79 81 79 78 77 75 75 75 76 74 74 72
82 77 74 74 70 60 67 69 69 73 75 77 78 80 82 88 88 88 89 89 88 86 84 81 80 79 80 80 77 79 75 75 73 74 74 74 78 79 80 80 78 77 76 76 76 76 75 74 73
77 66 55 55 56 55 65 62 66 80 83 84 84 83 84 87 86 88 86 86 87 84 83 81 79 79 80 80 80 76 78 75 75 74 78 74 76 79 79 78 78 77 77 77 77 77 76 74 73
71 68 58 47 50 56 65 59 68 82 85 92 92 88 87 84 86 88 88 87 87 86 83 82 79 79 80 79 79 81 77 80 80 76 76 78 79 81 82 79 81 79 78 77 77 76 76 76 74
70 64 70 55 57 52 58 65 76 83 83 84 89 91 87 84 88 89 89 88 87 86 84 82 80 80 80 80 80 79 80 78 80 81 76 77 77 81 81 82 79 80 79 78 77 76 76 76 75
75 75 61 63 47 48 59 62 66 74 79 82 82 89 91 92 91 89 89 89 88 89 86 85 82 80 80 80 81 80 80 81 79 78 77 78 79 79 79 82 81 80 80 79 77 76 76 75 75
71 67 69 62 57 48 48 60 75 78 80 82 82 84 92 92 92 90 89 90 89 90 88 85 83 81 80 81 81 81 80 80 81 78 79 79 79 79 78 79 80 80 80 79 78 77 76 75 75
77 72 68 61 53 57 55 62 78 79 85 86 87 87 89 93 93 91 90 91 89 89 88 86 85 82 82 82 81 81 81 81 80 81 77 81 79 82 79 80 80 80 80 80 78 77 80 75 74

GFSSGP_sfc_temp_051.txt.gz
Temp
79 79 76 70 60 60 56 61 67 64 65 73 79 74 68 66 65 56 70 72 74 74 77 81 82 83 82 82 82 82 83 83 83 83 83 83 83 83 83 83 83 83 83 83 83 83 83 83 83
78 77 73 66 59 53 57 67 63 68 73 76 76 73 68 63 69 67 68 74 75 75 77 79 81 82 82 82 82 83 83 83 83 82 83 83 83 83 83 84 83 83 83 84 83 83 84 83 83
78 80 66 61 58 54 56 67 67 75 79 77 72 74 70 65 69 70 73 75 76 75 77 79 82 82 83 83 83 83 83 83 83 83 82 83 83 84 83 83 83 83 83 83 82 82 84 84 83
74 71 68 59 57 64 64 67 73 74 77 77 73 64 71 77 72 73 76 76 75 76 79 82 82 83 83 83 83 83 83 83 83 82 83 84 84 84 84 84 84 84 84 82 84 83 84 83 83
75 70 60 57 62 67 67 71 76 75 73 72 72 63 64 73 76 76 75 77 74 74 78 80 82 83 83 83 83 83 83 83 82 83 84 84 84 84 84 84 84 84 84 84 83 83 83 83 83
66 66 56 53 60 69 71 71 72 76 71 69 66 66 65 73 74 75 77 75 77 75 77 80 82 83 83 83 83 83 83 83 83 83 83 83 84 84 84 84 84 84 84 84 83 82 82 83 83
64 59 57 60 62 66 71 68 68 72 71 69 73 62 66 70 75 77 75 76 76 77 76 77 79 81 83 83 83 83 83 83 83 83 83 83 84 84 84 84 84 84 84 84 83 83 83 83 83
67 64 60 62 60 62 73 70 73 74 71 77 75 62 62 70 76 76 75 75 75 75 76 74 75 76 76 78 83 83 83 83 83 83 83 84 84 84 84 82 84 85 85 84 83 83 83 83 83
72 60 56 62 63 64 72 72 77 80 73 77 76 72 72 75 76 73 72 73 74 75 73 73 73 74 74 76 80 82 83 83 83 82 83 79 74 76 79 82 84 85 85 85 84 84 83 83 83
65 57 63 70 72 67 67 73 76 73 72 68 70 73 75 75 73 70 71 71 73 74 73 72 73 73 73 80 76 75 78 77 76 75 73 72 73 74 78 81 84 83 83 83 84 84 84 81 76
67 59 69 74 78 79 74 74 78 72 66 69 64 68 73 73 72 71 72 73 72 73 74 72 72 72 73 75 73 73 74 74 73 72 71 72 74 74 74 73 72 72 78 74 76 75 76 76 76
63 70 73 78 80 78 74 73 73 73 72 75 72 73 72 71 71 72 71 72 72 72 74 73 73 72 72 72 72 72 72 72 72 71 71 71 71 72 71 71 71 71 70 72 72 73 74 74 76
67 71 76 79 79 79 78 76 74 73 76 76 75 74 72 72 73 75 75 75 74 73 74 74 74 72 73 71 71 71 72 73 73 72 72 70 69 70 71 71 71 71 72 71 71 73 74 74 75
73 74 75 78 79 79 76 76 75 74 76 74 73 72 72 73 74 75 75 74 74 75 75 75 74 74 72 71 70 71 72 73 73 73 72 73 70 70 71 72 72 72 72 71 72 72 73 75 76
74 68 73 76 77 76 81 70 71 73 74 71 72 72 73 74 76 75 76 75 76 76 77 75 75 75 72 72 72 72 73 75 73 74 74 74 73 72 73 72 72 72 72 73 73 73 72 72 74
67 64 58 72 77 80 75 63 70 73 71 69 71 73 74 75 76 77 79 78 78 78 76 76 80 76 73 72 72 73 74 74 76 75 74 75 74 73 73 72 72 72 72 72 71 71 71 71 71
58 53 59 66 77 77 73 65 70 73 70 69 70 72 73 73 75 78 80 80 80 79 77 76 78 76 74 73 73 74 75 73 74 74 74 74 75 75 73 72 72 72 71 72 72 71 72 72 73
52 54 58 62 71 73 68 66 68 71 70 69 70 71 72 73 74 78 80 81 81 79 78 78 78 76 75 74 72 72 73 73 73 74 74 75 75 75 72 72 72 70 71 72 72 71 70 70 73
61 61 62 67 74 72 69 69 67 70 70 68 69 71 71 73 77 79 80 82 81 79 78 78 77 77 75 72 72 70 71 71 72 73 76 75 75 75 72 72 71 71 72 72 72 70 70 68 69
61 58 59 67 73 72 71 69 70 69 69 70 69 70 72 73 75 78 79 81 79 78 78 77 78 77 76 78 78 72 71 71 73 74 75 76 76 75 74 72 72 72 72 72 72 70 69 68 69
60 58 60 62 68 73 70 67 71 69 71 72 72 73 74 74 74 76 78 79 81 77 77 77 78 79 78 78 72 70 71 71 71 71 73 74 76 76 75 73 73 72 72 71 71 71 70 68 68
52 66 68 66 60 58 69 51 66 68 67 70 71 72 73 75 77 77 78 78 80 79 79 79 79 79 79 77 76 73 73 73 70 71 72 73 76 76 76 75 74 73 72 72 72 72 71 69 68
61 67 65 65 58 54 65 53 59 68 63 67 70 73 75 77 78 77 78 80 81 82 79 79 78 78 79 76 78 76 72 73 69 70 72 72 73 75 77 75 74 73 72 73 72 71 71 69 68
70 64 61 58 55 52 60 56 54 63 66 69 73 75 77 78 80 80 81 82 81 83 80 79 77 77 78 77 77 76 75 69 69 69 70 70 72 75 75 76 74 73 73 73 72 73 71 70 68
66 55 44 43 43 48 57 54 63 69 74 74 74 76 79 80 81 80 79 80 81 81 79 78 76 76 77 76 76 76 75 72 73 70 70 68 70 70 73 74 73 73 73 73 72 72 72 71 69
59 57 43 37 38 50 56 48 59 73 78 80 80 80 80 79 79 83 81 81 81 82 79 79 76 76 77 76 76 76 76 75 75 74 72 72 73 75 76 75 75 75 74 74 72 72 72 71 71
60 56 61 47 43 46 52 54 65 71 74 77 79 79 79 79 80 82 84 82 82 81 79 79 77 77 77 77 77 76 76 76 76 74 73 73 72 75 74 76 75 74 74 74 73 72 72 72 71
65 65 51 47 40 38 46 51 61 63 67 73 75 77 78 80 82 84 85 84 83 82 81 81 79 78 78 78 78 77 77 77 77 72 72 71 72 73 74 74 75 74 74 75 73 73 73 72 71
57 60 56 56 49 48 39 51 61 67 70 72 76 79 78 79 81 83 84 86 86 83 82 81 80 79 78 78 78 78 77 77 77 75 74 74 72 73 73 73 74 74 75 75 74 73 73 73 72
51 58 55 55 47 45 52 56 67 70 70 76 77 78 79 82 82 84 85 86 85 85 81 81 81 80 80 79 79 78 77 77 76 76 75 75 73 71 73 73 74 75 76 75 75 74 75 73 72

GFSSGP_sfc_temp_054.txt.gz
Temp
80 80 76 70 60 60 56 61 67 63 65 72 77 73 69 68 66 56 69 71 74 73 77 80 82 83 83 82 82 82 83 83 83 83 83 83 83 83 82 83 83 83 83 83 84 83 83 83 83
77 76 72 67 58 52 56 65 64 67 73 75 74 72 69 63 68 67 67 73 75 75 76 78 82 82 83 83 83 83 83 83 83 83 83 83 83 83 83 83 83 84 83 83 83 84 83 83 83
76 79 66 62 58 55 58 66 66 73 76 74 69 73 69 64 69 69 72 74 75 75 75 79 82 82 83 83 83 83 83 83 83 83 83 82 83 83 84 84 83 82 83 83 83 84 83 83 83
73 70 67 58 57 62 64 67 71 70 72 74 71 63 70 75 72 71 75 75 74 75 77 82 83 83 83 83 83 83 83 83 83 83 83 84 84 84 84 84 84 82 83 83 83 84 83 84 83
73 67 57 57 61 65 69 71 71 71 69 70 71 63 63 72 74 75 74 76 74 74 76 80 83 83 83 83 83 83 83 83 83 83 83 84 84 85 84 84 84 84 83 83 83 84 83 83 84
66 64 54 52 59 68 72 70 73 71 69 68 65 65 65 71 72 73 75 74 76 75 76 78 82 83 83 83 83 83 83 83 83 83 83 84 84 84 84 84 84 84 84 84 83 83 84 84 83
63 58 56 58 60 64 68 70 70 71 70 67 72 62 65 68 73 74 74 74 76 76 75 76 78 81 84 83 83 83 83 83 83 83 83 84 84 84 84 84 84 84 84 84 84 84 83 83 83
67 61 59 61 60 60 72 71 75 73 69 76 75 62 62 69 74 74 74 73 74 74 75 74 75 76 76 79 83 83 83 83 83 83 83 83 84 84 84 82 83 84 84 85 85 84 84 83 83
74 57 54 61 62 66 72 70 76 79 71 75 74 71 71 73 74 72 72 72 73 74 73 73 73 74 74 76 80 83 83 83 83 83 83 79 76 78 80 82 84 84 85 85 84 84 84 84 84
66 55 60 70 71 68 73 74 73 71 69 67 67 71 73 73 72 71 72 72 73 74 73 72 73 73 74 79 76 76 79 78 77 76 75 74 75 76 79 81 84 84 82 84 84 84 84 81 79
67 58 67 72 76 74 72 73 77 71 65 66 63 66 70 70 71 72 73 74 74 76 75 72 72 73 73 75 74 74 75 75 74 74 73 74 75 75 76 75 73 74 79 76 78 77 78 78 79
61 68 70 74 78 74 72 75 72 73 72 73 70 70 70 69 70 73 73 73 74 75 76 72 72 72 72 73 73 74 74 74 73 73 73 73 73 74 74 73 73 73 73 74 75 74 77 77 78
64 68 73 75 75 74 76 72 72 72 73 74 72 72 70 69 70 75 76 73 73 74 74 72 72 72 72 72 72 72 73 74 74 72 72 73 72 72 73 74 74 73 74 73 73 75 76 76 77
70 72 72 74 73 74 73 74 73 70 72 71 70 70 70 70 71 72 72 71 71 72 72 73 72 72 71 71 71 72 72 74 74 74 73 72 71 72 73 74 74 74 74 75 74 75 76 76 76
71 66 72 72 72 73 77 68 69 70 71 68 69 69 70 71 73 71 73 72 73 73 74 72 72 72 71 71 71 72 73 75 74 74 74 74 74 73 72 73 74 75 75 74 74 77 75 75 76
64 62 56 68 73 75 74 60 68 71 68 66 68 69 70 71 73 74 75 75 75 74 72 73 78 73 71 70 71 72 73 74 74 75 75 75 75 74 73 73 74 75 75 74 73 74 73 74 74
55 51 57 63 73 73 70 62 67 70 68 66 67 69 70 70 73 75 77 76 76 75 73 72 74 72 71 71 72 72 73 73 74 75 75 75 76 76 75 73 74 75 74 75 74 73 75 74 75
50 51 56 60 69 70 66 63 66 68 67 67 68 69 70 70 72 76 77 78 77 76 74 74 74 72 71 71 72 72 73 73 73 74 75 75 76 76 74 72 74 73 73 75 75 73 73 74 74
58 57 59 65 71 67 65 64 64 67 67 66 67 68 69 71 75 77 78 79 78 76 74 73 72 71 72 70 70 70 71 72 73 74 75 75 76 76 74 74 73 72 74 75 75 74 73 73 73
58 54 56 64 69 67 65 65 66 66 66 67 67 68 70 72 73 75 76 78 78 75 74 73 73 71 73 74 72 72 71 72 74 74 75 76 76 76 75 74 73 74 73 73 74 74 72 72 72
55 52 55 58 65 68 63 61 62 67 68 70 71 71 72 72 72 74 75 77 78 76 74 74 74 73 74 73 72 70 72 72 72 73 74 75 76 77 76 75 74 74 74 73 75 74 73 71 72
48 62 63 61 57 51 64 48 59 63 63 67 68 70 71 72 74 75 76 76 77 77 77 75 74 74 74 74 73 72 72 72 71 72 73 75 76 76 77 76 75 75 74 73 75 75 74 72 72
57 63 61 61 55 51 58 52 56 64 59 63 68 70 72 74 75 75 76 78 79 78 77 76 74 74 74 74 74 74 73 72 71 72 72 73 74 76 77 76 76 75 74 74 75 74 73 72 72
65 59 57 54 51 46 56 58 53 57 63 65 69 71 73 74 76 77 78 79 79 80 78 76 73 73 74 74 74 73 73 70 70 70 71 72 74 75 76 77 76 76 75 75 73 75 74 72 72
62 52 40 38 39 46 56 53 58 65 70 71 70 72 74 76 76 77 76 77 78 78 76 76 74 72 74 74 74 74 74 71 71 71 71 70 71 73 74 75 75 76 75 75 75 74 74 73 73
57 53 40 33 37 48 52 47 57 73 73 76 76 76 76 77 77 78 78 78 78 78 77 76 74 74 74 74 74 74 74 74 74 72 72 73 73 74 76 76 76 76 76 76 75 75 76 75 74
54 51 57 43 40 41 53 53 66 67 71 73 76 76 76 77 78 79 80 79 79 79 78 76 75 75 75 75 74 74 74 74 74 72 73 73 72 76 75 76 76 77 76 76 75 75 75 75 75
56 62 48 44 37 34 44 48 56 62 65 68 70 73 76 78 79 81 82 81 81 82 81 78 78 76 76 76 76 76 75 75 75 73 72 72 72 74 75 75 76 76 76 76 75 75 76 75 75
54 54 51 54 47 42 39 49 60 64 69 72 70 74 76 78 79 80 82 84 82 83 82 79 78 77 77 76 76 76 76 76 75 74 74 73 73 73 74 74 75 76 76 76 75 76 76 75 75
49 46 49 50 44 47 44 52 67 67 69 74 75 75 77 79 80 81 83 83 82 81 81 79 79 78 78 77 76 76 76 76 75 74 74 74 73 73 74 75 75 76 76 76 76 76 77 76 75

GFSSGP_sfc_temp_057.txt.gz
Temp
81 83 78 71 61 62 62 63 69 67 69 78 80 75 71 72 70 64 80 81 84 85 84 86 82 83 83 82 82 83 83 83 82 82 83 83 83 82 83 83 83 83 83 84 84 83 84 83 83
82 81 74 68 58 61 63 68 63 69 76 81 78 77 73 67 72 71 74 82 85 87 88 87 82 82 83 82 82 83 83 83 83 83 83 83 83 83 83 83 84 84 84 84 84 84 84 83 83
82 80 67 65 63 62 58 69 72 76 78 78 73 75 72 68 73 75 82 84 86 86 88 86 82 82 83 83 83 83 83 83 83 83 83 83 83 83 84 83 83 83 84 84 84 83 83 83 83
78 70 69 62 61 64 63 72 77 75 79 79 75 67 73 77 76 80 83 85 87 86 89 84 83 83 83 83 83 83 83 83 83 82 83 83 83 84 83 83 84 84 84 84 84 84 84 84 83
78 72 65 62 62 67 74 75 75 74 73 75 74 64 65 73 79 82 82 86 86 87 88 88 83 83 83 83 83 83 83 83 83 84 84 84 84 84 85 84 84 84 84 84 84 84 84 83 83
66 72 64 58 64 71 76 75 78 76 73 71 71 69 66 76 77 81 84 85 87 87 89 88 83 83 83 83 83 83 83 83 83 83 84 84 84 84 84 84 84 84 84 84 84 84 84 84 84
67 68 64 65 66 69 73 76 77 75 72 71 75 67 67 73 80 82 84 85 87 88 87 88 86 85 83 83 83 83 83 83 83 84 83 84 84 84 84 84 84 84 85 84 84 84 84 84 83
74 72 64 68 66 68 75 73 80 77 73 81 80 68 64 74 81 83 83 84 85 86 87 86 87 88 87 88 83 83 83 83 83 83 83 84 84 84 83 83 83 84 85 85 84 84 84 83 82
76 66 64 68 68 70 76 74 79 82 75 77 79 78 79 78 80 80 79 80 83 83 85 87 87 86 85 86 86 84 83 83 83 84 83 83 87 88 88 84 84 84 85 85 85 84 84 84 84
69 65 68 76 77 73 74 77 77 75 74 72 73 78 78 78 78 78 78 78 80 81 84 86 85 85 85 87 86 86 87 89 87 86 85 86 85 86 88 86 82 84 84 84 84 84 84 86 92
73 67 73 78 80 79 79 77 80 76 71 74 70 70 74 77 77 78 80 81 82 83 84 84 84 83 85 85 86 86 87 87 86 84 84 84 85 86 89 88 88 87 84 90 88 88 92 88 91
68 74 75 78 82 79 77 82 78 78 79 81 77 76 76 77 77 79 80 80 82 81 81 84 84 82 84 85 86 86 86 86 86 85 82 83 86 85 85 88 85 85 88 86 87 89 88 88 88
71 73 77 80 81 81 81 79 77 78 81 81 79 77 76 78 77 80 82 80 80 79 80 83 83 81 82 82 84 85 85 86 87 85 84 86 86 84 86 84 86 85 88 88 87 88 88 86 85
76 76 77 79 80 81 79 79 79 75 80 77 75 75 77 78 77 80 80 79 78 78 81 83 82 82 82 82 81 83 84 86 86 86 85 82 85 84 86 85 86 86 88 89 89 87 87 87 88
77 71 75 79 78 77 83 75 76 77 78 74 74 75 77 78 80 79 80 80 80 80 82 82 82 83 81 81 82 83 85 86 86 86 83 83 83 82 83 86 86 87 86 85 87 86 86 87 88
73 73 67 78 79 81 81 70 76 77 76 73 74 75 75 77 80 81 82 82 82 82 80 82 85 83 82 82 82 84 85 86 86 87 86 84 83 83 83 85 86 86 87 88 83 81 87 87 88
69 67 66 70 81 79 79 72 76 77 77 73 73 74 75 76 78 81 82 82 83 82 81 80 82 82 82 81 83 83 83 85 86 87 87 84 84 84 85 86 86 85 87 88 88 87 87 86 87
64 65 69 70 78 79 76 75 73 75 76 74 73 75 75 76 77 81 82 83 84 83 82 81 82 81 80 82 81 83 84 85 86 86 86 85 85 85 84 86 85 86 84 83 86 83 85 85 79
69 67 70 75 79 78 76 76 73 74 75 73 73 74 75 76 81 82 83 84 84 83 81 80 80 80 80 80 81 82 83 84 85 86 85 85 85 85 83 86 84 82 84 84 83 84 82 84 80
67 64 68 75 77 76 75 75 77 74 74 75 74 75 76 78 79 80 82 83 83 82 81 80 79 79 80 82 82 84 83 85 87 86 85 86 85 85 84 83 84 82 85 82 83 83 84 84 84
65 64 65 68 75 77 74 72 74 75 76 77 77 78 79 78 78 79 80 82 83 82 80 80 80 80 80 81 82 81 82 83 84 84 85 86 85 86 84 83 84 83 82 82 83 84 83 84 84
61 69 68 67 66 64 75 63 71 76 71 74 76 77 79 79 80 81 81 81 83 83 82 81 80 80 81 80 81 80 82 82 85 85 86 86 85 86 86 84 84 83 83 82 84 85 85 84 83
64 71 68 68 64 65 68 64 72 76 71 73 76 78 79 81 81 81 82 83 85 85 83 82 80 80 81 80 81 82 82 85 85 85 83 84 84 85 86 85 84 83 84 82 84 83 82 84 85
72 68 68 68 66 55 64 65 68 72 73 76 79 80 80 81 82 82 83 84 84 86 84 83 80 79 80 80 80 80 81 82 82 83 84 85 87 86 84 85 84 84 84 83 84 84 83 83 83
68 64 54 51 53 53 69 63 67 78 82 82 80 80 82 82 82 82 81 82 82 83 83 83 80 78 80 80 81 81 81 81 80 81 84 84 86 86 84 84 83 85 84 85 84 83 83 82 83
64 64 57 46 51 57 67 59 67 80 85 85 87 86 85 83 84 83 83 83 82 83 83 82 80 79 79 80 80 81 81 84 84 84 86 85 87 87 87 85 86 85 85 85 84 85 86 84 84
64 59 70 60 59 57 65 67 75 80 82 86 86 85 83 83 84 84 84 84 84 84 83 82 81 80 80 81 81 80 81 81 83 83 83 86 84 87 86 86 85 86 85 85 84 86 84 84 84
67 72 58 60 48 48 59 62 65 73 77 82 84 84 85 85 85 86 85 85 86 86 86 84 83 81 82 82 82 82 82 81 83 82 81 83 84 83 85 85 86 86 85 85 84 85 85 83 85
61 61 64 65 61 53 53 61 77 76 79 81 83 86 88 86 86 86 87 87 87 87 87 86 84 82 82 82 82 82 83 83 82 82 82 83 83 83 83 84 84 85 85 85 83 83 85 83 83
57 59 65 56 54 60 60 62 80 82 84 86 88 87 89 88 87 88 88 88 88 87 88 86 86 85 84 84 82 82 82 83 82 82 82 83 82 83 83 84 84 84 85 85 83 83 86 83 83

GFSSGP_sfc_temp_060.txt.gz
Temp
85 90 90 76 61 65 67 71 81 75 77 85 87 79 79 80 75 67 90 89 92 90 90 88 83 83 83 83 83 83 83 83 83 83 83 83 83 83 83 84 84 84 84 84 83 84 84 84 84
92 88 77 70 62 62 64 74 73 80 85 88 85 83 82 74 82 82 84 91 92 94 95 91 82 83 83 83 83 83 83 83 83 83 83 83 83 83 84 84 84 84 83 84 84 84 84 83 84
90 88 68 67 66 63 59 76 77 75 86 85 78 84 82 75 82 85 91 92 93 94 96 89 82 83 83 83 83 83 83 83 83 83 83 84 84 84 83 84 84 84 84 84 84 84 84 83 83
85 80 77 68 68 72 65 79 85 82 86 86 83 75 81 83 85 91 93 95 94 96 97 85 83 83 83 83 83 83 83 83 83 83 83 84 84 84 84 84 84 84 84 84 84 84 83 83 83
86 77 66 66 67 71 79 82 86 82 83 82 84 74 68 81 86 92 93 96 96 97 95 91 83 83 83 83 83 83 83 84 83 83 83 84 84 85 84 84 84 84 84 84 84 84 84 84 84
72 78 71 62 66 79 84 83 84 83 84 81 81 77 71 80 84 89 95 96 98 97 97 92 84 83 83 83 83 83 84 84 84 84 84 84 84 84 84 84 84 84 84 84 84 84 83 84 84
69 77 73 76 76 78 82 86 84 84 81 78 85 77 74 79 84 91 95 97 98 98 96 94 93 87 83 83 83 83 84 84 84 84 84 84 85 85 85 85 85 85 85 85 85 83 83 84 83
78 82 73 77 73 74 84 85 89 85 82 90 88 75 70 81 84 90 95 95 96 96 96 93 94 94 92 91 83 83 83 84 84 84 84 85 85 85 85 84 85 85 85 85 85 83 84 84 83
84 76 74 76 77 79 84 78 87 89 84 85 87 86 88 85 84 87 91 92 93 94 95 96 96 92 91 91 88 84 84 84 84 85 83 85 95 93 92 85 85 85 85 85 85 84 84 85 84
79 76 78 85 85 79 83 84 84 83 83 81 83 88 87 83 81 85 88 88 89 90 94 96 94 93 93 95 89 90 91 94 94 94 91 94 93 93 93 88 84 85 85 85 85 85 84 83 94
83 76 81 85 86 88 81 85 89 85 80 84 81 83 83 81 85 87 88 90 90 92 94 95 92 91 92 92 93 94 95 94 92 90 91 91 93 92 95 92 93 93 88 95 92 91 93 93 94
79 84 84 86 88 86 85 90 86 87 87 91 88 86 83 83 86 88 89 90 91 90 91 93 92 89 92 93 94 95 94 94 94 92 89 89 92 91 93 94 93 91 97 93 96 96 93 94 94
81 84 85 87 88 88 88 86 85 86 89 91 88 85 84 86 88 90 92 92 92 90 91 92 90 88 89 89 93 94 93 95 95 92 90 94 94 91 93 91 94 95 95 95 94 94 94 92 94
85 86 86 87 88 89 86 87 87 86 89 87 85 84 86 87 88 89 90 90 90 90 90 92 90 88 89 89 88 90 93 94 94 94 92 89 90 91 92 91 93 94 97 96 95 93 94 94 95
87 80 85 86 87 85 89 83 83 87 87 84 84 85 86 87 88 87 90 89 90 91 91 90 90 90 88 88 88 90 93 95 94 94 90 89 90 88 91 92 93 94 93 91 92 93 93 95 96
81 82 76 87 87 86 87 78 87 88 86 83 83 84 85 86 88 89 90 91 91 90 88 90 93 91 88 88 88 92 93 94 95 94 93 90 89 88 87 89 94 93 93 95 94 81 94 95 95
80 75 76 80 89 87 85 81 86 89 88 83 83 84 84 85 87 89 91 91 91 89 88 88 90 90 88 88 89 90 90 92 94 95 95 90 90 90 89 92 93 87 92 94 94 94 94 92 93
74 75 81 78 84 86 84 83 85 87 88 84 83 84 84 85 86 89 90 91 92 90 89 88 90 88 87 88 87 91 92 92 94 94 95 91 92 90 90 93 88 90 92 93 95 90 94 91 92
77 80 78 83 86 84 83 84 83 85 86 84 83 84 84 85 88 90 90 91 91 90 88 87 86 86 87 87 88 89 90 91 92 94 92 90 91 90 89 94 88 87 91 92 90 90 88 83 78
76 74 75 83 86 81 84 83 88 85 85 86 84 85 85 86 87 88 89 91 91 89 88 86 86 85 85 88 89 91 91 93 94 94 91 92 91 90 91 90 91 88 90 88 88 88 90 92 90
73 73 75 77 83 80 82 80 84 87 87 87 88 88 88 87 87 86 87 89 90 88 87 86 85 85 85 88 89 88 90 90 90 91 92 92 92 91 90 89 90 86 89 90 87 88 88 89 90
70 79 77 75 74 70 83 70 80 86 83 85 87 87 89 88 89 89 88 88 90 90 90 87 86 85 86 86 87 85 87 88 92 93 95 94 92 92 91 90 89 88 91 89 89 91 91 89 88
72 81 77 75 73 74 76 72 79 87 82 84 87 88 90 90 90 90 89 90 92 91 90 89 86 85 86 85 86 87 86 92 94 94 90 90 90 91 93 90 89 87 91 89 88 86 87 91 93
80 75 75 74 73 63 72 74 75 80 84 88 89 91 90 92 91 91 92 92 91 92 91 90 86 84 85 85 84 85 86 88 91 89 90 92 94 93 90 91 89 89 88 88 89 88 87 89 90
75 71 61 59 61 61 76 72 76 87 91 92 92 91 92 93 92 91 90 90 90 90 90 89 86 83 85 85 85 85 85 86 87 87 90 91 93 94 91 89 88 90 88 89 88 86 87 87 88
71 72 64 53 60 65 75 67 75 88 92 96 96 96 95 94 95 93 91 91 90 90 89 89 87 84 85 85 85 85 86 89 90 89 92 92 94 94 93 90 91 90 91 90 89 91 91 90 88
72 66 77 70 73 69 74 76 85 89 89 91 92 95 95 95 95 94 93 92 91 90 90 89 87 85 86 87 86 85 86 86 90 90 89 93 92 95 93 92 90 91 91 90 88 91 89 89 88
72 79 65 68 56 55 67 70 72 78 83 88 90 92 95 97 96 96 94 93 92 93 92 90 89 86 87 88 88 88 87 87 88 89 88 89 92 90 92 90 90 90 90 90 88 91 90 88 91
68 67 69 72 69 60 60 69 85 83 85 86 90 94 97 96 96 96 96 96 95 94 93 91 90 88 88 89 89 89 89 89 88 88 88 88 89 90 88 89 89 90 90 90 88 88 90 88 88
68 67 70 62 60 67 68 71 89 88 90 91 92 95 98 99 99 98 98 97 95 94 94 93 92 91 90 91 89 88 89 89 89 87 88 88 87 89 88 89 88 89 90 90 88 88 91 88 88

GFSSGP_sfc_temp_063.txt.gz
Temp
85 92 94 76 65 70 65 68 81 80 80 87 91 85 78 82 73 66 90 89 91 90 91 88 82 83 83 83 83 83 83 83 83 83 83 83 83 83 84 84 84 84 84 84 84 84 84 84 84
95 94 86 75 66 64 62 80 76 81 89 91 87 88 82 78 87 82 83 89 92 95 94 92 82 83 83 83 83 83 83 83 83 83 83 83 83 84 84 84 84 83 84 84 84 84 83 84 83
86 92 74 70 72 58 65 77 84 87 91 89 85 86 84 78 86 87 93 93 94 97 97 89 83 83 83 83 83 83 83 83 83 83 83 84 83 84 83 84 84 84 84 83 84 84 84 84 84
87 82 78 68 67 79 68 78 85 79 88 89 87 80 85 91 89 91 95 97 99 100 97 85 83 83 83 83 84 84 84 83 83 83 84 84 84 84 84 84 84 84 84 84 84 84 84 84 84
86 78 70 71 74 78 82 82 85 84 86 87 88 77 78 85 91 93 93 97 100 100 95 91 83 83 83 83 83 84 84 83 83 83 84 84 85 85 84 84 84 84 85 83 84 84 84 84 84
70 80 67 68 72 84 83 90 87 87 86 87 84 79 77 89 88 91 94 98 103 99 97 91 84 83 84 83 83 83 84 84 84 84 84 84 84 84 84 84 85 85 85 85 84 84 84 84 84
69 75 66 65 73 79 83 91 85 80 85 84 89 77 79 86 88 93 95 101 101 101 96 93 92 86 84 83 83 84 84 84 84 85 84 85 85 85 85 85 85 85 85 85 84 84 84 84 83
83 80 75 74 78 71 91 89 90 82 85 94 92 78 72 84 90 93 97 101 101 100 98 94 94 93 91 89 83 84 83 84 84 85 85 85 85 85 85 84 85 85 85 85 85 85 84 84 83
84 72 72 78 80 77 91 87 93 95 89 91 92 87 88 88 91 91 95 97 98 98 99 98 98 95 91 90 87 84 84 84 84 85 85 85 92 93 91 85 85 86 85 85 85 85 85 84 83
77 71 71 72 89 84 88 89 89 88 88 86 87 89 88 90 89 87 93 93 95 95 98 100 97 96 95 97 89 91 91 94 94 94 91 82 87 88 93 88 85 85 85 85 85 84 78 86 91
88 74 87 87 88 92 91 86 94 83 85 89 85 81 82 87 89 90 94 95 95 96 99 99 96 94 96 92 95 95 93 97 95 92 91 93 93 92 94 91 91 91 87 93 90 81 85 87 84
84 91 87 84 88 89 88 92 89 86 83 96 94 88 85 86 89 92 94 95 95 95 97 98 96 93 96 96 91 90 98 97 96 94 92 90 82 83 84 85 94 91 79 89 94 83 94 86 77
87 85 89 90 91 92 89 91 87 88 95 97 94 89 83 87 88 94 96 96 95 94 96 96 94 92 93 92 90 96 97 98 97 93 92 81 83 85 85 93 77 90 89 86 92 94 93 93 92
92 91 88 89 91 91 88 89 92 90 96 92 91 88 86 90 90 93 94 94 94 94 94 95 92 91 92 88 90 94 97 91 95 86 93 92 82 86 92 88 87 85 74 81 88 90 89 90 82
92 85 89 91 87 86 94 78 88 92 94 89 89 89 86 88 93 93 95 94 95 95 94 93 92 92 91 87 92 93 96 93 88 87 91 92 89 92 88 87 76 93 92 90 92 92 96 95 86
85 87 80 91 91 91 91 76 90 94 92 88 89 89 87 89 94 95 96 96 96 95 92 92 96 93 91 91 91 94 96 94 86 92 94 92 92 91 87 92 88 92 81 81 78 94 87 96 94
84 77 80 85 95 89 89 74 70 95 93 89 88 89 89 87 91 94 96 96 96 94 91 91 93 91 90 90 92 92 93 87 87 88 88 91 92 90 87 92 85 86 90 87 89 78 85 91 94
77 79 84 82 87 89 86 77 66 91 93 89 88 89 89 89 91 93 95 96 96 94 92 91 92 91 89 90 90 93 93 92 88 85 85 91 92 92 91 83 91 92 91 78 84 91 88 90 81
86 85 83 89 85 85 82 80 65 91 94 89 88 88 89 90 93 94 95 96 95 93 91 89 89 89 89 89 89 91 92 93 91 92 94 92 93 92 90 81 90 90 91 78 91 91 89 91 82
83 80 82 89 92 83 82 80 83 91 92 91 89 89 89 91 91 91 93 94 94 91 90 89 88 88 87 90 90 92 93 95 96 96 93 93 93 92 92 88 87 86 89 89 90 86 79 78 88
80 79 80 82 89 90 83 76 82 78 92 93 93 93 93 91 91 91 91 93 94 91 89 88 87 87 87 89 91 91 93 94 93 92 93 93 93 93 92 91 81 90 90 87 88 89 87 79 91
75 84 82 82 81 75 87 69 64 74 86 90 92 92 93 92 93 92 92 92 93 92 92 90 88 87 87 88 88 86 89 89 93 94 95 94 93 93 93 91 91 88 92 82 90 92 90 84 87
76 85 83 81 79 79 80 74 75 82 77 88 91 92 95 94 94 92 92 92 94 94 92 91 88 87 87 86 88 89 87 92 94 96 91 93 91 93 94 92 89 89 91 90 89 89 87 92 90
84 81 80 81 78 67 76 78 78 78 80 90 93 94 95 96 96 95 95 94 94 95 94 92 87 85 87 86 85 87 86 89 92 92 92 93 94 93 92 93 89 89 91 89 90 89 89 87 91
80 76 64 62 64 64 79 76 80 89 88 89 94 95 96 97 96 95 94 93 93 93 93 93 88 84 86 87 86 86 87 87 89 90 92 91 95 96 91 91 89 88 89 91 90 87 88 88 89
76 76 67 56 62 68 78 71 79 93 96 91 89 95 99 98 99 97 95 94 93 94 93 92 89 85 86 87 85 85 87 91 91 91 94 94 96 97 94 91 92 91 91 90 89 89 90 90 89
75 70 81 73 77 72 78 81 89 93 93 92 78 94 93 98 99 98 97 96 95 94 93 91 90 87 87 88 87 86 86 87 90 90 91 94 93 98 96 94 91 92 92 92 90 91 88 86 88
77 83 69 71 58 58 72 75 77 83 88 92 94 96 96 98 100 100 99 97 97 96 95 94 93 89 88 89 89 89 87 87 89 90 90 90 93 93 94 93 92 91 92 91 90 91 91 89 91
72 70 73 76 72 62 63 73 91 87 89 90 94 96 99 100 101 101 101 100 99 98 96 95 93 91 89 90 89 89 89 89 89 90 91 90 92 92 91 91 91 91 90 91 89 89 91 88 87
76 73 74 65 62 71 70 74 94 94 94 94 96 97 100 101 102 103 103 101 100 98 97 96 95 93 92 91 89 89 90 90 90 89 90 91 89 91 91 90 90 90 91 91 89 88 91 89 89

GFSSGP_sfc_temp_066.txt.gz
Temp
83 87 88 84 64 69 66 70 82 80 80 87 88 81 77 73 76 65 83 88 88 87 86 85 82 83 83 83 83 83 83 83 83 83 83 83 83 83 84 83 84 84 84 84 84 84 84 84 84
92 90 83 71 62 61 66 72 75 82 87 90 86 85 81 74 82 81 83 88 90 89 88 86 81 82 83 83 83 83 84 83 83 83 83 83 83 84 84 84 83 84 84 84 84 84 84 83 83
88 88 71 67 66 57 63 65 69 85 90 88 80 82 83 76 83 84 89 90 92 91 91 85 83 83 83 83 83 83 83 83 83 83 83 83 83 84 84 84 84 83 84 84 84 84 84 84 83
86 81 76 65 67 66 68 68 81 85 88 87 84 78 83 88 86 89 92 94 95 93 90 84 83 83 83 83 83 83 83 83 83 84 84 84 84 84 84 84 84 84 84 83 84 84 84 84 83
83 75 65 69 71 78 80 84 86 83 85 85 85 75 74 84 91 92 92 96 94 92 88 87 83 83 83 83 83 83 83 83 83 83 84 84 84 84 84 84 84 84 83 84 84 84 84 84 83
68 76 65 67 76 83 86 87 85 83 84 82 81 78 77 87 88 90 96 95 95 91 90 86 83 83 83 84 84 84 83 84 83 84 84 84 84 84 84 84 85 85 85 84 84 84 84 84 83
71 69 62 65 70 73 82 92 85 81 81 81 84 75 80 83 89 93 97 97 96 94 89 87 86 85 83 83 84 84 84 84 84 84 84 84 84 85 85 85 85 85 85 85 85 84 84 83 83
79 72 69 64 63 61 69 85 90 83 77 90 88 74 74 84 91 94 97 96 96 93 91 89 88 88 85 85 83 84 84 84 84 84 84 84 85 85 85 84 85 85 85 85 85 84 84 83 83
89 71 68 72 63 67 73 86 91 89 89 90 88 85 87 89 92 93 91 94 93 92 93 92 91 87 84 85 85 84 84 84 84 85 84 83 84 87 87 85 85 85 85 85 85 84 84 84 83
81 70 73 81 80 73 81 86 90 87 85 85 85 88 89 89 89 89 89 89 92 91 93 95 90 86 87 91 84 84 86 87 87 87 83 81 82 87 88 85 85 85 85 85 82 81 80 84 83
86 76 71 72 81 80 83 87 94 86 81 82 78 83 85 87 87 90 92 92 93 94 95 94 89 88 90 85 87 88 88 88 86 88 83 81 84 85 87 84 85 84 85 85 82 78 75 80 81
80 84 87 80 90 85 72 80 78 78 68 87 87 86 86 85 87 91 92 93 94 93 92 93 92 89 87 89 90 87 90 89 89 87 83 81 78 76 81 79 85 77 79 82 74 80 74 76 78
86 87 89 84 91 80 83 73 68 76 79 88 89 86 85 86 88 92 94 95 94 93 94 91 90 89 84 82 83 85 84 92 89 88 80 78 80 77 85 77 78 75 83 83 80 83 80 74 84
92 91 90 90 89 85 81 74 75 78 81 88 85 83 85 87 88 91 93 92 92 92 92 91 90 90 89 84 86 84 88 85 87 87 82 77 82 83 85 80 80 79 81 81 82 85 83 82 81
92 86 90 91 89 87 89 76 78 83 90 89 84 84 83 86 90 91 93 92 92 93 91 89 89 90 88 83 86 90 89 91 82 88 89 81 82 84 79 77 78 78 82 84 82 85 83 80 84
85 86 77 89 91 90 88 74 78 84 87 87 85 83 83 85 91 93 95 94 93 92 88 89 93 90 88 85 89 88 87 87 88 84 88 89 81 86 78 78 79 82 80 82 80 82 82 81 82
82 73 77 82 94 90 85 71 72 71 78 86 87 83 83 84 88 93 95 94 93 91 88 87 89 88 86 83 88 86 86 86 83 87 87 88 88 89 81 75 78 80 82 84 82 79 83 82 81
73 76 80 80 89 90 85 69 71 70 75 87 87 85 83 85 87 93 94 95 93 90 88 87 89 86 85 86 86 83 87 84 84 85 87 88 84 87 77 78 83 83 77 78 82 79 81 80 79
82 81 81 86 93 88 83 70 67 74 74 74 85 86 84 85 91 94 95 95 93 90 87 86 86 83 84 84 84 83 84 85 81 82 83 87 85 85 78 78 84 83 77 78 83 83 84 79 81
81 78 80 88 93 88 77 63 66 69 74 70 87 88 87 87 89 91 93 94 93 88 86 85 84 83 83 85 83 85 82 84 83 84 85 88 89 87 84 80 82 81 83 81 79 76 77 76 79
80 77 79 81 89 90 86 62 64 71 71 69 86 91 91 89 89 89 90 91 92 87 85 84 83 82 83 84 84 85 87 84 86 86 87 89 89 89 85 82 82 83 76 80 83 82 74 76 79
74 85 83 81 79 73 88 67 58 69 64 63 66 90 90 91 91 90 90 90 91 88 88 85 84 83 83 84 83 83 83 80 84 81 87 87 89 88 89 85 85 84 80 80 83 85 79 76 77
77 86 83 81 77 77 79 75 74 71 64 63 66 86 92 93 92 90 90 91 92 90 88 86 83 83 82 82 83 84 82 86 85 87 83 84 86 89 89 87 85 83 81 81 81 83 83 82 79
86 81 80 80 77 66 74 74 76 72 68 64 64 78 92 93 94 92 92 92 92 92 89 87 82 81 82 81 81 82 81 83 85 85 84 86 87 87 88 86 84 84 84 83 83 85 84 82 81
81 74 62 60 62 62 77 73 77 87 79 73 73 78 94 94 94 93 90 90 90 89 88 87 82 80 82 81 81 82 82 82 83 85 84 84 86 87 85 85 82 84 83 84 84 83 83 84 81
76 74 63 53 58 64 77 68 77 91 90 83 79 75 78 95 96 94 92 91 89 90 88 87 82 80 81 82 80 81 83 85 85 86 87 87 87 88 85 86 85 85 85 84 83 83 84 83 83
73 70 79 69 73 67 73 79 86 91 92 90 82 77 73 82 94 94 94 92 90 90 88 87 83 82 82 83 82 80 82 83 84 84 86 87 86 91 86 86 86 86 84 84 82 83 80 81 82
77 81 68 69 55 55 67 71 76 81 87 92 86 76 76 75 74 81 95 94 93 93 92 90 87 83 83 83 84 83 82 83 84 83 84 85 87 87 85 86 85 86 86 85 82 83 82 81 82
72 68 71 72 70 60 58 68 87 87 87 90 87 82 72 73 74 72 75 97 95 95 94 92 89 85 84 85 84 84 83 84 83 84 84 84 85 87 87 88 86 85 85 86 84 83 83 82 81
76 70 72 63 60 67 68 69 91 93 94 94 95 85 84 80 72 71 72 87 96 94 94 93 91 90 87 85 84 84 84 83 84 82 85 85 85 86 87 86 86 85 85 85 84 83 85 83 82

GFSSGP_sfc_temp_069.txt.gz
Temp
80 81 80 75 60 59 59 64 77 75 76 83 83 78 73 73 72 60 75 80 81 79 80 81 82 82 83 83 83 83 83 83 83 83 83 83 83 83 83 84 83 84 84 84 84 84 84 84 84
82 83 78 68 59 56 59 64 68 76 81 85 82 79 76 69 77 72 75 82 83 81 80 80 81 82 83 83 83 83 83 83 83 83 83 83 84 84 84 84 83 84 84 83 84 84 84 84 83
84 86 68 63 60 55 58 64 70 81 84 81 79 81 77 70 78 77 82 84 84 81 81 81 82 82 83 83 83 83 83 83 83 83 83 83 84 84 84 84 83 84 84 84 83 84 83 83 83
79 75 70 60 59 63 66 67 73 79 82 82 79 71 79 84 80 82 85 86 84 81 81 82 83 83 83 83 83 83 83 83 83 83 84 84 84 84 84 84 84 84 84 84 84 84 84 84 83
80 71 61 59 62 69 74 74 75 79 78 76 77 70 73 80 85 86 86 88 81 79 80 81 82 83 83 83 83 83 83 83 83 83 84 84 84 84 84 84 84 84 84 84 84 84 84 84 84
68 68 58 58 63 75 75 77 79 78 79 77 73 72 73 83 82 84 88 84 82 80 80 81 83 83 83 83 83 83 83 83 83 84 84 84 84 84 84 84 84 84 84 84 84 84 83 83 83
67 65 61 63 66 67 69 85 78 77 78 75 79 69 75 79 84 87 88 85 84 82 80 79 80 82 84 83 83 83 83 83 83 84 84 84 84 84 84 84 85 85 85 84 84 84 83 83 83
74 67 64 65 59 61 67 73 85 80 79 86 83 68 69 80 86 88 88 86 82 82 80 79 78 78 78 79 84 83 84 84 84 84 84 83 85 85 84 83 84 85 85 85 84 84 83 83 83
83 63 60 64 61 65 72 72 87 85 79 83 83 79 81 85 86 86 86 82 81 82 81 80 79 78 77 78 82 83 84 84 84 83 84 82 77 79 82 83 84 85 85 85 84 84 83 83 83
74 61 67 75 72 68 74 72 82 79 80 79 79 82 84 84 83 84 82 79 80 80 81 82 80 79 80 85 78 77 80 78 77 77 77 76 77 76 81 83 85 85 85 84 83 82 81 80 77
80 68 77 78 74 71 76 73 70 80 73 76 73 77 81 82 82 85 82 82 81 83 84 83 82 80 80 80 78 77 77 77 77 79 77 77 77 77 76 75 78 77 80 78 79 74 75 77 76
73 82 83 79 81 79 71 71 68 70 73 82 82 82 82 81 81 85 85 83 83 84 83 83 82 82 80 80 79 80 80 78 77 78 77 74 72 73 77 74 74 71 73 75 75 73 75 75 76
79 83 87 88 82 79 74 72 67 68 78 84 82 82 80 82 82 87 87 88 86 84 83 83 80 82 82 78 78 77 79 77 78 76 74 73 74 75 76 73 72 73 73 75 73 73 75 74 76
84 86 87 87 81 77 72 69 73 76 79 81 81 79 81 82 82 88 85 86 83 86 84 82 80 80 79 78 78 79 79 82 81 76 76 76 74 77 74 75 75 72 73 78 74 75 76 76 79
83 77 82 84 79 79 76 65 66 70 76 76 79 80 81 82 84 86 85 85 82 86 84 81 80 83 79 81 81 79 80 84 80 79 75 78 76 76 76 73 77 73 76 78 77 77 79 78 78
75 72 64 80 83 84 78 62 68 70 73 76 79 81 81 82 83 86 86 86 82 84 82 83 88 81 79 80 79 80 78 77 81 80 78 79 77 77 75 74 76 77 76 78 76 78 76 79 75
67 59 66 73 85 84 77 61 66 69 69 71 77 79 81 82 85 85 88 87 84 83 81 80 80 79 79 79 78 79 79 79 79 80 80 80 80 78 75 73 73 76 75 77 79 76 79 77 76
58 61 66 69 79 84 75 63 67 70 69 69 75 78 79 80 83 87 89 88 84 83 81 79 81 78 78 77 78 78 80 78 80 79 80 79 79 77 75 74 75 77 75 73 75 78 75 74 80
71 69 68 75 82 77 75 64 66 69 72 70 69 76 77 79 83 86 90 87 84 82 81 78 77 79 77 75 75 75 75 76 76 79 80 80 79 76 73 74 75 74 76 73 77 75 75 78 78
71 68 67 75 82 73 67 63 67 68 70 70 64 75 78 80 83 86 88 86 83 81 81 77 79 78 77 76 76 77 77 77 79 79 77 80 80 77 77 75 75 75 75 74 73 74 73 71 73
69 64 67 68 77 74 65 59 62 71 73 71 69 70 79 80 83 86 86 85 82 80 79 78 78 78 78 78 75 76 77 76 76 76 78 78 81 80 78 76 76 75 74 74 75 76 75 73 73
58 74 76 75 67 56 71 55 58 63 66 69 69 68 71 80 84 86 85 84 82 81 82 79 78 78 77 79 76 74 77 77 76 80 78 79 81 81 80 78 77 76 74 74 76 78 74 72 71
68 76 73 72 64 57 67 56 56 66 61 66 70 73 72 75 84 84 85 85 84 83 82 80 77 79 80 78 79 75 74 77 78 80 81 77 78 80 82 79 78 76 74 74 76 76 75 76 72
79 72 69 65 59 50 59 58 51 60 65 65 73 75 73 77 82 86 87 86 84 83 83 81 77 78 78 77 75 75 75 75 79 79 76 79 78 79 80 80 78 76 76 76 76 77 77 75 74
71 55 46 44 47 48 60 57 61 67 72 69 71 72 77 76 82 86 84 85 84 82 81 80 79 76 78 77 77 75 75 75 75 75 79 81 77 77 78 78 77 77 77 77 77 76 76 76 75
62 58 48 40 43 49 61 52 62 74 76 75 74 75 76 70 72 80 85 86 85 82 82 81 79 78 78 78 78 75 75 77 75 77 77 83 82 81 79 78 78 78 78 78 76 76 76 76 75
62 55 62 53 59 51 56 63 73 78 75 73 73 75 71 72 73 72 78 86 85 84 82 81 79 79 78 78 78 77 75 77 76 77 78 79 79 81 80 80 79 79 78 78 76 75 75 76 75
66 66 52 52 42 40 52 56 58 68 72 73 74 72 69 70 69 72 71 75 83 87 84 83 80 79 79 80 79 79 78 77 75 77 77 78 79 80 78 81 81 79 78 77 76 75 76 75 75
60 56 54 53 50 44 45 53 69 72 73 73 76 71 70 70 70 70 70 70 71 75 84 84 81 79 79 80 80 80 79 79 75 77 77 77 79 78 80 79 78 78 78 78 76 76 76 75 75
64 57 54 45 47 50 49 54 78 77 79 74 78 76 74 75 73 70 71 72 70 73 86 86 84 80 80 80 81 80 80 79 80 75 75 77 77 77 79 81 81 79 78 78 77 77 79 76 76

GFSSGP_sfc_temp_075.txt.gz
Temp
79 79 76 70 58 59 55 59 68 69 70 75 77 75 70 69 66 56 70 74 74 75 77 80 82 83 82 82 82 82 82 82 82 82 82 82 83 82 82 82 83 83 83 83 83 83 84 84 84
77 78 73 67 59 54 56 64 64 70 76 77 77 75 70 63 70 68 69 75 77 76 75 78 81 82 82 82 82 82 83 83 82 83 83 82 83 83 83 83 83 83 83 83 83 83 84 83 83
78 80 66 62 59 55 56 64 69 71 80 78 70 71 70 64 70 70 73 76 77 75 75 78 82 82 83 82 82 82 83 82 82 83 83 83 83 82 83 83 83 83 84 82 83 84 84 84 83
76 70 68 59 57 65 64 68 74 73 74 76 70 65 72 76 73 74 77 78 75 75 77 81 82 83 83 83 83 83 83 83 83 82 83 83 83 83 83 83 83 83 83 83 84 83 83 84 84
75 69 60 58 61 65 72 72 70 68 71 73 75 66 66 73 77 77 77 77 75 73 77 80 82 83 83 83 83 83 83 83 83 83 83 83 83 83 83 84 83 84 84 84 83 83 84 83 84
66 68 58 57 61 68 73 74 70 70 72 72 69 68 66 75 75 76 78 76 77 75 77 78 82 83 83 83 83 83 83 82 83 83 83 83 84 84 83 83 83 84 84 84 83 83 83 82 84
66 63 60 60 64 65 67 74 69 71 71 71 75 64 67 71 76 77 76 77 77 77 76 76 78 81 83 82 83 83 83 83 83 83 83 82 84 84 84 84 84 84 84 84 83 83 83 83 83
71 65 62 58 60 62 68 71 74 74 71 80 77 63 63 72 77 77 76 75 75 75 75 74 75 76 76 78 83 83 83 83 83 83 83 84 84 84 83 83 84 84 84 84 83 83 83 83 83
78 62 59 63 64 66 70 68 75 77 74 78 78 74 74 77 76 73 72 72 74 74 73 73 73 74 74 76 83 82 83 83 84 82 83 80 75 77 77 82 84 84 84 84 83 83 83 84 84
66 59 65 73 72 67 70 67 67 67 72 73 72 76 78 75 73 71 70 70 71 72 72 72 73 73 74 81 76 75 78 75 75 75 74 73 73 74 78 82 84 84 84 83 83 83 83 79 75
68 62 72 74 75 70 66 66 70 68 67 72 69 72 74 73 72 71 71 71 71 72 74 72 73 73 74 75 73 73 73 74 74 74 73 73 73 73 73 73 74 74 78 74 76 74 73 75 74
65 74 73 74 77 75 70 68 66 68 69 74 76 76 74 73 72 72 72 72 71 72 73 74 73 73 73 73 73 73 73 73 72 73 73 71 70 71 72 72 72 72 72 72 71 72 71 72 74
69 72 76 79 79 73 70 69 68 67 71 74 79 78 75 74 73 75 75 75 73 72 73 74 74 72 72 72 72 72 72 73 73 73 72 71 70 70 72 71 71 71 72 72 71 71 72 72 74
75 74 75 77 72 71 69 69 71 72 72 72 77 76 77 76 75 75 75 74 74 74 74 74 73 73 72 72 72 72 73 73 72 72 72 72 71 71 71 71 71 70 71 71 71 72 72 72 73
74 68 72 71 71 70 72 64 67 72 75 72 75 77 77 78 77 76 77 75 75 76 76 74 73 74 72 73 73 73 74 73 73 73 73 74 73 72 71 70 70 70 71 72 71 71 73 72 74
65 62 58 68 71 70 70 58 66 71 70 71 74 77 76 77 78 79 79 78 78 78 76 75 80 75 73 73 74 73 74 74 74 73 73 75 74 74 71 71 71 72 70 72 71 70 70 71 72
58 52 56 63 71 69 66 59 66 71 69 70 73 75 76 76 77 79 81 79 79 78 76 75 76 75 73 75 72 73 74 74 74 73 73 75 76 74 72 70 71 72 71 72 71 71 72 70 71
51 52 54 58 68 68 63 61 65 68 70 70 73 75 76 75 76 81 82 81 80 79 77 77 76 74 74 73 73 72 73 73 73 73 74 74 74 75 72 71 71 72 70 71 71 72 70 71 71
60 57 57 63 72 65 62 61 64 66 66 68 70 72 75 76 78 82 82 82 80 78 76 77 75 72 72 71 71 71 71 71 72 73 74 75 74 74 72 72 73 71 71 70 74 70 71 70 70
60 57 55 64 69 63 59 59 63 67 66 68 70 71 75 76 77 78 80 81 79 77 77 76 76 73 73 73 72 73 72 72 71 72 75 74 75 74 73 73 72 71 71 71 72 71 69 68 69
54 54 55 59 64 63 61 58 61 66 67 68 70 73 75 77 77 77 78 78 79 77 76 76 76 74 74 73 72 71 72 72 72 72 73 75 76 75 74 73 73 71 70 71 71 71 70 69 69
48 62 64 63 57 51 60 48 58 61 62 66 67 70 73 78 80 78 77 77 78 78 78 78 76 75 73 72 72 71 71 69 71 72 72 74 76 74 74 74 73 72 71 71 72 73 70 69 68
59 66 63 62 54 50 54 50 52 60 58 62 66 71 73 76 80 78 77 78 79 79 78 77 76 75 74 73 75 72 70 72 72 72 73 72 73 75 76 75 74 72 71 71 72 72 71 70 69
70 61 57 52 49 43 50 51 50 52 60 63 66 70 73 73 75 80 81 79 79 80 78 77 75 74 74 74 72 72 72 71 70 70 71 71 72 73 75 75 74 73 72 72 72 72 72 70 70
59 51 42 41 41 42 46 50 55 61 65 67 67 69 72 74 74 79 77 77 77 77 77 76 75 74 74 74 73 72 73 72 72 71 72 72 71 72 73 73 73 72 72 72 72 72 72 72 71
53 52 43 37 37 43 47 46 57 65 69 72 72 72 73 74 74 77 79 79 78 78 77 76 75 75 75 75 74 72 72 73 72 72 72 74 75 76 75 74 74 74 73 73 72 72 72 72 71
52 46 49 42 38 43 45 53 61 66 67 67 67 70 70 72 75 76 77 78 78 78 77 76 75 76 76 76 76 73 72 72 72 72 72 74 75 78 75 75 75 75 74 73 73 72 72 72 72
53 55 46 43 36 35 43 46 48 57 60 64 65 66 70 72 73 74 77 77 78 79 79 78 77 76 76 77 77 76 74 72 71 72 72 72 74 75 75 74 74 73 74 74 72 72 72 72 71
47 44 41 41 40 37 37 41 60 57 60 61 63 65 68 72 72 73 76 74 76 79 79 79 78 77 76 77 77 77 76 71 70 71 72 73 73 74 74 74 74 73 74 73 72 72 72 72 71
54 44 39 35 35 37 39 41 59 61 63 64 64 65 68 71 72 73 75 73 71 77 79 78 79 78 77 78 77 77 77 75 71 71 72 73 73 73 75 75 74 74 75 74 72 72 74 72 71

GFSSGP_sfc_temp_078.txt.gz
Temp
78 77 75 69 59 59 56 59 69 67 67 73 75 71 67 67 65 55 67 72 73 73 76 80 82 82 82 82 82 82 82 82 82 82 82 82 82 82 82 83 83 83 83 83 84 84 84 83 84
76 77 72 66 58 54 56 64 63 68 73 75 73 73 68 62 69 65 67 73 75 75 75 77 81 82 82 82 82 82 83 82 82 82 82 83 83 83 83 83 83 83 83 84 84 84 83 84 84
77 78 66 62 59 54 55 64 66 71 76 74 69 70 68 65 69 67 71 75 75 74 75 77 82 82 82 82 82 83 83 82 83 83 82 82 82 83 83 83 83 83 83 83 84 84 84 83 84
73 68 66 59 56 64 63 69 71 70 74 72 71 64 69 74 71 71 75 76 74 74 76 81 82 83 83 82 82 82 82 82 82 83 82 83 83 83 83 83 83 83 83 83 84 84 84 84 83
72 67 60 59 61 66 71 70 72 69 69 69 71 64 64 71 74 75 75 76 73 73 76 80 82 83 83 83 83 83 83 83 81 83 83 83 83 83 83 84 84 84 84 83 83 83 83 83 83
66 66 58 56 61 68 71 71 72 70 71 69 67 66 64 72 72 73 76 74 76 75 76 78 82 83 83 83 83 83 83 82 82 82 82 83 83 83 84 83 84 84 84 84 83 83 83 83 84
64 62 59 58 62 64 66 73 70 68 70 68 73 65 66 69 73 75 74 75 76 76 75 76 78 81 83 83 83 83 83 83 82 83 82 83 84 83 82 83 84 85 85 84 83 83 83 83 83
70 63 60 59 58 60 67 70 73 72 68 77 75 62 62 69 74 74 74 73 73 74 75 74 76 77 77 78 83 83 83 83 83 83 83 83 84 82 82 83 84 84 84 84 83 83 83 83 84
77 58 60 64 64 63 68 66 68 74 72 77 77 72 72 73 74 72 73 74 74 74 73 73 74 74 75 77 81 82 83 83 83 82 83 79 75 77 79 83 84 84 84 84 82 83 83 84 84
67 59 62 71 70 67 68 66 66 67 68 69 68 72 73 73 71 72 71 72 73 74 72 73 73 73 75 80 76 76 79 76 76 75 75 74 75 76 79 82 84 84 84 84 84 84 83 79 79
68 61 71 73 73 73 69 65 69 66 65 69 65 68 70 70 70 72 72 72 73 75 74 72 73 73 75 75 74 74 74 75 75 75 74 74 75 75 74 74 75 76 79 76 78 75 75 77 77
64 73 74 73 74 70 67 68 66 68 68 73 72 72 71 69 69 69 69 69 70 74 74 72 73 73 73 74 73 74 74 74 74 74 74 73 73 73 74 73 74 73 73 74 74 75 75 76 76
66 70 73 75 75 70 71 67 67 67 71 73 75 73 71 70 70 72 72 71 70 71 71 72 72 72 73 73 73 73 73 74 75 74 74 73 72 73 73 73 73 73 74 75 74 73 74 75 77
71 71 72 73 69 69 68 68 71 68 72 71 72 71 72 71 72 72 72 70 70 71 70 72 72 72 72 72 73 73 74 74 74 74 74 73 72 72 73 73 73 73 74 74 74 75 75 75 76
70 64 69 68 69 68 71 64 67 70 72 70 70 72 72 74 74 72 73 72 72 72 72 71 71 72 72 72 73 73 74 74 74 74 74 74 73 73 74 73 73 73 73 74 74 75 76 76 76
62 60 56 65 69 69 67 58 68 71 71 69 72 73 73 73 74 75 75 74 74 73 71 72 78 73 72 72 73 73 73 74 74 74 74 75 75 74 73 73 73 74 73 74 74 74 74 72 75
57 51 55 60 69 67 63 58 67 71 71 69 72 73 73 73 74 76 77 76 75 74 72 72 74 72 72 72 72 73 74 72 74 74 74 75 75 75 72 74 73 75 74 75 75 74 75 74 75
51 52 53 56 64 65 60 59 65 68 69 68 71 73 73 73 73 77 77 77 76 75 74 74 75 72 72 73 72 72 73 73 74 74 74 75 74 75 74 74 74 74 75 73 74 75 73 74 74
59 57 55 60 67 61 58 58 63 66 66 67 69 71 72 73 76 77 78 78 77 75 73 72 72 71 72 71 70 71 71 72 73 74 75 75 75 75 73 73 73 74 75 74 75 74 74 74 73
58 55 54 64 65 61 56 56 62 63 64 67 68 70 73 74 73 76 78 78 77 75 74 72 73 71 73 73 72 73 72 73 73 74 75 76 76 75 75 74 74 73 74 74 75 74 72 72 73
52 52 54 60 62 60 58 57 61 64 66 67 69 71 73 75 73 75 76 77 77 75 74 73 73 72 73 73 72 71 72 73 72 73 74 76 76 76 75 74 73 73 73 74 74 74 74 73 73
43 61 62 60 54 49 57 46 53 61 63 66 66 68 70 74 76 75 76 76 76 76 77 75 74 73 73 72 72 71 71 71 73 73 73 75 77 75 75 75 75 74 73 74 75 75 74 73 73
57 63 61 59 52 48 52 49 51 57 55 60 65 69 72 75 77 75 76 76 77 77 77 76 74 73 73 73 73 72 71 72 73 73 73 74 75 75 76 76 75 74 73 74 75 74 73 74 73
66 59 53 49 47 42 47 50 51 52 57 60 66 69 73 74 77 77 77 77 77 78 77 76 73 73 73 73 71 71 71 71 72 72 73 73 74 75 75 75 75 75 73 74 75 76 75 74 73
58 49 39 39 40 41 45 49 49 59 63 63 65 68 71 76 76 74 75 75 76 75 75 75 73 72 72 72 72 72 72 72 72 72 73 72 73 74 75 76 75 75 73 75 75 74 75 75 75
51 49 41 35 35 42 47 45 51 62 65 67 67 68 71 74 74 76 76 76 75 76 75 75 73 73 73 73 72 71 72 74 73 73 73 74 74 76 76 76 76 75 76 76 74 75 76 75 75
50 45 47 41 36 42 44 49 57 63 63 65 65 66 67 73 74 73 75 77 76 76 75 75 74 74 74 74 73 71 71 71 73 73 74 74 75 78 77 77 76 75 74 75 75 75 73 75 75
52 51 45 42 37 35 41 42 44 52 55 61 62 63 64 67 71 73 75 76 77 78 77 76 76 75 75 75 75 74 72 72 73 73 73 74 75 76 76 76 77 75 75 74 74 75 75 75 75
46 42 41 40 38 37 34 39 53 51 54 57 60 62 64 66 70 72 74 73 77 78 78 77 76 75 75 76 76 75 73 72 71 73 74 75 75 75 75 76 76 76 74 74 74 74 75 75 75
46 41 37 39 37 34 37 40 55 55 56 58 60 63 64 67 69 71 72 70 71 74 77 77 77 76 77 76 75 75 75 73 72 72 73 74 75 75 75 75 76 76 76 75 75 74 77 75 75

GFSSGP_sfc_temp_081.txt.gz
Temp
82 82 82 77 63 61 59 63 72 69 70 78 79 76 74 76 70 66 79 82 84 84 85 85 82 83 83 82 82 82 82 82 82 82 83 83 83 83 83 83 83 83 84 84 84 84 84 84 84
83 80 77 67 58 55 58 68 66 72 76 80 78 77 74 69 74 71 76 83 85 86 88 87 81 82 83 82 82 83 83 82 83 83 83 83 83 83 83 83 83 84 83 84 84 84 84 84 84
82 81 72 65 60 57 60 68 71 76 79 78 72 76 73 68 71 77 82 84 86 85 87 86 82 82 83 82 82 83 83 83 83 83 83 82 84 84 83 84 84 83 83 84 84 84 84 83 83
80 77 73 63 60 66 67 72 75 73 77 75 74 68 74 77 77 80 83 85 86 86 88 84 82 83 83 83 83 83 82 82 83 83 83 83 83 83 83 83 84 83 83 84 84 84 83 84 83
81 73 64 64 64 68 73 71 75 74 72 70 74 66 66 76 80 82 83 86 86 87 88 88 83 83 82 83 82 83 83 82 82 83 83 83 83 84 84 83 83 84 83 84 84 84 82 82 84
71 71 60 60 64 70 69 73 75 73 73 70 68 71 69 76 79 82 85 86 88 87 88 88 83 83 83 83 83 83 83 83 83 82 82 83 82 83 82 84 84 84 84 84 83 84 83 84 84
70 65 62 62 65 63 68 75 72 73 73 70 75 68 68 73 81 83 85 86 87 87 87 87 88 85 83 83 83 82 83 83 83 83 82 83 82 84 83 83 85 85 84 84 84 84 82 84 83
75 68 64 64 63 61 69 71 70 72 70 80 80 68 64 73 81 83 84 85 85 86 87 85 87 87 87 87 83 83 83 82 82 82 83 84 83 83 84 83 84 84 84 84 82 84 84 83 82
80 65 65 67 66 63 67 66 68 72 74 77 78 78 78 79 82 81 81 81 82 83 85 87 87 85 84 86 86 84 83 83 83 84 82 84 86 86 88 84 84 84 84 84 84 84 84 83 84
72 61 68 76 72 68 67 68 67 66 71 69 70 77 76 78 79 78 77 75 80 81 83 85 85 85 86 88 85 85 86 86 85 85 84 85 86 86 87 85 84 84 84 84 84 84 82 85 91
72 68 74 76 75 76 68 67 70 66 68 71 67 69 73 77 79 78 78 79 82 81 83 84 84 84 85 85 86 87 86 86 85 83 84 84 85 86 86 86 87 87 84 90 88 87 88 86 89
68 75 77 77 77 75 71 71 70 69 68 75 75 74 76 77 78 77 78 81 82 78 81 84 84 83 84 86 86 85 85 86 86 85 82 83 85 84 84 85 84 84 87 86 86 88 85 86 86
71 75 77 80 79 77 74 72 69 68 71 75 76 76 75 77 79 80 81 82 82 80 80 83 83 82 82 82 83 85 85 87 86 85 84 85 85 83 85 83 85 85 87 88 86 86 86 85 87
76 77 79 79 79 76 73 71 73 67 69 71 75 76 77 78 79 78 79 79 80 81 81 83 82 82 82 83 82 83 85 85 86 87 85 82 85 83 85 84 85 85 87 88 87 86 86 86 88
77 73 75 75 74 73 76 65 67 72 69 70 73 76 77 79 80 78 80 80 81 82 82 82 82 83 81 82 83 84 86 86 87 87 84 83 83 82 83 84 85 86 85 84 85 86 87 88 88
73 74 70 73 75 73 73 64 69 73 70 70 73 76 76 78 80 81 82 83 83 82 80 82 85 83 82 83 83 85 86 86 87 87 87 84 84 83 84 85 86 85 85 87 87 88 87 87 88
71 68 69 68 75 73 72 68 72 73 71 71 73 75 77 78 80 82 83 83 83 82 81 81 82 82 82 82 83 84 84 84 86 87 87 84 84 83 84 86 86 84 86 87 87 87 87 86 88
65 67 68 68 72 74 70 70 71 73 70 72 73 75 77 78 80 83 84 84 84 83 82 82 83 82 81 82 82 84 85 85 85 86 86 84 85 83 83 86 85 87 86 86 87 84 85 87 87
70 69 68 71 75 73 71 72 73 73 70 70 71 74 77 79 83 84 84 85 84 83 81 80 80 80 81 81 82 82 83 84 84 85 84 84 84 83 83 86 83 85 87 85 84 84 83 85 86
69 67 67 71 73 73 69 66 73 74 73 70 72 74 78 81 82 82 84 85 84 83 81 80 80 80 80 83 83 84 84 85 85 85 84 85 85 83 84 84 85 84 86 83 83 83 85 86 86
67 67 67 68 70 71 69 65 66 69 74 74 76 77 79 80 81 81 82 83 85 83 81 80 80 80 81 82 82 82 82 83 83 84 85 85 85 84 84 84 84 84 85 86 84 83 83 85 84
65 71 71 68 69 66 69 64 63 65 67 71 74 75 79 81 83 83 83 83 84 84 84 82 81 81 81 81 82 80 83 83 86 85 86 86 85 84 84 84 83 82 85 84 84 85 85 84 84
67 71 71 69 68 67 66 68 64 67 64 70 74 76 74 80 83 83 84 84 85 85 85 84 81 80 82 80 82 82 82 86 87 86 83 84 84 84 84 84 84 83 85 84 84 83 82 86 86
73 69 67 67 68 61 67 67 61 64 65 69 73 77 79 77 81 84 86 86 85 86 85 84 80 79 81 80 81 80 82 82 84 84 84 85 86 86 83 84 84 83 83 83 85 84 83 83 84
72 68 57 56 57 59 62 65 59 66 69 70 71 75 79 82 82 83 83 84 84 84 83 83 80 79 80 80 80 81 82 82 82 82 85 84 85 86 85 83 83 85 82 83 84 83 83 84 85
68 69 61 50 53 60 62 58 59 69 72 72 74 74 77 81 83 84 84 84 84 83 83 82 80 80 80 81 80 81 81 85 86 85 87 86 87 87 86 85 84 85 84 84 83 85 86 85 85
63 62 67 60 57 62 62 63 67 70 68 69 69 71 72 74 81 83 84 85 84 84 82 82 81 80 81 82 81 80 81 82 84 84 84 87 86 89 86 86 85 85 84 84 83 86 83 84 84
65 65 61 63 51 52 53 55 58 59 60 64 63 64 68 75 75 81 84 83 85 86 85 84 83 81 82 82 82 83 82 82 83 83 82 84 86 85 86 85 85 86 84 83 83 84 84 81 86
62 61 58 63 57 57 52 54 62 59 60 58 60 64 66 73 76 79 83 84 80 86 85 85 84 82 82 83 83 83 83 83 82 82 83 84 85 85 84 85 85 85 85 84 83 83 84 83 82
58 55 56 61 52 54 60 53 63 62 62 60 61 64 65 68 73 77 80 82 83 82 84 85 85 85 84 83 80 81 82 82 83 82 83 84 83 85 85 85 84 85 85 84 83 83 86 83 83

GFSSGP_sfc_temp_084.txt.gz
Temp
85 92 93 79 62 66 67 70 76 73 76 85 87 83 82 84 78 70 92 94 93 93 92 89 82 83 83 83 83 83 83 83 83 83 83 83 83 83 83 84 84 84 84 84 84 84 84 84 84
93 88 85 67 60 63 67 74 71 77 84 88 86 86 82 76 83 84 86 93 94 96 95 93 82 83 83 83 83 83 83 83 83 83 83 83 83 84 84 83 84 84 84 84 84 84 84 84 84
90 88 77 69 63 68 67 74 79 81 87 85 79 86 82 75 82 87 93 94 96 96 96 90 82 83 83 83 83 83 83 83 83 83 83 84 84 83 84 84 83 83 84 84 84 84 85 84 84
88 85 81 68 65 74 72 78 81 81 85 82 84 75 79 82 88 92 94 95 96 96 97 85 83 83 83 83 83 83 83 83 83 83 83 83 83 84 84 83 84 84 84 84 84 85 82 84 84
90 82 69 69 68 76 79 81 84 81 79 78 82 72 73 84 91 93 93 96 96 97 96 92 83 83 83 83 83 83 83 83 83 83 83 83 84 84 84 83 84 84 84 84 84 83 83 84 84
76 75 69 65 70 75 78 77 82 81 80 74 78 78 72 87 89 92 95 96 98 97 98 92 84 83 83 83 83 83 83 83 83 83 83 83 84 84 84 84 84 84 84 84 84 83 84 84 83
71 73 71 72 68 70 73 76 76 79 80 75 79 76 79 85 91 93 95 97 98 98 97 95 94 87 84 84 84 83 83 83 83 83 83 83 84 84 84 85 85 85 84 84 83 84 84 84 83
78 76 71 72 70 67 71 70 72 77 77 83 88 75 75 85 91 94 95 96 96 96 97 94 95 94 91 91 83 83 82 82 83 83 84 84 84 84 84 84 84 85 84 84 84 83 84 84 83
84 72 67 72 72 70 74 68 69 73 78 79 83 86 87 89 92 91 91 92 93 94 95 96 95 92 90 91 88 84 83 83 83 84 83 86 93 94 91 84 84 84 84 83 83 85 84 84 83
77 75 73 82 82 75 73 70 67 71 74 75 80 87 88 89 88 88 88 89 90 91 94 96 94 93 93 95 90 88 91 93 93 93 91 91 93 90 92 87 84 84 84 84 84 84 85 86 94
79 71 81 83 84 82 76 71 73 69 74 77 76 79 85 86 87 88 89 90 92 92 94 94 92 92 93 91 94 94 94 93 91 89 91 92 93 93 94 92 93 92 88 95 92 93 96 93 97
76 82 84 85 84 82 78 76 72 74 74 80 79 83 86 85 87 89 89 90 91 90 91 94 92 91 92 93 95 94 94 94 93 91 89 89 92 91 92 92 91 91 95 92 94 94 91 92 92
80 82 84 85 86 84 81 77 75 74 77 80 79 85 85 87 88 91 92 92 91 89 91 92 91 89 89 89 93 94 92 95 93 93 90 93 92 89 91 90 93 93 95 94 93 93 93 92 94
84 84 83 86 86 83 80 78 77 72 77 76 81 84 87 88 89 89 89 90 90 89 90 92 90 89 89 89 88 86 93 93 94 94 91 89 92 90 91 91 92 93 95 94 94 91 93 94 94
84 80 84 84 84 80 84 74 74 72 74 72 82 85 86 88 89 88 89 89 90 91 90 90 90 91 88 88 87 87 93 95 94 94 90 89 90 89 89 91 93 93 91 91 92 94 94 94 95
81 83 78 82 84 81 82 68 76 73 70 73 80 84 85 86 89 90 91 91 91 91 88 89 93 91 89 89 89 93 94 94 95 95 93 90 89 89 89 91 93 93 93 95 95 96 94 94 94
80 73 75 76 83 81 81 72 74 74 73 74 80 84 85 86 88 89 91 92 92 91 88 88 90 90 89 88 91 91 90 93 93 95 95 89 89 89 92 93 92 90 94 95 96 94 95 92 94
74 78 79 76 80 84 81 77 75 75 78 76 80 83 85 86 87 90 91 92 93 91 89 88 89 88 87 89 88 92 92 93 94 94 95 90 90 89 90 93 90 92 93 93 95 91 93 93 93
82 80 78 80 83 82 80 79 77 76 75 76 77 81 85 87 90 91 92 92 92 91 89 87 87 86 87 88 89 89 89 91 92 93 90 90 90 89 88 93 90 92 92 90 90 91 88 92 93
79 78 76 80 82 83 80 79 80 74 75 78 78 78 84 88 89 90 91 92 92 90 88 86 86 86 86 90 89 91 91 93 91 89 90 91 90 89 89 89 90 90 92 88 88 87 92 93 94
78 78 76 77 79 82 81 74 77 79 74 77 76 83 83 85 89 89 89 91 92 90 88 87 86 86 86 89 89 88 90 90 89 90 91 91 91 89 89 89 91 89 91 92 88 89 88 91 92
74 80 78 77 77 72 82 64 72 74 71 74 76 76 85 85 85 89 90 90 92 91 91 89 87 86 87 87 88 86 89 89 92 92 93 91 91 90 90 89 89 88 93 90 90 91 91 89 89
76 81 79 78 77 76 76 75 71 70 68 73 77 76 80 85 88 88 91 91 93 93 93 91 87 86 87 86 86 88 85 92 93 94 89 88 88 89 90 89 89 88 91 89 89 88 87 92 92
81 77 77 78 79 67 77 77 69 73 71 76 80 83 82 87 89 90 92 93 93 94 93 92 87 84 85 86 85 85 87 88 91 89 90 92 93 91 89 90 89 89 90 88 90 89 88 88 90
78 76 65 63 64 67 79 75 68 73 75 76 77 81 87 87 83 89 91 92 92 92 92 92 88 84 86 86 86 86 86 87 85 87 88 91 93 93 88 89 86 89 88 89 89 87 89 88 89
75 77 69 57 62 68 74 67 66 76 78 80 81 82 84 90 91 86 86 92 91 92 92 91 89 85 86 86 85 86 86 90 90 91 93 91 94 94 93 89 90 89 90 89 88 90 91 90 90
74 71 82 73 77 71 72 68 74 77 75 75 72 73 79 83 90 89 88 92 91 92 91 90 89 87 87 88 87 86 86 86 90 90 91 93 92 96 92 91 90 90 89 88 88 91 89 89 88
76 81 69 72 60 60 66 64 66 68 67 68 65 65 70 84 83 85 92 93 93 94 94 92 91 88 88 89 89 89 88 87 88 89 88 89 93 91 93 91 90 90 89 89 87 90 89 87 90
71 72 73 77 72 65 61 65 71 67 64 63 63 64 65 68 79 84 89 87 92 94 94 94 92 90 89 90 89 89 90 89 88 88 88 88 90 91 88 89 88 90 90 90 87 89 90 87 87
70 70 72 68 64 71 72 60 72 71 68 69 66 64 65 67 72 68 70 78 85 88 92 93 93 93 92 91 88 89 89 90 89 87 89 88 88 90 90 89 88 89 90 90 88 88 91 88 87

GFSSGP_sfc_temp_087.txt.gz
Temp
85 93 92 79 67 67 64 68 79 77 78 90 93 91 87 85 77 70 95 97 96 95 91 89 83 83 83 83 83 83 83 83 83 83 83 83 83 83 84 84 84 83 84 84 84 84 84 84 83
97 96 89 69 65 62 64 77 73 80 88 93 92 91 85 79 89 90 92 97 97 97 96 93 82 83 83 83 83 83 83 83 83 83 83 83 83 84 83 84 83 84 84 84 84 85 85 84 84
91 94 71 64 69 62 65 76 79 87 91 91 87 89 85 80 91 92 97 98 96 96 95 89 83 83 83 83 83 83 83 83 83 83 84 84 84 84 84 83 83 84 84 84 85 85 84 84 84
90 80 78 61 68 74 76 79 88 83 85 91 88 79 86 94 93 96 99 101 99 95 94 86 83 83 83 83 83 83 83 83 83 83 83 84 84 84 84 84 84 84 84 85 84 85 84 84 84
89 79 69 69 71 78 83 87 88 82 85 85 85 80 82 93 98 98 99 100 98 92 95 92 83 83 83 83 83 83 83 83 83 83 84 84 84 84 84 84 83 85 85 84 84 83 84 84 83
72 79 68 67 71 78 83 78 83 83 84 83 82 79 81 94 95 97 101 99 99 99 98 92 84 83 83 83 84 83 83 83 83 83 83 84 84 85 84 84 85 85 85 84 84 84 84 83 83
74 72 69 72 72 72 76 76 75 80 80 79 87 79 84 91 96 99 101 102 99 100 99 95 93 87 84 84 84 83 83 83 83 83 84 84 84 84 85 85 85 84 85 84 85 84 84 83 83
80 77 72 77 70 69 78 71 73 78 75 85 92 79 80 90 97 100 102 100 97 99 100 88 96 95 91 90 84 83 83 83 83 84 84 84 84 84 85 84 84 85 85 84 85 85 84 83 83
89 71 69 73 73 73 78 70 72 77 81 85 89 91 92 95 98 98 97 94 96 95 97 97 96 85 90 90 87 84 83 84 84 85 84 84 89 92 88 84 85 85 85 85 85 85 84 83 83
82 73 74 82 84 78 78 71 70 74 81 82 87 92 94 95 95 94 94 93 93 94 97 87 89 91 88 97 88 90 84 90 91 94 83 83 89 90 92 87 84 85 85 85 85 85 83 83 93
83 74 82 86 88 86 79 73 76 73 73 82 83 87 90 92 93 94 95 96 97 97 94 94 90 93 95 93 92 93 85 94 94 85 83 89 90 92 93 90 91 90 86 93 88 85 84 81 97
77 84 86 87 89 86 80 80 74 76 75 86 87 90 91 91 93 94 95 96 96 96 91 90 96 95 95 97 96 98 97 96 89 90 92 86 92 94 92 86 91 80 81 91 80 95 93 92 94
79 85 90 90 91 85 85 78 76 76 82 86 87 90 90 92 94 96 96 98 96 95 96 96 94 92 92 90 84 90 95 97 94 94 92 86 86 92 94 93 92 93 93 91 92 87 90 94 88
89 89 89 92 92 88 78 80 82 76 83 82 85 88 91 93 94 94 95 94 93 94 95 96 93 91 92 90 88 93 89 96 97 95 94 93 91 87 93 88 85 82 83 79 80 81 93 83 94
89 85 89 90 90 87 88 76 74 76 82 79 83 89 91 93 95 93 95 94 94 95 95 93 93 93 91 89 90 90 96 88 94 93 92 92 92 91 91 90 84 89 92 92 94 84 92 96 93
85 87 76 88 89 87 83 67 75 73 76 79 85 89 90 92 94 94 96 96 96 95 92 93 97 94 92 91 91 85 90 87 85 95 93 92 91 91 87 87 85 94 89 85 89 91 89 90 84
84 78 75 81 87 87 79 71 77 80 75 78 83 87 90 91 93 94 96 96 95 94 92 91 94 92 92 90 92 86 92 85 87 86 85 92 92 91 83 83 90 91 85 90 84 88 84 89 89
77 78 82 76 85 88 75 77 77 79 75 74 82 83 85 87 90 94 95 97 96 94 92 91 93 91 91 91 88 84 91 89 89 84 82 91 91 91 87 85 92 90 85 89 81 88 88 82 87
88 83 78 72 90 82 77 79 75 73 76 78 79 82 82 86 94 94 96 96 95 94 91 90 90 88 90 90 91 82 90 83 86 85 92 91 88 91 90 82 91 82 87 88 92 91 89 92 93
85 84 81 79 89 87 85 78 80 80 82 80 80 80 80 87 92 90 91 95 95 92 90 89 89 87 88 92 92 94 80 82 94 93 92 90 92 91 91 86 91 85 86 89 90 87 87 91 89
84 84 82 81 85 89 85 75 77 76 82 83 82 83 82 85 88 85 88 90 95 92 90 89 88 87 88 91 91 92 91 84 92 89 92 92 92 92 89 90 76 90 83 91 89 90 87 74 93
79 89 86 84 80 75 87 69 76 76 76 79 79 80 82 85 87 88 83 87 95 93 92 89 88 87 88 89 85 87 87 88 82 89 82 92 92 91 92 91 91 90 87 82 90 93 88 89 89
83 89 85 84 81 80 80 66 59 81 74 77 79 80 83 82 90 87 89 87 93 95 94 91 88 87 89 88 84 89 87 80 81 82 85 90 89 91 93 92 91 89 87 91 84 89 88 93 90
87 86 83 84 82 72 80 77 56 74 78 81 81 79 85 85 83 89 90 88 91 97 95 93 88 86 87 87 87 87 88 84 79 86 88 92 93 92 91 91 90 90 91 90 90 90 89 88 89
83 79 68 66 68 69 83 77 62 78 82 84 82 86 88 87 83 88 82 89 90 94 95 94 89 85 87 88 88 87 87 88 88 88 89 79 86 91 88 89 88 91 89 91 91 89 88 89 89
79 80 71 59 65 72 83 70 71 82 85 85 82 87 88 93 93 84 90 88 88 91 95 94 90 87 87 87 87 88 88 91 92 90 87 89 89 96 90 91 90 90 90 90 89 90 91 91 90
78 74 88 78 81 75 75 71 78 81 79 75 70 76 83 90 92 91 91 79 87 91 93 93 92 89 89 89 88 87 88 88 92 92 91 91 92 83 91 93 90 91 91 91 89 90 89 89 89
79 86 75 77 64 64 69 67 70 73 72 67 65 69 76 84 90 90 87 82 73 90 92 95 94 91 90 91 90 90 89 89 89 91 90 92 93 94 78 91 91 91 91 90 88 89 91 89 91
77 75 80 82 79 69 63 66 79 72 70 64 64 65 67 74 77 82 76 72 80 93 90 92 95 93 92 92 91 91 91 91 89 90 90 90 91 91 92 90 91 91 91 90 89 88 91 88 88
80 78 79 71 68 76 69 64 79 77 75 69 65 65 69 72 73 73 74 71 71 75 77 73 89 95 95 94 92 92 92 92 91 89 90 90 89 91 90 90 90 89 91 91 88 89 92 90 88

GFSSGP_sfc_temp_090.txt.gz
Temp
84 89 88 78 63 65 62 69 78 77 82 93 92 87 81 83 78 65 89 91 91 88 86 85 83 83 83 83 83 83 83 83 83 83 83 83 84 84 84 84 84 84 84 84 84 84 84 84 84
92 93 88 75 60 57 60 74 74 81 89 93 90 87 83 77 86 86 86 92 92 90 90 87 82 83 83 83 83 83 83 83 83 83 83 84 83 84 84 84 84 84 84 84 85 84 84 84 84
87 93 66 64 64 61 64 76 80 86 91 89 84 86 86 80 89 89 93 94 94 93 90 85 83 83 83 83 83 83 83 83 83 84 83 84 84 84 84 84 84 84 84 84 84 85 84 84 84
85 77 69 60 60 75 73 78 84 86 88 88 87 78 89 94 91 94 94 96 93 91 89 84 83 83 84 83 83 84 83 83 83 83 84 84 84 84 84 84 84 84 84 84 84 84 84 84 84
86 76 61 59 66 77 79 84 86 83 83 81 85 80 82 92 96 97 94 94 91 90 89 86 83 83 83 84 84 84 83 83 83 83 84 84 84 84 84 84 85 85 84 84 84 83 84 84 84
70 75 59 59 66 77 77 74 78 82 83 83 82 81 82 94 94 96 96 96 95 92 90 87 84 83 84 83 83 83 84 83 83 84 84 84 84 84 84 84 85 85 84 84 84 84 84 83 83
74 68 63 70 69 72 75 74 68 82 81 80 87 77 85 90 96 95 96 93 95 94 90 88 87 84 84 84 84 83 83 83 84 84 84 84 84 84 84 85 85 85 85 85 84 84 83 83 83
79 74 69 69 68 66 77 74 70 72 73 90 91 77 78 90 97 97 96 93 94 94 93 90 88 87 85 86 84 84 83 83 84 84 84 83 84 85 85 84 84 84 84 85 85 84 83 83 83
85 69 67 73 69 68 75 71 70 74 76 81 89 88 91 95 99 95 93 93 90 89 91 88 88 86 85 85 85 84 84 84 84 83 84 82 85 86 86 84 84 85 85 85 82 80 80 83 84
78 70 75 81 80 76 75 71 69 70 72 82 86 91 93 95 95 89 87 89 89 88 89 90 90 90 88 91 84 82 85 86 84 82 78 81 85 85 87 85 85 85 85 84 80 80 80 80 82
72 72 82 81 84 83 78 74 76 72 72 83 82 86 90 93 93 90 91 91 92 86 86 82 88 86 90 86 86 85 86 82 82 82 84 86 85 84 86 84 85 82 83 80 79 78 76 77 80
75 82 88 85 86 83 78 79 75 74 70 87 88 90 91 91 93 93 92 89 87 82 80 88 90 82 89 83 78 84 84 87 83 84 82 84 86 83 73 76 73 74 73 73 76 80 80 82 86
81 83 87 91 87 84 83 78 76 74 74 85 90 90 90 92 93 95 95 93 91 88 90 88 89 86 86 86 88 88 85 87 89 85 87 83 87 83 77 78 72 74 74 73 75 76 82 85 88
74 78 88 92 86 85 79 77 80 77 83 85 88 88 91 92 94 94 91 92 93 87 87 91 88 90 84 87 86 83 85 89 89 85 85 85 85 84 85 83 76 74 75 79 74 77 78 84 87
78 78 89 91 86 82 82 72 72 79 83 82 85 88 89 93 94 93 91 92 93 94 90 90 89 91 84 87 88 89 86 89 88 88 86 85 86 78 75 82 81 74 77 79 76 80 84 86 89
85 85 77 87 88 84 82 62 74 80 80 80 84 87 89 92 93 94 95 94 94 93 88 90 94 91 88 87 88 87 84 84 86 88 88 87 90 88 84 81 79 87 83 81 81 83 82 80 84
83 71 77 81 88 85 80 67 74 75 80 80 83 86 89 90 92 94 95 94 93 91 88 89 88 89 86 87 88 85 85 86 87 83 84 85 87 85 77 79 81 86 83 78 82 78 81 82 80
75 77 77 75 69 74 74 72 74 75 80 80 83 85 86 88 90 93 94 95 94 91 89 89 89 86 87 87 84 84 85 82 87 84 76 89 87 84 76 79 85 82 81 79 80 81 80 82 80
85 83 78 75 83 80 74 71 72 76 78 80 80 82 85 86 91 93 94 95 93 90 88 88 85 84 85 85 80 83 80 83 83 75 80 85 87 84 76 78 85 77 78 83 85 85 84 82 82
83 82 73 72 78 64 73 70 76 75 73 73 74 81 82 84 87 90 92 94 92 88 87 86 85 84 85 85 85 84 79 82 84 84 87 89 86 89 81 76 79 81 78 85 85 82 78 82 80
82 81 77 73 75 68 64 61 71 74 77 78 81 82 84 83 84 89 90 92 92 87 86 85 84 83 84 86 84 72 73 73 75 85 86 86 87 89 86 81 76 80 80 80 84 83 80 76 82
78 88 81 71 72 68 80 59 68 72 70 75 78 78 79 84 82 89 89 87 91 88 88 85 85 83 84 86 85 81 76 73 80 84 80 85 86 88 88 84 80 81 77 76 82 84 77 78 79
81 89 81 81 80 79 78 68 58 58 72 73 77 79 79 80 87 89 89 87 91 90 89 87 85 83 84 84 83 84 80 75 73 75 80 82 83 88 88 86 84 81 79 76 80 83 84 80 79
89 86 85 83 82 69 72 72 60 55 61 76 80 82 83 85 86 87 88 84 84 90 90 87 83 82 84 84 83 81 79 73 76 78 80 81 84 86 87 88 85 84 78 79 81 85 86 82 81
85 79 67 65 66 66 78 72 62 61 61 63 78 82 85 85 86 87 84 86 86 86 89 86 83 82 83 84 84 83 81 82 75 78 77 77 75 84 83 85 85 83 82 84 84 85 83 84 82
80 79 69 58 62 68 80 65 63 67 70 77 84 83 72 72 85 87 86 88 87 86 87 87 83 82 83 84 84 84 84 81 84 84 81 80 78 78 83 83 85 86 85 86 85 84 84 84 84
78 73 85 75 77 71 69 71 73 76 73 75 76 77 77 73 83 88 89 88 88 87 87 87 83 83 84 85 84 84 84 84 85 86 86 88 82 76 79 82 84 86 85 84 84 83 83 84 83
79 85 72 75 61 60 64 64 65 70 67 68 69 68 71 74 74 75 75 83 86 86 77 90 86 84 85 86 85 86 85 85 85 85 83 88 84 79 77 77 76 85 85 85 83 82 82 82 83
75 73 76 79 76 65 59 62 76 71 68 66 68 70 71 69 69 69 69 69 75 73 70 70 77 85 87 87 86 86 86 86 86 86 88 88 89 78 75 73 73 80 84 85 83 81 81 82 82
82 78 78 68 66 67 56 53 70 73 71 69 67 69 71 69 67 68 71 71 69 67 70 71 71 74 85 88 86 86 86 87 86 85 86 87 85 87 83 77 78 83 86 83 82 83 85 81 82

GFSSGP_sfc_temp_096.txt.gz
Temp
79 80 80 73 61 59 59 66 73 73 75 83 82 78 74 74 70 58 74 78 78 78 80 82 82 83 83 82 82 82 83 83 83 83 83 83 83 83 83 83 83 84 84 84 84 84 84 84 84
79 81 77 67 58 54 59 70 68 73 78 81 80 76 72 65 75 71 72 78 79 79 78 80 81 82 82 82 83 83 83 83 83 83 83 83 83 83 84 83 84 83 84 84 84 84 84 84 84
83 84 67 61 58 56 60 71 73 76 81 80 76 78 74 68 74 74 78 79 79 77 76 79 82 82 83 83 83 83 83 83 83 83 83 83 83 84 83 84 84 84 84 84 84 84 84 84 84
78 72 67 59 57 65 69 71 77 75 78 80 77 68 76 82 78 78 80 80 77 76 76 81 83 83 83 83 83 83 83 83 83 83 83 83 84 84 84 84 84 84 84 84 84 84 84 84 85
78 70 60 56 59 68 72 78 78 74 74 75 75 69 71 80 81 81 80 80 75 74 77 80 83 83 83 83 83 83 83 83 83 83 83 84 84 84 84 84 84 84 84 84 84 84 84 84 85
67 67 56 54 62 69 72 75 77 75 76 74 72 70 69 81 80 81 81 78 78 76 78 80 83 83 83 83 83 83 83 83 83 83 83 83 83 84 84 84 84 84 84 84 84 84 84 83 84
67 61 57 59 60 65 70 74 73 74 74 73 78 68 72 77 81 81 80 79 79 79 78 77 79 82 83 83 83 83 83 83 83 83 83 83 83 84 84 84 85 85 85 84 84 82 83 83 84
71 65 59 61 60 61 68 71 72 75 74 83 81 68 67 77 81 81 79 78 77 77 78 75 76 77 76 78 83 83 83 83 83 83 83 83 84 84 84 83 84 85 85 84 84 83 82 82 83
79 61 59 60 62 65 69 69 71 74 77 80 82 78 80 82 82 78 75 75 75 77 75 75 74 74 74 76 81 82 83 83 84 83 84 80 76 78 79 82 85 85 84 84 83 82 81 82 82
69 61 66 71 72 68 72 70 69 71 74 75 76 82 83 83 79 76 73 72 72 73 75 75 74 74 75 82 76 74 78 76 75 75 75 73 74 76 79 82 85 85 83 82 81 81 81 77 74
67 62 68 75 76 75 72 71 74 69 67 76 73 77 81 80 79 77 76 76 74 76 74 76 75 75 75 75 73 73 74 74 74 75 74 74 76 75 73 71 72 73 78 72 75 74 72 73 71
64 69 69 75 76 75 72 74 72 72 72 77 80 81 81 79 78 78 77 77 77 77 76 77 77 75 75 76 73 74 74 74 73 74 74 72 71 71 71 70 71 71 69 70 71 71 73 75 76
69 70 69 73 78 75 77 71 71 72 77 81 84 83 82 80 80 80 79 79 79 77 78 77 77 77 76 75 74 74 74 74 75 74 75 74 71 70 72 71 69 71 70 69 70 71 71 73 76
74 73 70 74 76 76 71 70 74 72 77 82 83 81 81 82 80 78 79 78 78 79 78 78 78 80 77 74 75 75 75 76 76 75 76 76 71 70 70 70 70 70 70 69 70 70 70 72 75
78 71 74 75 72 72 76 67 68 74 75 80 82 80 81 81 80 78 80 78 78 79 79 78 77 78 75 74 75 75 76 77 76 76 76 75 72 72 71 70 70 71 71 72 71 72 73 74 77
71 69 62 69 73 75 71 60 70 74 72 78 81 80 81 82 80 81 81 80 80 79 78 78 84 79 77 74 74 76 76 76 77 75 76 75 75 74 71 70 70 71 71 71 70 71 73 72 74
63 58 59 65 71 74 67 61 70 73 73 77 80 77 79 79 81 83 83 82 81 80 78 77 77 77 77 75 76 76 76 77 75 76 75 75 76 75 72 71 71 72 71 71 71 70 72 73 73
56 58 60 62 65 67 62 63 70 72 74 77 79 74 79 78 79 82 82 83 81 78 78 78 76 76 76 73 74 74 75 74 78 78 76 76 75 75 72 72 73 73 71 71 72 73 74 73 73
65 63 60 61 65 63 62 63 67 69 71 74 77 72 79 80 82 82 83 83 81 79 78 75 74 74 74 74 71 71 70 72 72 74 76 76 75 74 73 72 74 73 73 72 72 74 74 73 72
65 64 60 63 65 64 62 63 67 68 66 74 74 72 77 80 80 80 81 81 80 77 77 74 76 74 74 74 73 73 71 72 72 73 74 76 75 74 75 74 73 73 73 73 73 74 72 71 72
63 60 61 61 62 63 62 57 60 69 71 74 76 76 78 78 76 77 78 80 79 76 76 75 74 75 73 74 72 71 70 70 71 72 73 76 77 76 73 74 73 73 71 71 73 73 72 70 72
54 70 71 62 59 51 63 48 55 61 65 72 74 74 76 80 78 78 78 78 79 78 78 76 75 74 74 72 72 72 70 68 69 71 73 74 77 76 76 74 74 73 72 72 73 76 72 71 70
66 77 73 66 57 58 55 50 53 59 61 67 71 74 76 80 80 77 78 78 80 79 78 78 76 73 73 74 72 71 69 69 71 72 73 73 73 77 78 75 74 73 72 72 72 74 73 72 72
78 69 67 62 55 47 54 55 52 55 61 67 72 73 77 78 78 81 80 81 79 81 78 78 75 73 72 74 72 71 71 70 70 71 71 72 72 73 76 76 74 74 73 73 74 72 74 73 72
71 56 44 46 45 47 58 54 55 64 68 70 72 73 68 71 76 79 78 78 78 78 77 77 75 72 71 73 73 72 72 71 72 72 71 71 72 73 73 74 74 73 72 73 73 73 73 74 73
61 58 47 42 44 49 61 53 54 66 70 72 71 71 70 70 70 72 74 77 78 79 78 78 74 73 72 73 73 73 73 72 71 73 71 71 72 74 75 75 74 75 75 75 74 73 74 74 73
60 55 61 53 50 50 50 53 62 62 62 65 66 66 66 70 70 70 71 73 79 78 78 78 75 74 73 73 73 73 73 73 74 74 74 71 73 75 77 76 76 76 75 75 74 74 74 73 72
66 66 55 50 46 44 46 47 48 55 58 63 62 62 64 67 71 71 71 71 71 72 74 74 75 73 72 73 75 75 73 73 73 73 74 74 74 75 74 75 76 76 76 75 74 74 73 73 73
60 56 57 54 51 47 42 47 60 59 62 60 61 63 63 64 66 67 68 69 69 70 70 69 69 70 70 71 71 71 74 74 73 74 75 72 73 73 73 74 74 74 75 75 74 73 74 74 73
63 58 54 50 53 47 44 48 62 61 62 61 61 62 63 63 64 66 67 68 68 69 69 69 69 70 70 70 71 71 73 73 74 74 74 74 73 73 73 73 72 73 74 74 74 74 76 74 73

GFSSGP_sfc_temp_102.txt.gz
Temp
77 78 78 71 59 58 57 62 69 64 65 72 74 72 68 67 64 55 68 73 75 75 77 80 81 82 82 82 82 82 82 82 83 83 82 82 82 82 83 83 83 84 84 84 84 84 84 83 83
77 78 74 66 56 54 58 64 63 68 72 74 75 72 69 62 69 67 68 75 77 76 76 77 81 82 82 82 82 82 82 82 82 83 82 83 83 83 83 83 84 84 83 84 84 84 84 84 84
78 80 66 61 58 55 57 66 68 73 76 74 70 73 69 65 71 69 73 76 76 74 76 78 82 82 82 82 82 82 82 82 83 82 83 83 83 83 83 84 84 83 83 84 84 84 83 84 83
74 70 67 58 58 64 65 68 74 73 76 74 71 64 70 75 73 73 76 76 73 74 75 80 82 82 82 82 83 82 83 83 83 82 83 83 83 83 83 83 84 84 83 84 84 84 84 84 84
74 69 60 57 59 65 70 74 75 70 72 73 73 64 66 72 75 75 74 75 73 72 75 79 82 83 83 82 83 82 82 83 82 83 83 83 84 84 84 85 84 84 84 84 84 85 85 84 84
66 66 56 55 59 64 71 74 73 71 71 70 68 66 65 73 73 74 75 73 74 73 75 78 82 83 83 82 83 82 82 83 83 83 83 83 83 84 84 84 85 84 84 84 84 84 83 84 83
64 60 58 59 60 60 69 74 70 70 69 68 73 63 67 69 73 74 73 73 74 75 75 76 78 81 82 82 82 82 82 83 83 83 83 83 83 83 84 84 85 85 84 85 85 84 84 84 83
68 62 59 59 58 59 69 71 73 71 67 76 74 62 63 69 74 73 72 72 72 73 75 74 75 76 76 76 82 82 83 83 83 83 83 83 83 84 84 83 83 85 85 84 85 83 83 83 83
74 60 57 58 60 61 69 69 73 75 71 74 76 72 72 74 74 71 70 71 71 73 72 73 73 74 75 76 80 81 83 83 82 82 81 77 74 76 79 83 84 84 83 83 84 83 83 82 83
66 59 63 66 67 64 69 72 71 69 68 67 68 73 73 73 71 69 68 69 71 70 72 72 73 73 74 80 73 74 76 75 74 74 74 73 74 77 80 82 84 83 81 83 83 82 81 78 76
66 61 66 66 67 71 69 70 75 68 63 67 64 67 70 71 70 69 69 69 70 70 72 72 72 73 74 73 72 73 73 73 73 74 73 74 74 74 73 73 74 73 76 74 76 74 74 76 75
63 69 68 67 70 72 69 71 71 69 69 72 72 72 72 70 69 70 70 69 70 70 72 72 73 72 73 72 72 73 73 73 73 74 74 73 73 72 71 72 71 71 70 72 73 74 75 76 77
67 68 69 73 73 72 75 70 67 65 74 74 74 73 71 71 71 72 73 72 71 70 72 72 73 72 73 73 72 73 73 73 74 74 74 73 72 72 72 71 70 71 71 71 72 72 73 75 77
73 71 71 71 69 72 67 68 70 66 73 73 73 71 72 72 73 72 73 71 71 72 72 73 73 73 73 72 72 73 73 73 74 73 73 73 72 71 72 71 71 71 71 72 72 73 74 75 76
72 65 70 68 69 69 72 64 64 66 71 71 71 72 73 74 74 73 74 73 73 73 74 73 73 74 72 73 73 73 74 74 73 72 74 73 72 72 72 71 71 72 73 73 73 74 76 76 78
65 65 59 66 68 69 69 58 65 67 67 71 71 72 73 73 74 74 75 74 74 73 73 73 79 76 73 72 73 74 74 73 73 74 74 74 73 73 72 72 72 73 72 73 73 74 75 75 76
60 54 58 62 68 68 67 58 66 67 68 70 71 72 73 72 73 74 77 76 74 73 73 73 75 74 74 73 73 73 74 74 73 73 73 74 74 74 73 72 73 73 73 72 74 73 74 75 75
53 53 60 61 64 66 62 62 66 69 71 71 71 72 71 72 74 75 76 77 76 74 73 74 73 73 73 72 71 72 73 73 72 73 74 74 74 75 73 74 74 75 74 73 74 74 75 75 74
61 59 58 60 63 61 59 62 64 67 71 69 71 71 70 73 77 76 78 75 75 73 73 73 72 72 72 71 70 70 70 73 74 73 74 74 76 76 74 74 75 74 74 74 74 75 74 75 74
59 58 56 60 63 62 61 60 65 65 67 67 70 71 71 75 73 76 75 76 74 73 73 72 72 71 72 72 71 72 71 72 73 73 74 75 75 75 75 74 75 75 74 74 75 74 74 74 74
57 60 56 58 61 61 59 57 60 66 69 70 70 74 74 72 72 72 73 74 74 73 72 72 71 72 72 73 71 70 71 71 72 72 73 74 75 75 75 75 74 74 74 74 74 74 74 73 74
54 66 65 59 56 49 60 48 56 62 62 67 71 71 72 73 75 73 73 73 74 75 74 72 71 71 72 72 73 72 71 69 71 72 73 75 76 76 76 75 75 74 74 74 75 76 74 74 73
62 69 64 61 53 52 55 49 53 59 58 61 65 70 72 73 74 73 74 75 76 76 74 73 71 71 72 72 72 72 71 71 71 72 74 74 75 76 77 76 75 75 74 74 75 75 75 74 74
68 62 57 55 51 45 52 52 49 53 59 62 66 70 73 75 74 75 77 78 77 76 75 73 71 70 71 71 71 71 71 71 70 71 71 72 74 74 76 76 74 75 74 74 75 75 76 75 74
61 51 41 41 41 43 48 50 50 58 64 67 67 71 73 75 74 75 75 76 76 75 74 73 71 71 70 71 71 71 71 71 71 72 71 72 72 73 75 75 74 74 74 74 74 75 76 76 76
55 53 44 38 39 43 52 47 54 61 65 69 73 72 71 72 73 74 75 76 76 75 76 75 72 71 71 71 71 71 71 70 70 72 71 72 73 75 76 75 75 75 75 75 74 76 76 76 75
55 49 56 47 44 45 46 51 58 62 63 66 65 68 69 70 71 72 73 73 74 76 76 76 74 74 71 71 71 71 71 72 72 72 73 73 74 75 76 76 76 76 76 75 75 75 76 76 76
58 61 50 45 40 38 43 46 49 56 59 61 61 62 65 68 69 69 69 72 72 74 75 76 74 73 72 71 72 73 72 73 73 73 73 72 73 75 75 73 75 74 76 76 75 75 76 75 75
55 50 48 48 45 40 39 44 56 57 60 60 61 63 64 65 67 68 69 69 70 71 72 72 72 71 71 71 71 72 72 73 73 74 74 74 75 74 74 74 74 75 75 76 75 74 75 75 75
55 52 51 46 42 42 43 44 60 60 62 61 61 62 64 65 66 68 68 68 68 69 70 69 69 71 71 71 72 72 73 74 72 73 74 75 74 74 73 74 74 75 75 76 75 75 75 75 75

GFSSGP_sfc_temp_105.txt.gz
Temp
83 84 85 75 64 66 63 66 73 68 70 78 80 76 74 73 69 67 81 82 85 86 86 85 82 82 82 82 82 82 83 83 82 82 83 83 83 83 83 83 84 83 84 84 84 83 83 83 83
84 81 79 67 63 60 62 70 69 74 78 80 79 78 74 67 74 73 78 83 86 87 87 87 81 82 82 82 82 82 83 83 83 83 83 83 83 83 84 84 84 84 84 84 84 84 84 84 84
83 82 68 67 62 58 62 71 73 78 80 78 73 77 74 68 74 77 83 85 87 86 87 86 82 82 82 82 83 83 83 83 83 83 83 83 83 83 83 84 83 84 84 84 84 83 83 84 83
82 77 72 62 59 66 68 74 78 76 80 78 77 69 74 80 78 78 84 86 87 86 88 84 82 83 82 82 82 83 83 83 82 83 83 83 83 83 84 84 84 83 84 84 84 84 84 84 83
82 75 64 59 60 68 74 77 80 75 77 76 77 66 68 76 82 83 84 86 86 87 88 88 82 82 83 83 82 82 83 82 83 83 83 82 83 84 84 84 84 84 84 85 85 85 84 84 83
70 72 59 56 60 66 74 79 78 77 76 72 72 72 70 77 80 82 85 85 87 87 88 88 83 82 82 83 82 83 83 83 83 83 83 84 84 84 84 84 84 85 84 84 84 84 84 83 83
66 60 59 60 60 62 71 78 75 74 74 73 78 70 68 74 80 83 84 85 87 87 87 87 89 85 82 83 82 82 83 83 83 83 83 84 83 83 84 85 84 85 85 85 85 84 84 84 83
73 67 61 59 60 60 71 74 75 75 72 81 82 68 65 76 81 83 83 84 85 85 86 85 85 86 86 85 82 83 83 83 83 82 83 84 84 84 83 83 84 85 85 85 84 84 84 84 83
78 62 60 58 60 62 71 72 75 80 76 79 79 79 80 80 81 80 80 81 82 83 84 84 85 85 83 84 83 83 83 83 83 83 81 83 86 86 83 83 84 84 84 84 84 83 83 83 83
72 65 62 65 65 65 72 73 74 73 73 72 73 77 79 79 79 79 79 78 78 80 83 83 85 85 85 86 82 83 85 86 85 84 83 86 86 85 87 85 83 82 84 84 83 81 81 84 90
71 64 67 65 67 68 70 73 78 72 69 73 71 73 77 78 78 80 81 81 80 81 82 83 83 83 84 82 84 85 85 85 84 83 84 85 85 85 85 85 85 85 82 89 87 88 89 86 89
67 71 70 66 68 68 68 74 70 72 73 79 78 78 78 78 79 80 81 80 80 80 82 83 83 82 82 81 84 85 85 85 85 85 83 84 85 84 83 84 83 83 85 84 85 89 86 87 87
70 70 71 69 72 76 71 71 68 69 75 78 79 78 78 80 80 81 83 82 82 81 82 83 82 81 81 82 84 84 84 86 86 86 84 86 85 83 84 82 84 83 85 86 86 85 86 87 88
72 74 72 72 71 75 67 67 71 69 77 76 78 78 80 79 80 80 80 81 81 82 82 83 82 82 83 82 82 83 85 85 86 86 85 83 85 83 84 83 84 84 86 87 86 85 87 87 90
75 68 72 72 72 71 69 63 63 71 77 75 77 78 79 80 81 81 82 81 83 83 83 82 82 83 82 82 83 84 86 87 86 85 83 83 83 82 82 83 83 84 84 84 86 87 88 90 92
70 70 63 68 71 69 69 57 63 67 73 74 75 77 78 80 82 83 84 84 84 84 82 83 86 84 83 82 83 85 86 87 86 86 86 83 83 82 82 85 84 84 85 87 87 88 89 89 90
69 63 62 63 68 67 65 59 63 67 70 74 76 76 78 79 81 83 85 85 85 84 83 82 84 83 83 82 84 84 83 86 86 86 86 83 83 83 84 85 85 84 86 87 89 87 88 88 89
63 61 65 60 65 68 66 65 64 65 67 74 76 78 78 79 81 83 85 86 86 84 83 83 84 83 82 82 82 84 85 86 85 86 86 83 84 83 84 85 84 86 87 87 88 85 87 87 87
71 68 63 63 65 64 63 65 62 63 69 71 73 75 78 79 84 85 85 85 85 84 83 82 82 82 82 80 82 82 83 84 84 86 83 83 84 83 82 86 85 86 86 85 85 87 85 88 87
71 67 62 62 63 64 61 62 66 65 67 74 73 77 79 78 82 82 83 85 85 83 83 82 82 81 82 83 82 84 82 78 84 84 83 84 84 83 84 84 86 85 86 84 84 83 87 88 86
68 67 62 64 64 64 60 58 60 66 68 71 73 79 81 81 81 81 78 84 85 83 82 82 82 81 82 83 82 81 81 82 80 81 84 85 84 84 83 84 85 84 87 87 84 85 83 86 86
65 72 69 62 62 59 65 48 58 63 62 65 72 74 80 82 83 83 83 83 84 84 84 83 82 81 82 81 82 80 82 78 80 80 83 85 84 84 84 84 84 83 86 84 85 87 85 86 84
67 75 68 68 63 62 59 54 60 62 61 64 67 77 81 82 83 83 83 83 86 85 84 83 82 81 82 81 83 84 82 83 80 84 80 82 82 83 85 83 83 83 86 84 84 83 84 87 86
72 70 67 65 62 53 63 60 55 59 65 69 71 72 80 82 83 81 85 82 83 86 85 84 80 79 81 80 81 81 80 80 82 82 82 80 84 82 83 85 83 83 84 84 85 84 84 85 85
71 66 57 53 53 55 61 60 68 67 70 73 73 74 76 81 82 82 82 82 82 81 83 83 81 79 80 80 81 82 80 81 81 81 83 82 84 85 83 82 82 84 83 84 84 83 84 85 87
68 70 62 49 52 57 60 57 67 69 73 75 77 79 78 79 82 82 82 83 80 82 82 83 82 80 80 80 80 80 81 83 83 82 83 84 84 84 85 84 84 84 84 84 83 86 87 85 87
67 63 74 63 62 61 59 61 67 68 69 73 74 75 74 75 80 81 81 82 81 77 81 82 80 80 81 82 81 80 80 81 83 81 82 84 83 85 85 85 85 85 84 83 83 86 83 85 85
73 77 64 65 53 53 56 57 61 62 66 71 72 73 76 79 78 76 75 81 82 79 81 80 82 80 80 82 82 82 82 81 82 82 81 81 83 83 83 83 84 84 84 84 83 83 83 83 86
68 67 67 70 64 59 56 60 67 66 67 67 70 74 74 75 75 74 76 78 74 76 77 80 81 79 74 82 81 80 81 82 82 82 81 82 83 82 82 82 82 82 83 83 83 83 83 83 83
71 72 72 64 58 62 61 61 67 69 69 67 67 70 74 77 77 78 76 73 74 71 71 75 75 77 80 77 81 81 82 81 81 81 82 81 81 82 82 82 82 83 83 84 82 83 83 83 83

GFSSGP_sfc_temp_108.txt.gz
Temp
86 93 96 86 70 73 71 72 82 77 79 86 87 84 81 82 78 71 93 93 94 94 92 89 82 83 83 82 82 83 83 83 83 83 83 83 84 84 84 83 84 84 83 84 84 83 83 83 84
95 89 88 80 69 66 69 78 76 81 84 88 86 85 82 74 83 85 87 93 95 97 96 93 81 83 83 83 83 83 83 83 83 83 83 83 83 84 84 84 84 84 84 84 85 84 84 84 84
92 90 79 74 74 64 69 79 81 84 87 86 80 86 82 75 85 88 93 94 97 95 96 89 82 83 83 83 83 83 83 83 83 83 84 84 84 84 84 84 84 84 84 84 83 83 84 84 84
91 86 83 70 66 69 77 82 85 83 86 85 84 76 82 89 86 92 94 96 96 96 97 86 83 83 83 83 83 83 83 83 83 83 84 84 84 82 84 84 85 84 84 84 84 84 84 84 84
93 83 71 65 68 73 83 86 86 83 82 83 85 76 77 85 91 93 94 97 96 97 96 93 83 83 83 83 83 83 83 84 83 83 83 84 84 83 84 84 84 84 85 85 85 84 84 84 83
77 82 69 57 63 73 82 87 86 85 84 81 81 79 79 88 90 92 96 96 98 97 98 93 83 83 83 83 83 83 83 83 83 84 84 83 84 84 84 84 85 85 85 85 85 84 84 83 83
66 67 63 63 61 69 76 86 84 83 81 79 87 78 78 86 91 94 95 96 97 98 94 92 93 86 83 83 83 83 83 83 83 83 84 84 84 85 85 85 85 85 85 85 85 84 84 83 83
77 68 66 66 60 65 78 81 84 83 81 90 91 76 74 86 91 94 94 95 95 96 95 92 89 91 88 91 83 83 83 83 84 84 84 84 84 84 84 83 85 85 85 85 85 84 84 83 83
83 65 66 66 63 66 81 77 82 85 82 86 86 88 87 89 92 91 90 91 92 91 94 95 94 91 89 89 87 84 83 83 83 84 84 85 83 90 91 85 85 85 85 85 84 84 84 84 83
77 71 69 71 68 70 78 79 80 80 81 81 84 88 89 89 89 88 88 88 89 88 93 91 93 88 92 94 87 87 92 94 93 92 90 93 92 83 91 86 83 84 84 84 83 82 83 86 98
79 68 74 69 68 74 79 79 84 80 77 82 80 83 86 87 88 89 90 90 91 91 92 92 91 91 93 90 93 93 93 92 91 90 92 92 93 93 94 92 92 92 87 95 93 93 97 93 97
73 76 78 72 69 72 75 81 77 81 82 87 87 87 87 86 89 90 90 90 90 89 89 92 92 90 90 92 93 93 93 93 93 91 90 89 92 91 91 92 91 91 95 92 93 96 93 95 93
76 73 74 70 69 72 69 75 73 77 84 88 88 88 87 88 89 91 92 92 91 90 91 91 90 87 87 89 92 93 91 94 93 92 91 93 92 89 92 90 93 92 96 95 94 94 94 93 95
79 77 73 68 69 69 71 71 74 77 85 85 86 87 89 89 90 89 90 90 90 90 90 90 90 87 89 88 88 90 93 92 94 94 91 90 92 90 91 91 93 93 96 96 95 92 95 96 96
75 73 73 70 74 72 69 66 65 77 84 83 85 87 88 89 90 88 90 90 91 91 90 89 89 90 88 87 88 92 93 95 93 93 90 90 91 88 89 91 93 93 92 92 93 94 95 97 97
75 74 65 66 70 73 74 61 66 74 81 82 85 86 86 88 90 91 92 92 92 91 88 89 93 91 90 89 87 93 93 94 94 94 93 90 89 88 89 92 93 93 94 96 97 97 96 96 97
78 64 64 61 67 65 63 60 65 73 81 82 84 86 86 87 89 90 92 92 92 90 88 89 90 90 89 88 91 92 90 93 94 94 94 89 89 88 92 93 92 90 94 96 97 96 97 94 97
72 67 67 62 66 65 62 61 65 67 78 82 84 86 86 87 88 90 92 93 92 91 90 89 91 88 88 89 89 92 92 93 94 94 94 90 90 89 90 92 91 93 94 94 95 92 95 95 95
80 77 64 67 70 62 62 61 63 67 75 81 83 85 86 88 91 92 92 93 92 91 89 88 87 86 88 88 89 90 90 91 92 93 90 89 90 89 88 93 91 92 93 91 92 94 91 95 95
79 76 68 67 69 66 62 63 62 64 70 82 83 86 87 87 90 90 91 92 93 90 89 87 87 86 86 90 90 92 91 92 92 92 89 89 90 89 89 90 91 91 92 89 90 89 95 96 94
78 75 72 67 65 64 62 59 59 62 68 79 84 87 89 88 89 89 90 91 92 90 89 88 87 86 85 90 90 88 85 85 85 87 90 91 90 90 87 89 89 89 92 93 91 91 89 92 93
74 78 77 71 69 58 65 53 59 59 62 72 79 84 88 88 90 91 91 91 92 92 91 89 88 87 87 86 88 86 85 81 89 88 91 91 89 90 90 89 89 88 94 89 91 93 92 90 91
73 77 75 76 72 71 67 61 59 63 60 63 70 82 88 90 90 92 92 91 94 93 92 91 88 86 88 85 85 84 87 90 91 90 87 87 87 90 91 89 89 88 93 89 90 90 89 94 93
78 75 73 73 72 65 70 66 57 65 71 74 72 82 87 90 92 93 94 93 93 95 93 91 87 85 86 86 86 84 85 86 86 84 84 89 91 91 89 90 88 89 90 89 91 90 89 89 90
73 71 59 55 59 61 74 68 71 74 75 81 80 78 84 90 91 92 92 90 90 92 92 91 87 84 86 86 86 86 85 85 85 85 90 88 90 91 88 88 87 89 88 89 90 88 89 90 92
73 71 64 51 56 64 68 65 72 78 81 83 87 85 83 88 92 92 92 92 84 91 91 91 88 85 86 86 86 86 85 89 84 88 92 91 85 91 90 89 89 89 89 89 88 91 92 91 92
75 70 81 72 74 64 64 70 75 74 77 81 83 84 84 84 89 90 92 92 91 91 91 90 89 87 87 88 86 86 86 86 84 86 85 91 90 93 90 90 90 90 89 89 88 92 88 89 89
81 83 71 72 60 59 65 66 72 70 72 78 80 82 85 81 83 88 91 91 92 92 91 90 90 88 88 89 88 88 88 88 87 87 86 86 89 89 88 88 89 88 89 89 87 89 89 87 91
75 74 77 79 74 65 62 66 79 74 76 79 81 84 85 84 81 80 84 88 88 89 82 81 89 88 87 89 89 89 89 89 88 86 89 88 87 86 88 88 87 88 88 88 86 88 89 87 88
83 77 78 69 65 72 71 64 75 76 80 80 81 83 87 86 86 81 74 77 76 81 83 79 84 84 86 87 87 88 88 88 89 87 89 88 87 87 88 88 87 88 89 88 86 87 91 88 87

GFSSGP_sfc_temp_111.txt.gz
Temp
87 94 98 90 67 72 71 76 88 83 85 93 94 90 85 84 78 72 97 98 98 97 92 89 83 83 83 83 83 83 83 83 83 83 83 84 84 83 84 84 83 84 83 83 83 83 84 84 83
99 97 92 82 65 67 71 83 80 86 90 93 92 91 83 79 91 90 92 97 99 99 98 93 82 83 83 83 83 83 84 83 83 83 83 84 84 84 84 84 84 84 84 84 84 84 84 84 84
93 98 78 70 66 65 72 83 86 89 92 91 87 89 85 82 91 93 97 99 95 90 92 88 83 83 83 83 83 83 83 83 83 84 84 83 84 83 85 84 84 84 83 83 83 84 84 84 84
91 85 86 69 69 75 82 86 89 87 91 92 89 80 90 94 94 96 99 97 92 93 92 86 83 83 83 83 83 83 83 83 83 84 84 84 84 84 85 85 84 84 84 84 84 84 84 84 84
89 82 70 67 72 78 88 90 91 87 88 87 90 81 83 92 98 99 97 94 91 92 96 92 83 83 83 83 84 84 84 84 83 84 84 84 84 84 84 82 84 85 85 85 84 84 84 84 83
79 80 66 63 64 80 89 92 91 88 89 87 85 83 84 95 95 98 94 98 102 99 96 92 83 83 83 83 83 83 83 84 84 84 84 83 83 84 85 84 85 85 85 85 85 84 84 83 83
77 73 68 64 60 70 84 93 89 86 86 86 91 80 86 92 97 99 95 101 100 96 93 93 92 86 84 83 83 83 83 83 83 84 84 84 85 85 85 85 85 85 85 85 85 84 83 83 83
82 79 69 71 63 65 82 88 88 86 81 96 94 79 81 92 98 100 100 100 95 90 92 82 91 92 89 91 83 83 84 84 84 84 84 84 85 85 84 84 85 85 85 85 85 84 83 83 83
85 69 69 68 69 68 82 82 89 89 88 91 92 91 93 96 99 97 96 97 94 91 85 95 86 91 85 86 87 85 84 84 84 85 84 85 92 91 90 84 85 85 85 85 84 84 84 83 83
78 68 69 79 75 71 81 83 84 85 85 86 89 94 94 96 95 92 93 92 93 87 91 91 95 92 88 94 89 90 89 88 92 92 82 89 91 82 92 87 84 85 85 84 84 84 84 85 93
81 72 74 75 74 80 81 84 89 85 78 87 85 88 91 93 93 93 94 95 95 89 87 91 89 87 90 89 92 92 90 92 91 87 82 90 88 92 94 90 91 90 86 86 85 89 93 97 99
76 80 79 75 75 78 80 85 83 83 86 92 91 92 92 91 93 94 94 95 95 94 88 92 94 84 89 95 96 89 87 91 89 85 91 91 89 94 94 94 92 92 90 94 75 96 95 95 96
79 80 79 77 73 76 81 78 80 83 90 93 93 92 91 93 94 96 96 96 95 94 91 95 92 82 91 93 94 88 91 84 91 94 94 81 86 91 94 93 94 93 91 96 92 96 95 95 97
83 77 76 75 69 74 76 77 81 84 91 90 91 91 93 93 94 94 94 94 93 94 94 94 86 85 92 91 91 88 83 92 91 94 94 91 94 91 92 93 94 95 93 92 91 93 96 97 97
77 71 73 69 70 70 75 72 72 86 90 88 89 91 93 94 95 93 94 93 94 95 94 92 89 93 91 90 91 86 96 92 85 93 92 92 92 91 91 93 94 95 93 93 94 95 97 98 98
74 73 63 67 67 67 69 62 68 85 87 86 90 91 91 93 94 94 96 96 95 94 91 93 96 94 92 91 92 85 86 87 86 94 93 92 90 90 90 93 94 94 94 94 97 96 97 99 98
75 64 63 61 67 65 66 65 69 78 87 87 89 91 91 90 91 94 96 96 95 92 91 92 93 91 92 89 88 89 92 85 87 87 92 91 91 91 94 96 93 90 92 96 95 96 93 96 98
71 69 67 60 63 64 62 64 67 71 83 83 87 89 86 85 90 93 96 97 96 92 92 92 93 90 91 91 90 84 85 86 94 86 86 91 92 91 92 94 92 90 94 94 92 89 96 96 96
72 71 62 67 68 62 59 61 64 73 73 78 83 85 85 85 91 93 96 96 95 93 91 84 85 88 90 90 84 82 84 84 84 84 92 91 92 91 90 87 92 91 81 87 93 91 91 95 96
76 62 61 67 65 61 58 60 63 65 77 78 78 85 86 87 89 92 94 96 96 93 91 82 87 88 89 92 85 86 81 87 84 84 91 92 91 91 92 87 91 83 92 90 91 90 93 96 96
81 69 65 66 63 64 58 56 58 67 73 76 81 84 85 85 88 90 88 94 95 92 91 89 86 87 88 81 91 89 88 89 89 87 92 91 92 92 90 90 88 91 91 91 91 92 90 89 94
72 80 70 68 66 57 69 48 56 61 65 68 74 83 85 89 85 92 91 89 92 93 94 90 89 87 89 89 84 87 86 83 88 90 92 89 92 92 91 91 90 89 75 90 92 95 91 89 91
76 84 64 75 71 67 62 57 53 58 58 66 74 79 86 91 90 90 91 90 91 95 95 93 90 88 89 88 86 88 83 89 92 89 85 88 89 92 93 90 89 89 88 91 90 91 89 94 87
84 80 78 74 71 62 66 64 56 59 62 68 74 81 83 81 93 83 93 88 89 96 96 94 89 87 88 88 87 85 79 80 79 89 89 91 88 91 91 92 90 90 90 90 91 91 90 89 90
80 76 60 53 59 61 70 68 67 70 77 78 77 77 86 85 85 89 87 86 91 92 95 94 89 85 87 87 88 87 87 87 86 87 89 84 85 85 89 90 89 90 89 91 91 89 89 91 90
78 78 59 52 55 58 76 65 63 79 83 81 85 79 81 89 89 89 87 82 94 95 94 94 89 87 87 88 87 88 87 90 91 89 76 93 92 91 87 90 91 90 91 91 90 91 92 92 92
79 73 84 63 71 66 66 76 77 84 82 85 84 80 81 88 92 95 93 93 94 93 93 93 89 88 89 90 88 87 87 87 89 83 89 85 92 91 92 92 90 91 90 91 90 90 90 90 90
83 87 73 75 58 53 60 59 70 73 79 83 85 79 84 86 85 88 96 96 89 96 95 95 92 90 90 91 90 90 89 89 89 89 87 84 74 89 89 91 91 90 90 91 89 90 90 89 91
79 78 80 81 75 62 57 60 80 76 78 79 85 88 82 87 88 91 93 90 95 92 90 94 92 90 90 91 91 91 91 91 90 89 89 90 90 89 88 89 89 89 89 90 88 87 87 89 89
86 81 81 72 68 76 71 59 78 84 83 85 87 89 91 87 89 91 93 92 91 90 89 88 92 91 91 89 89 90 91 91 91 89 89 90 88 89 88 89 88 88 89 86 88 88 89 87 87

GFSSGP_sfc_temp_117.txt.gz
Temp
79 83 83 75 61 59 61 72 80 76 77 85 85 82 78 77 73 59 82 82 82 80 81 82 82 83 83 83 83 83 83 83 83 83 83 83 83 83 83 83 84 83 84 84 84 84 84 84 84
83 87 80 68 58 57 64 76 73 75 81 84 83 80 76 71 82 79 79 84 83 82 80 81 82 83 83 83 83 83 83 83 83 83 83 83 83 84 84 84 84 84 84 84 84 84 84 84 84
82 86 68 61 60 58 64 77 76 79 86 83 79 84 80 75 83 81 85 85 84 80 79 80 82 83 83 83 83 83 83 83 83 83 84 84 84 84 84 84 84 84 84 84 84 84 84 84 84
80 75 66 59 59 70 75 79 82 80 83 84 82 75 83 85 82 83 88 84 80 78 79 81 83 83 83 83 83 83 83 84 83 83 84 84 84 84 84 84 84 84 84 84 84 84 84 84 83
79 69 60 57 64 71 81 79 79 77 80 79 81 73 73 82 84 86 85 83 79 78 80 81 83 83 83 83 83 83 83 84 83 83 84 84 84 85 84 84 85 84 84 84 84 84 84 83 83
69 68 57 56 62 69 77 73 80 76 80 81 77 75 74 84 83 83 86 83 83 80 79 81 83 83 83 84 83 83 84 83 83 84 84 84 84 84 84 85 85 85 85 84 84 83 83 83 83
71 63 61 61 61 66 74 75 77 77 79 79 82 71 77 82 86 88 87 86 84 82 80 79 80 83 84 83 84 83 83 83 83 84 84 84 83 85 85 85 85 85 85 84 84 83 83 83 83
74 66 65 64 60 62 75 79 81 81 77 88 85 72 71 81 86 89 87 85 78 80 79 78 79 78 77 79 84 84 84 84 84 84 84 84 84 85 85 84 84 85 85 84 84 83 83 83 83
84 61 61 63 63 66 73 76 80 87 82 84 87 82 85 87 88 83 80 78 76 78 77 76 80 77 76 77 82 83 84 83 82 81 82 80 78 79 81 83 85 85 85 85 84 83 83 83 83
71 61 66 67 72 68 70 76 81 76 77 80 82 85 89 85 83 81 79 74 74 73 76 73 78 79 78 84 77 76 78 73 71 72 73 72 74 75 81 82 85 85 84 84 84 84 84 84 79
76 65 75 72 74 73 70 73 83 73 72 80 79 83 87 84 81 83 79 79 75 75 73 77 81 80 78 79 72 71 73 71 70 71 70 70 71 76 76 75 78 77 82 76 78 81 78 80 80
71 78 79 77 75 73 69 71 71 77 79 85 86 87 87 83 81 82 81 80 79 79 79 82 80 77 80 75 74 71 69 71 68 69 71 69 70 74 75 74 73 73 71 71 71 72 79 79 79
73 76 77 78 73 72 70 68 73 78 84 88 88 89 84 83 85 84 83 82 80 79 81 81 82 79 83 79 76 74 68 70 71 71 71 71 72 73 74 73 72 72 73 72 74 74 78 79 84
76 70 74 73 71 71 68 66 75 78 85 86 86 85 84 83 87 84 84 81 80 80 80 79 81 81 82 80 77 73 70 72 70 70 70 70 71 77 78 73 75 72 72 73 76 77 78 79 81
76 68 70 69 68 69 69 63 71 79 86 83 84 84 87 85 88 82 83 81 81 80 81 78 80 81 82 78 79 73 74 73 71 73 72 78 77 81 76 73 76 74 74 77 79 80 80 79 82
68 66 58 66 68 67 68 60 72 80 83 80 82 84 87 86 87 85 85 85 81 80 77 80 87 81 79 81 78 79 78 83 82 79 79 81 81 80 76 76 74 77 78 80 78 80 80 78 77
62 55 57 59 65 65 64 63 72 77 83 79 81 83 85 84 82 86 86 84 82 79 79 79 79 79 76 75 77 77 80 78 81 80 79 80 81 81 77 76 75 75 76 73 73 77 77 77 77
53 55 60 57 61 62 60 59 65 70 73 78 80 84 79 82 80 87 84 85 83 80 82 80 79 77 77 77 75 78 77 78 78 81 79 79 79 82 79 75 71 71 72 74 75 78 77 78 78
71 65 58 59 63 60 59 58 62 66 69 70 78 81 78 82 85 85 84 85 83 81 82 80 76 75 77 74 71 72 75 74 77 78 81 80 80 82 77 72 75 71 71 71 75 75 77 77 77
68 62 57 60 62 61 57 57 61 65 66 68 69 78 79 80 79 82 82 83 82 78 81 76 79 76 76 75 75 75 74 75 77 77 79 78 80 80 76 74 72 69 71 73 76 76 75 75 72
63 62 59 58 60 60 57 55 57 64 65 68 70 76 81 80 75 80 83 82 80 79 79 77 77 76 75 74 73 73 75 74 74 75 75 78 81 81 77 75 72 71 71 70 73 76 75 73 73
58 65 64 59 57 51 58 47 55 59 60 64 67 69 76 76 81 79 81 80 79 79 80 78 77 76 77 75 73 73 73 70 73 75 77 78 80 81 81 76 73 72 68 71 72 77 76 74 70
61 65 64 62 55 54 54 50 54 58 57 60 65 70 75 76 83 78 82 81 81 81 80 80 77 75 76 75 75 71 72 73 73 75 76 76 78 80 82 78 75 72 71 74 73 78 74 70 68
71 65 59 58 55 47 55 53 51 53 58 62 67 70 73 73 78 82 79 83 81 83 81 79 77 75 75 75 75 74 72 72 72 73 73 74 76 77 79 80 76 75 75 73 75 76 77 72 67
68 60 47 44 46 47 57 53 56 61 66 69 70 69 72 72 76 78 76 75 80 79 80 79 75 74 75 76 75 75 74 72 73 73 72 72 73 74 76 76 75 75 76 77 77 77 77 75 73
64 61 49 43 45 49 54 50 57 68 70 73 73 74 76 73 80 79 78 77 78 79 77 80 76 73 75 76 75 74 73 72 73 74 73 71 73 75 77 77 77 78 78 79 77 77 76 77 76
67 58 67 49 52 49 52 56 60 68 69 71 71 74 74 77 77 79 77 79 75 79 75 78 75 75 75 76 75 75 75 75 74 75 73 73 75 77 75 75 77 79 78 79 78 76 76 77 77
65 75 58 54 44 43 50 48 50 57 67 71 73 74 76 73 73 76 76 79 77 80 77 79 77 77 77 76 76 77 76 76 75 74 72 73 74 73 73 74 74 77 79 79 77 75 76 76 77
64 60 59 61 57 47 46 50 60 62 66 66 70 76 77 76 74 75 74 78 79 80 80 81 79 76 77 78 77 76 76 77 77 76 76 74 73 72 72 74 74 77 78 78 77 76 77 76 75
71 62 62 51 51 57 52 55 71 67 68 71 70 74 79 77 77 79 76 76 76 74 77 76 78 77 78 77 78 76 76 77 76 76 77 74 71 71 75 75 76 77 77 77 76 77 77 76 75

GFSSGP_sfc_temp_120.txt.gz
Temp
79 82 82 73 60 59 62 67 76 73 76 80 83 78 74 74 69 57 76 78 79 78 80 81 82 83 83 82 82 82 83 83 83 83 83 83 83 83 83 83 83 84 84 84 84 84 84 84 83
80 84 78 67 57 57 60 72 69 74 78 81 79 77 73 67 75 71 72 79 80 79 79 80 81 82 82 82 82 83 83 83 83 83 83 83 83 83 83 84 84 84 84 84 84 84 84 84 83
83 84 66 60 57 57 60 71 73 77 81 80 77 80 75 68 75 75 78 79 80 77 76 80 82 82 83 83 83 83 83 83 83 83 83 83 84 84 84 84 84 84 84 84 84 84 84 84 84
75 71 65 59 58 65 70 73 78 77 79 81 78 71 77 82 79 79 81 80 76 75 75 81 83 83 83 83 83 83 83 83 83 83 84 84 83 84 84 84 84 84 84 84 84 84 84 84 84
73 66 57 56 62 69 75 79 79 74 76 75 77 70 69 79 82 80 77 78 75 74 77 80 83 83 83 83 83 83 83 83 83 83 84 84 84 84 84 84 84 84 84 84 84 84 84 84 84
67 65 55 54 62 69 73 76 80 77 76 74 72 71 68 79 78 78 78 75 78 77 78 81 82 83 83 83 83 83 83 83 83 84 84 84 84 84 84 84 84 84 84 84 84 84 83 84 84
65 62 57 61 61 66 71 77 74 75 74 74 78 68 70 75 79 77 77 78 78 78 77 77 79 82 84 83 83 83 83 83 83 84 84 84 84 84 84 84 85 84 84 84 84 83 83 83 84
73 66 61 64 60 61 72 75 80 77 73 83 81 68 66 76 82 78 80 78 76 77 77 75 76 76 76 79 84 83 83 82 84 84 84 83 85 85 84 83 84 84 84 84 83 83 83 83 83
80 62 57 58 61 64 75 73 81 83 78 80 82 78 79 82 81 76 75 74 73 75 73 74 74 73 74 76 81 82 84 84 83 83 83 76 74 76 79 83 84 84 84 84 83 83 83 83 83
69 59 64 66 69 67 71 76 78 77 77 77 78 81 82 81 79 75 73 71 72 72 73 73 74 73 75 82 74 74 74 71 72 72 72 71 72 73 79 81 84 84 84 84 84 84 84 84 77
72 63 72 68 72 73 71 73 81 75 68 77 73 76 79 79 77 75 75 74 74 74 73 74 75 73 74 73 71 72 71 69 70 71 70 71 71 71 75 73 75 74 81 74 75 78 77 78 77
70 77 76 72 75 72 71 73 72 72 75 82 80 81 80 78 78 75 76 73 73 73 75 76 76 73 73 72 70 70 68 69 69 70 71 70 70 71 72 73 73 72 71 71 70 72 75 75 77
71 72 74 73 71 71 71 67 68 69 79 84 83 81 79 78 79 79 80 77 75 74 76 77 77 74 74 72 71 69 68 68 70 70 70 70 70 70 73 72 72 71 71 71 71 74 73 75 77
72 71 69 71 70 70 67 65 66 74 84 84 83 81 79 79 79 78 78 77 76 78 76 78 77 77 76 71 71 69 68 69 70 70 71 71 70 71 72 70 72 70 70 71 73 73 75 76 77
73 66 67 67 68 68 70 63 63 76 83 82 81 81 80 83 81 79 79 77 78 78 77 76 77 79 77 74 72 70 70 71 70 70 70 71 71 73 73 72 72 71 72 74 75 79 78 76 78
70 65 57 64 67 67 68 57 68 76 76 76 79 81 81 81 81 81 80 79 79 77 76 77 84 78 76 76 73 71 71 71 70 70 71 73 75 77 74 71 72 74 74 73 74 75 74 75 73
59 54 57 58 64 65 64 61 65 72 79 76 77 78 79 80 80 80 81 80 79 77 76 76 76 76 76 73 75 74 73 74 74 73 74 77 79 78 73 73 73 73 72 72 73 74 74 73 73
55 55 59 56 60 62 60 62 65 66 73 75 76 78 80 78 80 80 79 81 79 78 78 76 74 75 75 74 73 73 74 77 78 77 76 77 77 76 72 72 72 70 72 72 72 74 75 74 75
64 59 58 59 62 59 59 59 62 65 67 69 69 74 79 78 79 80 81 80 79 78 76 75 73 73 73 72 71 71 72 73 76 77 78 77 76 76 73 70 71 70 70 71 72 72 74 74 72
65 62 58 60 62 60 57 57 60 63 67 66 68 73 77 74 75 78 79 79 79 77 75 75 74 73 73 73 72 73 72 72 73 76 76 76 77 75 74 72 69 71 72 72 73 73 73 73 71
63 61 57 58 60 61 57 54 56 64 66 68 69 72 77 75 75 76 77 78 78 77 76 77 74 73 73 74 72 72 72 72 72 72 73 75 78 76 74 74 70 71 69 70 71 73 73 71 72
52 70 64 59 56 50 58 47 54 59 61 65 67 67 70 74 76 77 77 76 78 78 78 77 75 73 73 73 71 72 71 69 71 72 74 76 78 76 75 74 73 71 67 71 72 75 73 71 68
58 68 64 62 55 54 53 49 53 58 57 61 66 69 71 73 77 76 78 78 78 79 79 78 75 73 73 72 72 70 70 70 71 73 74 74 73 77 77 75 73 70 69 72 73 74 70 69 67
68 62 58 58 53 46 53 51 51 53 59 64 67 70 72 72 77 78 79 79 77 79 79 76 74 72 73 74 73 71 71 71 70 71 71 72 73 74 76 76 73 72 73 73 74 75 72 68 67
63 55 46 45 44 45 54 52 55 63 67 68 69 70 71 71 75 76 75 76 76 76 77 77 73 71 73 73 73 72 71 72 72 72 71 71 71 72 74 74 73 73 74 75 75 75 73 72 71
59 55 47 41 44 48 54 48 54 68 68 72 75 72 72 72 75 74 77 76 77 77 75 77 73 72 72 73 73 72 72 70 71 72 72 71 72 73 75 75 75 75 76 76 75 74 74 74 74
60 54 61 47 48 48 50 55 61 64 66 67 71 70 69 72 73 74 77 77 76 77 75 75 72 73 72 74 73 72 72 72 72 73 72 71 72 75 74 75 75 76 76 76 75 73 73 73 73
64 66 52 47 41 42 48 49 51 61 63 66 69 70 72 72 70 72 75 77 77 78 78 77 74 74 74 72 74 74 73 73 73 72 71 72 73 73 73 73 74 75 75 76 74 73 74 74 74
61 57 56 53 49 45 43 48 59 62 64 65 68 72 72 74 72 75 73 74 76 77 77 77 76 75 74 74 73 73 73 74 74 73 72 72 72 71 72 72 73 75 75 73 74 73 74 74 74
62 58 53 48 48 47 51 53 67 64 66 69 70 73 75 78 75 73 75 73 72 73 74 76 77 74 76 76 73 73 73 73 74 74 74 73 72 71 72 71 73 73 75 74 74 74 76 74 74

GFSSGP_sfc_temp_123.txt.gz
Temp
79 80 79 71 59 57 59 63 72 69 70 77 78 73 69 69 67 56 72 76 77 76 78 80 81 83 82 82 82 83 82 83 82 83 83 83 83 83 83 83 83 83 83 83 84 84 83 83 83
78 80 76 65 56 55 56 68 67 72 75 78 77 75 70 65 71 68 69 77 78 77 76 78 81 82 82 82 82 83 83 83 83 83 83 83 83 83 83 83 83 84 84 84 84 84 84 83 83
81 81 66 60 58 55 58 70 70 74 79 77 74 77 71 66 71 72 74 78 77 75 75 77 82 82 82 82 82 83 83 83 82 82 83 83 83 83 83 84 84 84 84 84 84 84 84 84 84
76 69 66 58 59 65 68 70 75 74 76 77 74 68 74 77 75 75 78 77 74 74 75 80 82 83 83 82 83 83 83 83 83 83 83 84 84 84 84 84 84 84 84 84 84 84 83 83 84
73 66 57 57 62 66 74 75 76 72 73 73 74 66 67 75 78 77 76 76 73 72 75 79 82 82 83 82 83 83 82 83 83 83 83 83 84 84 84 84 84 84 84 84 84 84 84 83 84
65 64 55 56 61 67 73 76 77 72 72 72 70 67 66 76 76 75 76 74 76 74 75 78 82 83 83 83 83 83 83 83 83 84 84 84 84 84 84 84 84 84 84 84 84 84 84 84 83
65 60 57 59 61 66 71 79 73 72 72 71 76 63 66 71 75 74 74 76 76 76 75 75 77 81 83 83 83 83 83 83 83 83 83 83 83 84 84 84 84 84 84 84 84 83 83 84 83
71 65 61 61 60 60 71 76 77 74 70 80 78 63 63 71 74 74 75 73 73 74 74 73 74 76 76 78 83 83 83 83 84 83 83 84 84 84 84 83 84 84 84 84 84 83 83 83 83
74 60 57 58 59 64 73 74 78 82 76 77 80 74 75 75 75 74 71 70 71 73 72 72 73 73 74 75 80 82 83 83 84 83 82 77 74 76 78 82 84 84 84 84 83 84 84 84 82
67 58 60 67 68 64 69 75 74 74 73 73 74 77 77 74 74 71 70 68 69 70 71 72 72 72 73 80 73 72 74 73 74 73 72 71 72 73 78 81 84 84 84 83 83 83 83 81 76
69 64 70 67 70 70 68 74 78 73 69 73 69 72 73 74 71 72 71 70 70 72 72 71 71 72 72 72 72 71 70 71 70 70 70 71 71 71 73 72 73 73 79 74 74 75 75 75 75
67 75 71 70 72 71 69 74 71 74 74 79 76 76 75 73 72 73 72 72 71 70 73 73 72 71 71 70 71 70 68 69 68 68 70 69 70 70 71 72 72 72 71 70 69 71 74 75 76
68 72 70 70 71 71 71 68 67 70 78 79 78 77 75 75 74 75 76 73 72 72 73 73 73 71 71 70 70 68 67 68 69 69 70 70 70 70 71 71 70 69 70 70 72 72 72 73 75
71 69 68 67 66 68 67 64 67 74 77 78 76 75 75 75 74 74 75 74 72 73 73 74 75 72 72 69 69 67 67 68 69 68 69 70 70 70 71 70 71 70 70 70 72 72 73 74 75
70 64 66 66 66 65 70 61 62 71 77 76 76 76 76 76 77 75 76 74 74 73 74 74 74 74 71 70 69 67 68 69 68 69 70 71 71 71 71 70 71 71 71 72 73 74 74 74 76
66 64 57 63 65 66 65 57 65 70 76 74 76 75 76 76 78 78 78 76 75 74 74 75 81 75 72 71 70 68 69 69 69 69 70 72 73 72 71 71 71 73 72 71 72 72 73 73 71
57 52 57 59 64 63 63 58 63 70 77 75 76 77 75 76 76 78 78 77 75 76 74 73 74 73 73 70 70 70 71 70 71 70 71 73 75 74 72 71 72 72 71 72 72 72 72 72 72
52 53 58 56 60 60 60 58 63 64 68 73 75 75 75 74 75 78 78 78 76 75 74 74 73 73 72 71 70 70 70 72 72 71 72 75 75 74 71 71 71 70 70 71 72 72 72 72 72
60 58 56 59 61 59 58 59 61 62 64 67 69 73 73 74 77 79 78 78 76 76 72 72 72 70 72 70 68 68 69 72 72 74 75 75 76 75 71 69 70 70 71 71 73 71 72 70 70
62 57 56 60 61 59 57 57 60 63 64 66 66 71 74 75 74 75 76 77 76 75 73 71 72 71 72 72 71 70 70 70 73 76 73 74 75 75 73 71 68 70 71 72 72 72 70 70 69
57 56 57 57 59 60 57 54 56 61 65 66 68 69 75 73 72 73 75 75 76 75 72 72 71 72 72 72 71 70 71 71 70 71 71 73 76 75 74 71 69 70 68 71 71 73 72 69 69
48 65 63 61 55 50 58 46 54 57 60 63 65 66 72 72 74 74 75 74 76 76 75 72 71 71 72 72 71 71 70 68 69 70 72 73 75 75 74 73 71 70 67 71 72 73 71 69 68
60 66 62 60 54 54 53 49 53 57 55 60 63 66 69 75 74 74 75 76 77 77 76 74 72 71 71 71 71 70 69 69 70 70 72 72 72 74 75 74 72 69 69 72 73 72 69 69 68
67 59 59 57 53 43 53 51 52 53 58 62 66 70 69 72 74 76 78 77 77 78 77 74 72 71 71 71 70 70 70 70 69 69 70 71 71 72 74 74 71 70 71 72 73 72 71 68 68
60 50 44 44 43 42 52 50 54 62 64 66 65 70 70 73 75 74 74 74 74 75 75 74 72 70 70 72 72 71 71 70 71 70 69 69 70 70 72 73 72 71 72 73 73 72 72 69 70
56 54 49 41 42 46 53 48 54 67 71 71 71 72 70 71 76 73 74 74 74 75 74 75 72 72 70 72 71 70 71 70 70 71 70 70 71 72 74 73 73 73 74 74 73 72 72 72 72
57 51 57 49 46 44 49 56 62 65 67 68 69 70 69 71 73 73 75 75 74 75 74 75 72 71 70 71 71 71 70 70 70 71 71 70 71 73 73 74 74 74 74 74 73 72 72 72 72
61 64 50 49 41 38 47 49 50 59 60 63 67 68 69 70 70 71 74 75 75 76 75 75 72 73 73 71 72 72 71 71 70 71 71 71 71 73 73 73 72 74 74 74 73 72 72 72 72
58 53 50 50 47 43 44 47 57 60 61 62 65 69 70 71 70 73 71 75 75 76 75 74 73 73 71 71 71 71 71 71 72 72 71 70 72 71 71 71 72 73 74 74 73 72 72 72 72
64 55 51 48 46 45 49 51 63 62 63 66 66 70 73 73 73 72 73 70 72 74 74 75 74 73 75 74 71 71 71 71 72 72 72 70 71 71 70 70 70 73 73 73 72 73 74 73 72

GFSSGP_sfc_temp_126.txt.gz
Temp
78 79 77 70 58 56 55 61 69 65 66 73 75 71 67 66 64 56 69 74 76 75 77 80 82 82 82 82 82 82 82 82 83 83 83 83 83 82 82 83 83 82 83 84 84 84 83 84 82
77 79 74 64 55 51 55 66 64 69 72 76 74 72 67 62 69 66 68 75 76 76 76 78 81 82 82 82 82 82 83 83 83 83 83 83 83 83 83 83 83 83 83 84 84 84 84 83 83
80 80 65 60 55 52 55 66 67 71 77 74 71 74 69 64 69 70 72 76 76 74 75 77 82 82 82 82 82 83 83 83 82 83 83 83 83 83 83 83 84 84 83 82 83 84 84 84 83
75 70 67 57 56 63 64 68 72 72 74 74 72 66 71 75 73 73 76 75 73 73 75 80 82 82 82 82 83 83 83 83 83 83 83 83 84 84 84 84 84 84 84 82 83 84 83 84 83
73 66 59 58 61 64 71 73 73 70 70 71 72 64 64 73 75 75 74 74 73 73 75 78 82 83 83 83 83 83 83 83 83 83 83 84 84 84 84 84 84 84 84 84 83 83 83 84 84
63 65 57 53 59 66 71 73 73 70 70 70 68 65 64 72 73 73 74 72 75 73 75 78 82 82 82 83 83 83 83 83 83 83 83 84 84 83 84 84 84 84 84 84 84 84 84 84 84
64 60 56 60 61 65 69 75 71 70 69 69 73 62 66 69 72 73 72 74 74 75 74 75 78 81 83 83 83 83 83 83 84 83 83 83 84 84 84 84 84 84 84 84 84 84 84 83 83
68 62 60 60 60 60 69 75 75 72 68 77 74 62 62 68 71 73 73 72 72 73 74 73 75 76 76 78 83 83 83 83 83 83 84 84 84 84 84 82 84 84 84 84 84 84 83 83 84
73 60 57 59 60 62 69 70 75 78 73 75 77 71 72 72 73 71 69 71 72 73 72 72 73 74 75 76 79 82 82 83 83 82 80 77 75 77 79 83 84 84 84 84 84 84 84 82 83
65 57 63 68 66 64 67 71 72 71 71 69 68 71 72 72 71 68 69 70 71 71 71 72 72 72 74 77 74 75 75 75 73 73 73 73 74 75 79 81 83 84 83 82 82 82 82 80 79
66 63 68 68 68 68 67 71 76 70 66 69 66 67 70 71 70 69 69 69 70 70 71 71 72 73 72 73 72 71 72 71 70 71 72 72 73 74 74 74 74 75 78 75 75 76 76 78 78
65 71 71 68 72 70 69 72 70 72 73 75 72 71 71 70 69 70 69 69 70 70 71 72 72 71 72 71 71 70 71 71 69 70 71 71 71 73 73 73 73 72 73 73 74 74 76 77 78
66 69 66 68 70 70 70 67 66 71 77 76 75 72 71 70 70 72 73 71 70 69 71 71 72 71 70 70 70 69 69 69 70 71 72 72 72 72 73 72 72 72 73 73 74 75 76 77 78
67 66 67 66 66 68 66 65 66 72 77 75 73 71 71 71 71 72 73 70 70 71 71 72 72 72 71 70 70 68 68 69 70 70 71 73 72 72 73 73 73 72 73 73 74 75 76 77 77
67 62 64 64 65 64 68 60 61 67 73 72 72 72 72 73 74 73 73 72 72 72 73 72 72 73 71 70 70 69 68 70 69 70 72 73 73 73 73 72 73 74 74 75 76 77 77 78 79
62 62 55 62 66 66 65 56 64 68 67 70 73 73 73 72 74 75 75 74 73 73 72 72 79 73 71 70 70 68 69 70 70 70 72 74 75 74 74 73 73 75 75 74 76 75 75 75 75
56 50 54 58 64 65 62 58 64 66 66 70 72 72 72 71 73 75 77 75 73 73 72 72 75 72 72 71 70 70 71 71 71 71 72 75 76 76 74 73 74 75 74 73 75 75 75 75 75
51 51 57 55 59 61 59 58 62 64 67 70 72 72 71 71 74 76 76 76 74 73 73 72 72 71 71 70 70 70 71 72 72 72 74 76 75 76 73 73 74 74 75 76 75 75 74 75 75
58 56 54 58 61 59 57 59 60 63 64 66 69 72 70 72 75 75 76 75 74 73 72 71 70 70 71 70 69 69 70 71 73 73 76 75 75 75 72 71 74 73 74 75 76 75 74 74 74
60 56 55 59 60 59 57 57 60 62 63 64 66 70 71 71 70 75 74 74 73 73 71 70 70 70 71 71 71 71 71 71 74 75 75 75 76 75 72 72 72 74 73 75 76 75 74 73 72
54 55 54 57 59 61 58 54 56 60 62 64 67 70 71 71 70 71 72 73 73 72 71 70 70 71 71 72 71 71 72 71 72 72 73 75 76 77 74 71 72 73 72 74 75 76 75 73 74
49 64 62 59 55 50 58 46 53 57 59 62 66 66 67 72 73 73 73 72 73 73 73 71 71 70 72 72 71 71 71 70 70 72 73 75 77 77 76 74 73 72 72 75 75 75 74 73 73
58 64 61 60 53 53 53 48 53 55 55 59 63 65 66 72 73 72 73 75 75 75 73 72 70 70 71 71 72 71 70 71 71 72 73 73 75 75 76 75 74 72 73 75 76 75 73 72 72
65 59 55 53 52 44 52 50 50 52 56 61 63 67 67 70 73 73 75 77 74 75 74 72 71 70 71 71 71 71 71 70 70 71 71 73 73 74 75 75 74 72 73 75 76 75 74 73 73
58 49 41 39 42 42 49 48 53 60 62 65 65 66 68 71 73 72 72 74 73 73 74 72 71 70 70 71 71 71 71 71 71 71 71 71 72 73 73 74 74 73 74 75 76 76 74 73 74
54 50 42 38 42 44 51 47 54 64 67 69 73 70 69 69 73 73 74 74 73 74 73 74 71 71 70 71 71 71 71 72 71 72 72 72 73 74 76 75 75 75 75 76 76 75 76 76 75
56 50 53 46 48 43 46 53 62 63 63 67 68 69 68 70 72 73 74 74 74 74 73 73 71 72 71 71 71 71 71 72 71 72 73 72 73 75 75 75 75 75 75 76 75 76 76 76 75
59 61 48 47 43 40 46 48 50 56 60 64 66 67 70 71 72 73 75 74 74 76 75 75 73 73 73 72 72 73 72 72 72 73 72 73 73 74 75 75 75 75 76 76 75 75 76 75 76
55 52 48 50 46 42 42 46 57 55 59 63 66 69 70 71 73 73 74 73 74 75 74 74 73 72 72 72 72 72 73 73 72 73 73 73 73 73 74 75 75 75 74 75 75 75 75 75 75
56 50 50 48 48 44 47 49 62 59 62 64 65 68 71 72 72 73 75 71 70 71 72 72 73 73 74 73 72 72 72 73 73 73 74 73 72 73 73 73 73 73 75 75 75 75 77 75 75

GFSSGP_sfc_temp_129.txt.gz
Temp
83 84 82 76 69 70 64 67 75 71 72 80 80 76 73 72 70 67 82 83 85 86 86 85 82 82 82 82 82 82 82 83 83 83 83 83 83 83 83 83 83 83 84 84 84 83 82 83 83
84 81 80 71 67 63 64 72 71 74 79 82 79 77 73 67 74 74 78 84 86 87 88 87 81 82 82 82 82 82 83 83 83 83 83 83 83 82 83 83 83 83 84 84 84 84 84 83 83
82 82 69 67 66 62 64 72 75 78 81 79 74 78 74 69 74 78 83 84 86 85 87 86 82 82 82 82 83 83 83 82 82 83 83 83 83 82 83 83 82 83 83 83 84 84 84 83 84
80 75 73 64 65 69 69 75 78 77 79 79 78 71 76 80 79 81 84 85 85 85 88 84 82 82 82 83 83 83 83 82 82 82 82 83 84 84 84 83 83 83 83 84 83 84 83 83 84
78 71 65 64 65 71 76 78 80 76 75 75 77 70 72 77 82 83 83 85 85 86 88 88 82 83 83 83 83 83 83 83 83 83 84 83 83 84 84 84 84 83 84 84 82 83 84 84 83
70 70 65 60 64 72 76 79 78 75 75 75 74 73 70 79 80 82 84 84 87 86 87 88 83 83 82 83 83 83 83 83 82 82 84 84 84 83 84 84 84 84 84 84 84 84 84 84 83
71 66 62 64 64 68 72 80 76 76 75 74 79 70 71 75 81 82 83 85 86 86 86 87 87 85 83 83 82 83 83 83 82 82 83 83 84 84 84 84 84 84 84 84 84 84 84 83 83
75 71 63 63 60 64 73 77 78 77 72 81 82 71 69 76 80 82 84 83 84 84 85 85 86 87 84 87 83 83 83 82 83 83 83 84 84 84 84 83 84 84 84 84 84 84 83 84 83
78 64 59 61 61 63 74 74 79 81 77 79 79 79 81 79 81 81 79 80 82 82 82 82 85 85 82 79 82 83 82 82 83 82 81 82 86 86 88 84 84 85 85 84 84 84 83 83 84
74 67 67 71 67 64 71 74 74 75 76 72 73 77 79 79 79 79 78 78 78 80 81 82 81 82 83 81 81 80 79 81 80 82 83 84 85 84 87 85 83 82 83 82 82 83 83 85 92
73 67 70 71 71 69 70 73 79 75 72 75 73 75 77 78 78 79 80 79 79 79 81 83 81 80 81 75 78 74 84 83 83 82 82 83 84 85 87 86 87 88 83 91 90 90 92 88 92
71 73 74 71 72 69 69 76 74 74 74 80 80 80 78 77 78 80 80 80 79 80 81 83 83 77 74 74 79 82 83 85 84 83 81 82 85 85 84 86 85 85 88 86 88 92 88 88 88
74 72 71 74 73 70 70 68 73 71 78 80 80 78 78 79 80 81 83 82 81 80 81 82 82 79 77 74 80 77 76 84 84 84 82 84 85 84 86 84 86 86 88 88 88 88 89 88 89
73 72 71 72 72 71 65 65 69 69 79 78 77 78 79 79 81 80 80 80 80 81 82 82 81 81 81 79 79 81 82 83 84 84 84 82 85 84 86 86 87 87 87 88 88 88 89 90 92
74 67 70 69 69 66 68 60 62 67 75 76 76 78 79 79 81 80 81 81 82 83 83 81 82 82 81 80 81 82 83 85 84 84 82 83 84 84 84 86 87 87 87 86 88 89 90 92 93
69 69 62 65 68 68 68 58 62 68 67 74 77 77 78 80 81 82 83 83 83 84 81 82 85 82 81 81 81 82 82 83 84 85 85 84 84 83 84 87 87 87 88 89 89 90 90 91 91
67 63 61 61 67 65 66 61 67 67 67 72 76 78 79 79 81 82 83 84 84 83 82 81 83 81 81 79 81 80 80 83 84 85 86 83 85 84 86 87 87 86 89 88 89 88 89 89 90
62 62 62 61 64 65 62 59 62 64 65 67 75 78 79 80 81 83 84 85 84 83 83 82 83 81 80 80 79 81 83 83 84 85 86 84 86 85 85 87 86 87 89 89 88 85 87 89 90
69 66 62 62 65 64 61 61 62 64 63 67 72 78 79 80 85 85 85 85 84 83 82 81 80 80 80 80 80 81 82 83 84 85 84 84 84 83 82 86 86 86 86 84 86 87 85 87 88
68 65 62 64 63 65 62 62 62 64 67 72 72 77 79 81 82 82 83 84 84 82 82 80 80 79 80 82 82 83 83 84 85 85 84 85 85 85 84 83 85 85 88 85 85 86 88 87 86
66 65 65 65 64 62 61 61 60 63 63 68 74 77 80 81 81 82 82 83 84 82 81 80 80 79 80 82 82 81 81 79 80 80 84 85 85 84 82 83 84 84 86 88 85 86 85 87 86
65 71 68 63 63 58 64 50 60 65 64 64 72 75 78 80 82 83 82 82 83 83 83 81 80 80 81 81 82 80 83 82 83 84 81 85 84 84 84 82 83 83 86 85 86 87 86 85 86
68 71 67 66 62 60 56 56 61 64 62 63 67 74 79 81 83 82 83 84 85 84 83 83 80 79 81 80 82 83 82 85 84 84 81 82 83 85 85 83 83 83 86 85 85 84 84 87 87
72 67 64 64 61 53 61 59 62 58 65 69 71 74 78 81 82 83 85 85 84 84 84 82 80 78 80 80 81 81 81 81 82 82 83 85 85 86 83 84 83 82 83 83 86 83 83 85 84
72 67 55 51 52 53 60 56 64 69 71 74 72 73 77 81 82 82 81 82 82 81 82 82 79 78 80 80 81 81 82 81 80 81 83 83 84 85 83 83 82 84 83 84 84 84 83 83 85
69 70 60 48 51 56 58 55 66 72 76 77 78 78 75 79 83 82 82 83 82 82 82 82 80 79 80 80 80 81 81 85 85 83 85 85 86 87 84 84 84 84 84 84 84 86 87 85 86
65 63 67 58 59 55 61 63 69 73 72 73 74 74 74 76 80 82 82 83 83 83 82 82 80 80 81 82 81 80 81 82 83 82 83 85 84 86 85 85 84 85 84 84 84 86 84 85 85
71 72 60 61 50 50 59 59 60 63 65 69 72 72 75 73 78 81 82 83 83 85 85 84 83 81 82 83 82 83 83 82 83 83 82 83 81 82 84 83 84 84 84 84 83 84 85 83 86
65 66 66 64 62 55 55 60 65 62 65 65 72 73 75 72 76 76 80 83 83 85 84 83 82 81 81 82 82 83 83 83 82 82 83 83 83 82 82 82 83 83 83 84 83 83 84 83 83
70 67 70 63 58 60 59 62 68 66 68 71 73 76 78 78 76 75 77 80 80 81 82 81 83 82 83 83 81 82 82 83 83 82 83 82 82 83 83 83 82 83 82 82 82 83 85 82 83

GFSSGP_sfc_temp_132.txt.gz
Temp
86 93 95 87 77 81 72 74 84 79 79 86 87 83 81 81 77 70 93 93 94 95 93 89 82 83 83 83 82 82 83 83 83 83 82 83 83 83 83 83 84 84 84 83 83 83 83 83 83
95 89 86 85 77 71 72 80 78 81 85 88 86 84 82 75 85 85 87 93 95 96 97 94 81 82 83 83 83 83 84 83 83 83 83 83 83 83 83 83 84 84 83 84 84 82 83 83 83
88 88 81 81 81 72 72 81 82 84 87 85 80 86 82 77 86 87 93 94 96 96 97 89 82 82 83 83 83 83 83 84 83 83 83 83 83 84 84 84 84 84 84 84 84 84 84 84 84
89 79 80 72 72 76 79 84 86 83 85 85 85 77 83 90 87 92 94 95 96 96 97 86 82 83 83 83 84 83 83 82 83 83 83 84 84 84 84 84 84 84 84 84 84 83 83 84 84
90 78 69 72 73 80 85 86 87 83 82 82 85 78 78 85 91 93 93 95 95 97 96 93 83 83 83 83 83 83 83 83 83 84 83 84 84 84 84 84 84 83 83 84 84 84 84 84 84
82 83 72 68 72 79 84 87 85 82 83 82 83 81 78 89 90 92 95 95 97 97 98 93 84 83 83 84 83 83 83 84 83 83 84 84 84 84 84 84 84 85 85 85 85 84 84 84 83
82 79 70 71 70 74 79 87 81 82 83 82 88 79 80 87 91 93 94 95 96 96 96 94 94 87 84 84 84 83 84 82 82 84 84 84 84 84 84 84 85 85 85 85 85 84 84 84 83
88 77 66 69 69 70 79 83 85 83 80 90 91 78 77 86 91 93 94 95 95 95 95 92 95 95 93 91 84 84 84 83 84 84 84 84 85 84 84 84 84 85 85 85 84 84 84 84 83
87 71 63 67 65 71 81 79 84 87 83 86 86 89 89 89 91 91 90 91 91 92 93 88 96 91 87 87 86 84 84 84 83 84 84 86 95 93 91 85 85 85 85 85 85 84 84 84 84
85 76 70 75 71 72 76 80 77 81 82 81 83 88 89 89 89 88 88 88 89 89 91 91 92 89 89 90 86 87 81 84 88 86 89 92 92 90 92 87 84 84 84 84 84 84 84 84 99
82 74 78 77 75 70 77 79 84 82 78 84 81 83 86 87 88 89 90 90 90 91 91 92 87 89 88 81 90 87 83 86 86 88 91 91 92 93 95 92 93 93 86 96 92 92 98 94 100
76 80 80 75 77 75 76 81 79 82 82 87 89 88 87 87 88 90 90 89 90 89 89 92 87 86 83 91 90 89 92 93 92 90 88 89 92 92 93 94 93 93 98 93 96 98 95 96 95
80 78 78 79 79 71 76 75 77 76 85 90 90 88 87 88 89 91 91 91 90 89 90 91 88 85 78 84 91 91 91 93 92 92 89 93 93 91 94 91 95 95 97 96 96 96 96 95 96
83 80 78 79 77 75 67 69 72 72 86 86 87 87 89 89 90 89 89 89 89 89 90 91 89 86 84 84 87 88 91 91 93 93 91 89 94 92 93 93 95 95 97 98 97 95 97 98 98
83 75 77 76 76 72 68 61 64 70 82 84 86 87 88 89 90 88 89 89 90 91 90 88 89 90 87 86 87 90 92 93 92 93 90 90 92 90 91 93 95 96 95 93 95 95 97 98 99
77 78 70 73 75 75 72 58 65 68 73 82 85 86 87 88 89 90 91 91 91 91 88 88 92 90 89 88 88 91 92 93 93 93 93 91 90 90 91 94 95 95 97 98 98 98 97 97 98
77 72 70 67 74 73 72 67 67 69 68 73 85 86 87 87 88 89 91 92 91 90 88 87 89 88 88 86 89 89 88 91 93 93 94 89 91 90 94 95 94 95 98 97 99 97 97 95 97
72 71 71 68 70 73 70 68 71 66 68 68 82 87 87 88 88 90 91 92 92 90 89 85 85 85 86 86 86 90 90 91 92 93 94 90 92 91 91 94 93 96 98 96 96 93 96 98 98
78 74 70 72 73 72 71 70 71 71 68 66 74 84 87 88 92 92 92 92 92 91 88 87 84 83 86 86 87 88 89 89 91 92 90 89 91 89 89 95 93 95 95 91 92 93 91 95 96
77 73 70 72 73 72 70 70 71 71 69 66 70 80 87 90 91 91 91 92 91 89 88 85 84 84 86 88 89 90 90 91 92 92 90 91 91 90 91 90 93 91 95 91 91 91 95 96 97
77 74 72 71 72 74 70 68 67 69 71 67 77 83 89 90 90 90 89 91 91 89 88 86 86 85 86 88 89 87 86 85 88 89 91 91 90 91 89 90 89 91 91 95 93 93 90 94 95
74 79 74 70 70 66 73 65 68 67 68 67 80 82 88 90 91 91 91 90 91 90 90 88 86 85 85 87 87 86 87 86 90 90 91 91 91 90 90 90 89 89 93 91 93 96 91 90 93
75 79 76 74 72 71 72 66 69 68 69 71 76 83 88 90 91 91 91 91 93 92 91 89 87 84 86 86 87 84 87 90 91 91 87 89 88 90 91 89 88 88 91 91 90 90 89 94 92
81 77 74 74 73 64 72 70 68 70 72 78 80 83 87 91 92 92 93 93 93 93 92 90 86 84 85 85 85 84 86 88 89 88 88 91 92 91 89 90 89 89 89 89 91 89 88 89 90
79 76 65 62 63 63 72 68 72 77 80 82 82 82 83 90 92 92 91 91 91 90 90 90 86 83 85 86 87 86 86 86 85 86 89 90 92 93 90 88 88 90 88 89 90 88 89 89 91
76 77 68 52 55 59 69 62 72 81 82 85 87 89 82 87 93 93 91 91 90 90 89 89 87 84 85 86 86 86 85 84 89 88 92 91 93 93 92 90 90 90 89 89 89 91 92 91 91
77 71 82 68 69 66 71 73 78 82 79 81 83 85 82 84 90 92 92 91 91 90 89 89 87 86 86 87 86 86 86 86 90 89 88 90 90 94 91 90 89 90 90 89 89 91 89 90 89
79 84 69 72 54 53 66 69 69 72 74 77 79 82 83 81 79 91 92 92 92 93 92 91 89 87 88 88 88 88 88 87 87 87 86 88 89 88 89 88 89 89 89 89 88 91 89 88 91
75 74 75 75 69 53 56 59 75 70 74 76 79 83 80 81 79 89 91 92 92 93 92 91 90 88 88 89 88 88 89 89 88 85 86 86 86 88 88 88 88 87 88 88 87 87 89 88 88
79 73 75 64 56 68 52 65 77 74 76 79 80 81 84 75 78 85 87 89 90 90 91 89 90 89 89 90 88 88 89 89 90 88 89 89 85 88 87 87 87 88 88 87 87 87 89 86 87

GFSSGP_sfc_temp_135.txt.gz
Temp
87 93 98 92 73 77 74 74 84 82 83 92 91 88 85 85 79 71 97 98 98 94 91 89 82 81 82 82 82 82 83 82 83 83 83 84 83 83 83 84 84 83 83 84 84 84 84 84 83
98 95 93 86 67 69 71 82 78 82 90 92 91 90 86 80 91 90 92 98 97 96 94 93 81 83 83 82 83 83 83 83 83 83 83 84 84 83 84 83 84 84 84 84 84 84 84 83 83
92 95 85 73 67 69 71 82 85 88 91 88 86 91 88 83 92 93 98 99 97 87 90 89 82 83 83 84 83 84 84 83 84 84 83 83 84 84 84 84 84 84 84 84 84 84 84 84 84
93 86 83 68 72 82 82 85 89 88 87 91 89 81 91 95 94 96 99 99 97 90 95 86 83 84 83 84 83 83 84 83 84 83 83 83 84 84 84 84 84 84 84 84 84 84 84 84 84
93 75 78 58 79 84 87 91 90 83 83 87 89 82 83 92 98 98 99 100 96 93 96 92 83 83 84 84 84 83 83 84 84 84 84 85 84 84 84 84 84 84 84 85 84 84 84 84 84
84 89 60 71 74 83 89 90 86 83 88 88 86 84 84 95 95 97 101 101 98 96 97 93 84 84 84 84 83 84 84 83 84 84 84 84 84 84 84 84 85 85 85 85 85 84 84 84 83
82 72 71 70 73 76 81 91 85 82 84 87 93 80 87 92 96 99 100 102 101 98 99 96 93 86 84 83 84 84 83 84 84 84 84 84 85 85 85 85 85 85 85 85 85 84 84 84 83
90 80 63 74 69 72 84 85 89 83 85 96 95 81 81 91 97 99 100 100 100 99 97 96 95 95 89 89 84 84 83 84 84 84 84 84 85 85 85 84 85 84 85 85 85 84 84 84 83
94 68 59 65 67 68 86 83 88 92 89 91 92 93 93 95 97 96 95 95 96 96 93 94 91 91 87 87 87 84 84 84 84 85 84 85 95 93 90 85 85 85 85 85 85 84 84 84 83
78 70 73 76 70 68 82 77 85 85 83 87 90 94 94 94 94 92 93 93 94 87 94 94 92 93 93 93 89 87 88 90 91 92 92 94 92 91 93 87 85 85 85 85 85 85 85 85 94
83 76 82 82 75 80 81 83 86 81 78 86 86 88 91 92 91 91 93 95 95 94 90 91 92 89 91 89 93 90 90 91 88 90 93 92 93 93 95 91 92 92 87 93 89 90 93 97 100
79 84 84 81 80 80 79 83 81 80 85 93 92 92 91 91 91 91 92 95 90 91 93 91 90 78 87 86 92 91 90 93 93 92 91 91 95 90 95 96 95 94 97 94 95 97 96 96 96
79 83 84 84 82 77 83 76 79 81 89 94 94 92 91 90 90 92 93 94 89 88 88 88 89 81 86 89 93 85 93 96 93 93 93 86 84 89 91 94 92 94 98 98 96 97 97 96 97
89 86 83 84 81 80 76 71 77 81 87 91 91 91 90 87 89 91 91 88 87 87 86 92 90 86 89 90 87 91 94 95 96 95 94 87 91 84 94 94 95 96 97 99 97 95 98 98 98
89 80 82 79 78 76 76 62 68 75 81 88 87 88 88 86 91 90 89 88 89 89 90 92 91 91 84 89 90 92 95 97 96 95 91 93 92 92 93 94 79 97 95 95 95 96 98 99 100
83 83 73 79 80 78 78 57 64 70 74 82 86 85 86 87 90 91 94 91 88 91 92 92 93 91 89 90 91 94 95 96 96 95 93 93 92 92 91 94 94 97 98 99 98 98 98 98 98
84 67 61 73 80 77 75 66 68 69 73 75 77 84 86 86 86 88 95 92 95 93 88 87 87 90 90 89 91 93 93 95 96 96 96 92 92 92 91 93 94 94 98 98 95 99 98 97 98
68 76 75 69 77 77 73 71 74 71 69 71 75 79 85 88 85 91 94 95 95 93 85 83 87 87 87 89 90 93 92 94 96 96 95 92 93 93 92 95 94 92 93 97 93 95 98 98 98
80 78 72 70 79 76 74 73 72 71 69 69 71 77 83 83 87 87 94 96 91 92 84 85 86 86 86 89 89 90 90 92 93 95 92 91 88 92 91 92 93 80 89 91 93 94 92 97 97
81 78 74 78 80 77 73 74 76 74 76 73 70 77 78 87 85 91 87 96 96 91 84 82 84 84 87 89 90 92 92 93 90 86 92 92 92 91 93 90 93 87 90 92 92 92 94 97 97
82 77 73 74 73 80 76 73 73 77 77 75 71 78 79 80 76 88 84 94 95 92 89 86 85 85 87 90 91 91 92 89 83 86 92 93 92 92 91 91 90 91 88 92 93 93 91 85 96
77 84 80 75 74 62 79 65 72 75 72 70 69 77 84 84 87 87 89 90 95 93 93 89 86 86 87 89 83 86 87 87 91 92 93 92 91 92 93 92 91 90 91 78 92 95 91 91 88
75 83 80 79 77 78 79 72 72 77 71 72 71 80 86 84 91 88 93 90 96 95 94 92 88 85 87 88 82 88 87 91 93 94 88 89 90 92 93 92 91 90 92 91 91 91 90 93 92
88 81 81 80 78 69 78 74 60 68 75 78 77 83 86 86 92 95 94 92 91 96 95 93 87 84 86 87 86 86 88 82 91 91 89 91 92 92 91 92 91 90 91 90 92 91 90 89 90
84 79 68 65 67 64 64 75 66 69 85 82 75 82 86 86 93 96 92 90 91 94 94 92 88 84 86 86 86 87 86 86 87 89 90 86 93 94 90 90 89 91 89 91 91 90 90 90 90
80 80 69 55 53 58 64 68 58 86 87 89 89 86 88 84 89 93 95 92 89 93 93 93 88 86 86 87 86 86 87 89 90 88 82 92 86 94 89 90 91 90 92 90 90 92 92 92 92
80 75 86 71 75 68 63 69 79 86 85 86 88 89 86 90 90 85 96 96 95 92 93 93 89 87 88 88 87 85 85 87 88 88 90 93 91 86 92 92 91 91 91 91 90 91 91 91 91
83 86 74 75 57 56 58 52 59 75 79 82 85 88 89 89 87 81 96 96 96 93 95 94 92 89 89 90 89 89 87 87 89 89 85 90 92 91 84 87 90 91 91 91 89 91 91 90 92
79 77 80 79 67 55 54 52 79 75 80 82 85 87 89 89 86 86 88 93 96 96 92 94 93 90 89 90 90 90 90 91 88 88 88 88 89 89 89 89 89 89 89 90 87 88 87 84 89
63 70 76 65 65 61 56 49 80 81 82 85 85 86 86 84 77 80 70 88 86 87 89 92 93 92 91 91 90 90 91 91 91 89 88 86 86 88 88 89 88 89 89 89 87 87 90 87 88

GFSSGP_sfc_temp_138.txt.gz
Temp
86 90 92 88 68 68 69 73 86 82 82 91 91 86 81 72 73 65 79 88 91 88 86 85 83 83 82 82 82 83 82 83 82 82 83 83 83 83 83 83 83 83 84 83 84 84 84 83 83
93 92 92 73 62 64 63 81 75 81 89 92 76 82 83 78 87 84 86 92 92 91 89 86 81 82 82 82 83 83 83 83 83 83 83 83 83 83 83 84 82 83 83 84 84 84 84 84 83
86 97 79 60 61 61 71 79 82 86 85 88 74 84 86 81 90 90 88 81 79 86 88 84 82 82 83 83 83 83 83 83 83 83 83 83 84 84 84 84 83 84 84 84 84 84 84 84 84
88 89 83 59 63 76 80 84 87 86 87 90 88 81 89 92 91 93 88 79 78 80 88 84 83 83 83 83 83 83 83 83 83 83 83 84 84 84 84 84 85 85 84 84 84 85 84 85 84
87 83 62 64 68 81 87 89 88 79 77 80 86 80 83 91 97 95 94 91 86 89 88 86 83 83 83 83 83 83 84 83 84 84 84 84 84 84 84 85 84 83 84 84 84 85 84 84 83
82 71 59 58 74 81 87 89 82 79 86 84 84 81 81 95 95 97 94 92 94 91 89 87 84 83 83 84 84 83 84 84 83 84 84 84 84 84 84 85 85 85 85 85 84 84 84 83 83
72 65 58 59 72 77 81 86 72 83 76 85 88 76 84 90 95 92 88 80 96 94 90 87 86 84 84 83 84 83 83 84 84 84 84 84 84 85 85 85 85 85 85 85 84 84 84 83 83
78 67 62 61 66 67 82 76 88 80 76 93 91 78 76 89 97 96 92 88 88 90 93 88 87 86 84 85 84 84 84 84 84 84 84 84 85 85 85 84 84 85 85 85 85 84 84 83 83
71 65 56 56 65 69 80 81 90 88 90 89 86 87 90 95 97 92 93 94 92 88 82 76 89 87 83 84 84 84 84 84 84 84 84 83 85 86 86 84 85 85 85 85 85 85 84 83 84
68 57 67 74 71 68 73 67 73 86 86 85 86 90 94 94 92 90 88 87 84 86 71 69 72 86 86 88 84 83 84 85 84 86 82 80 85 86 89 85 85 85 85 85 85 85 84 84 86
80 64 73 78 77 71 65 70 83 81 78 86 83 87 91 91 87 91 83 89 89 87 76 70 76 85 89 85 85 86 87 86 87 88 87 86 85 85 86 84 85 84 85 85 85 85 85 85 86
73 85 82 77 80 81 73 72 80 81 74 80 91 92 90 89 88 88 90 87 88 87 86 78 79 74 87 87 85 88 87 88 87 87 87 84 85 84 84 85 85 85 84 87 86 88 89 90 90
84 83 85 83 84 78 72 71 79 80 88 92 93 91 90 85 76 81 90 90 88 86 89 80 74 71 82 85 82 87 84 89 87 86 83 85 86 84 87 84 81 83 86 87 84 87 88 89 91
76 76 84 82 81 81 74 74 80 81 86 90 90 89 88 87 89 90 86 85 89 86 81 82 80 79 84 78 73 74 79 86 88 88 81 87 79 82 86 86 83 83 87 84 86 82 86 87 90
76 75 80 81 80 78 78 67 67 77 80 81 89 88 89 83 82 88 87 86 85 85 83 84 85 86 81 74 73 72 88 92 89 88 88 83 83 79 86 76 84 86 87 88 88 88 90 88 91
84 82 69 79 78 79 77 63 64 72 73 77 84 82 81 87 87 89 89 89 90 88 79 83 91 87 86 86 85 83 90 90 87 88 88 85 79 89 82 82 81 84 87 86 85 86 86 86 86
83 72 66 62 76 78 75 66 68 72 73 75 78 79 76 78 87 79 89 91 91 84 87 86 83 84 85 84 87 88 91 89 89 89 88 87 89 89 87 81 87 89 86 83 87 88 88 86 86
65 71 73 59 75 77 72 71 70 72 72 74 78 77 74 71 88 88 89 92 89 89 86 84 83 79 83 85 87 86 89 85 90 88 84 89 85 91 80 81 87 76 75 83 83 85 87 86 86
77 76 70 72 77 76 73 72 72 74 70 72 74 80 77 80 90 89 87 93 91 87 79 81 79 78 82 84 83 80 84 85 88 83 87 78 76 85 80 80 76 69 68 71 87 87 86 85 87
81 76 74 77 82 79 76 70 74 74 73 76 74 72 76 78 78 89 88 91 90 85 81 82 82 82 80 84 83 83 84 83 87 87 87 79 77 89 87 83 74 70 68 71 88 86 83 85 87
81 76 73 71 77 81 77 71 70 75 76 78 77 74 75 76 74 76 87 87 87 85 83 83 82 81 82 84 83 85 84 84 81 83 86 87 87 88 88 86 82 76 72 70 81 84 74 74 84
76 83 79 75 73 67 79 61 69 72 71 74 76 74 77 79 72 75 85 89 87 85 84 83 82 82 83 81 81 82 82 79 80 81 82 86 88 88 88 88 85 71 71 70 74 81 68 70 76
79 84 81 77 72 76 76 70 71 71 67 70 75 76 78 83 72 76 75 90 92 87 86 85 82 81 82 84 80 84 81 83 85 86 82 81 85 86 89 88 85 81 75 74 72 83 80 79 78
89 82 80 76 74 65 75 74 64 63 64 73 77 78 79 84 85 80 76 82 86 92 89 86 81 79 83 83 81 81 82 82 80 79 83 84 84 86 87 88 86 85 85 84 84 85 85 84 82
84 78 65 63 64 61 73 71 64 76 73 79 79 76 81 85 88 76 77 79 90 85 90 86 81 79 82 83 83 83 82 75 79 82 84 82 82 85 84 86 85 86 86 86 86 84 84 85 83
80 78 67 54 53 50 66 59 69 81 83 85 85 81 82 86 87 79 83 85 88 88 88 87 83 80 81 83 82 83 82 79 74 84 87 82 81 81 84 85 86 86 86 86 85 84 84 84 84
79 73 83 70 72 60 59 65 70 80 85 88 83 81 83 85 87 85 87 85 87 86 88 87 83 82 83 83 80 82 83 83 85 82 85 84 85 85 85 85 85 86 86 84 85 84 83 83 85
82 86 71 74 58 52 55 53 53 59 58 84 80 74 82 86 83 88 85 81 89 87 85 89 86 84 84 85 83 83 83 84 85 85 81 80 82 83 79 82 79 87 86 83 84 84 84 83 84
78 75 72 72 65 59 52 48 57 56 61 75 84 81 86 87 85 88 83 77 75 90 90 90 85 85 85 86 85 83 83 84 81 81 77 79 83 84 83 79 76 83 84 84 83 83 83 82 82
79 74 69 63 47 56 61 49 61 60 63 84 86 87 85 90 91 88 85 74 74 85 87 86 88 87 87 86 85 85 84 84 81 83 83 83 83 83 85 82 81 82 84 84 83 82 83 82 81

GFSSGP_sfc_temp_141.txt.gz
Temp
80 82 84 76 62 61 63 69 79 75 73 80 84 78 76 73 70 58 78 81 82 80 81 82 82 82 82 82 83 82 82 82 82 82 82 83 83 83 83 83 83 83 84 84 84 84 84 84 84
82 87 79 66 57 54 61 73 71 73 76 81 82 79 75 70 78 75 76 82 82 81 80 81 82 82 82 83 82 83 83 82 83 82 82 83 83 84 83 83 84 84 83 84 84 84 84 84 83
82 87 67 60 58 57 61 75 76 79 81 81 77 83 79 71 78 74 80 83 83 81 80 80 82 82 83 83 83 83 83 83 83 83 83 83 83 83 83 83 84 84 83 84 84 84 84 84 84
80 77 66 60 58 71 75 78 82 80 81 81 82 75 82 83 79 76 80 81 80 79 79 81 83 83 83 83 83 83 83 83 83 83 84 84 84 84 84 84 84 84 84 84 84 84 84 84 84
78 69 59 58 64 71 81 82 82 76 73 76 81 76 75 80 80 81 78 79 80 79 80 81 83 83 83 83 83 83 83 83 83 83 84 84 84 84 84 84 85 84 84 84 84 84 84 84 83
67 67 57 55 61 67 78 81 80 79 77 81 78 78 75 79 78 76 79 78 82 80 80 81 83 83 83 83 83 83 84 83 83 84 84 84 84 84 84 85 84 85 85 84 84 84 83 83 83
64 60 57 58 58 61 74 82 77 76 80 78 83 72 76 76 81 79 81 83 83 82 80 80 80 82 84 83 84 83 84 84 84 84 84 84 84 84 85 85 85 85 85 85 84 84 83 83 83
65 62 58 58 57 62 73 78 82 75 70 87 87 73 73 77 84 82 83 76 78 80 80 79 78 78 78 79 84 84 84 84 84 84 84 84 85 85 85 84 84 85 85 85 84 84 83 83 83
71 59 55 57 57 63 69 71 83 87 84 85 87 83 84 84 83 79 79 78 75 73 76 78 79 77 76 76 81 83 84 84 84 84 84 82 77 79 82 83 85 85 85 85 84 84 83 83 84
64 58 62 67 68 65 67 68 70 80 81 79 82 87 89 88 84 80 78 75 71 72 73 75 75 78 77 84 77 76 78 75 75 77 78 76 77 76 82 82 85 85 85 85 85 84 84 84 79
66 62 69 71 69 68 66 68 73 73 72 78 77 84 86 85 85 82 79 74 75 75 75 72 73 70 78 75 75 75 76 76 76 77 78 76 78 78 77 75 78 77 83 79 82 81 81 81 79
71 76 74 75 73 67 63 66 64 74 75 82 82 87 84 81 80 80 77 75 73 70 73 73 72 71 75 77 76 78 76 77 76 77 77 76 75 76 77 75 75 76 77 77 78 78 79 80 82
69 74 77 78 76 68 70 67 76 75 84 88 88 87 80 76 78 78 82 80 76 71 73 75 74 73 76 79 76 75 77 78 77 78 78 77 80 80 78 76 76 76 78 78 78 78 80 82 83
73 69 74 79 74 72 70 70 75 75 80 84 86 82 78 77 79 79 81 78 77 74 74 72 73 74 74 73 70 71 73 77 77 78 78 79 75 76 76 80 79 78 78 80 79 80 80 81 83
75 68 70 76 73 70 72 65 67 73 78 82 83 81 82 78 81 81 81 80 78 75 75 74 74 75 72 73 71 71 73 79 76 78 79 79 78 75 77 75 77 79 82 82 80 80 81 79 83
73 71 63 64 68 73 70 59 66 72 73 75 78 81 77 76 81 80 83 81 80 75 76 76 84 75 73 73 72 73 76 79 78 79 78 80 79 79 76 77 73 77 79 80 79 80 79 78 80
74 62 62 62 68 67 69 60 68 70 71 72 73 73 77 77 78 79 83 82 79 78 76 76 79 75 73 72 74 73 80 82 83 78 78 81 80 82 73 73 69 73 73 74 80 78 78 77 78
64 65 64 61 66 66 67 66 67 69 69 70 72 72 74 73 76 81 85 84 81 81 78 78 79 76 76 78 77 79 81 78 79 78 78 78 78 75 74 73 69 71 72 69 71 75 81 79 82
77 69 67 64 69 67 67 67 66 68 67 68 69 70 71 73 77 79 82 85 82 80 77 78 77 76 76 74 74 77 75 80 75 77 79 77 75 76 73 72 69 68 68 67 70 71 78 81 82
76 70 66 63 67 64 69 66 66 68 68 69 69 71 73 74 73 80 80 82 80 77 77 75 75 74 75 75 75 75 75 76 77 78 76 76 79 78 78 71 69 68 67 69 69 73 76 74 79
72 68 65 63 69 76 70 63 64 68 70 70 72 73 73 73 72 76 76 82 78 76 76 77 76 74 75 76 76 76 76 76 73 75 76 77 79 80 80 74 73 71 70 70 68 71 72 69 73
62 79 76 73 66 55 70 49 61 64 65 68 72 71 73 75 74 73 75 80 78 78 79 77 77 75 76 75 75 78 78 74 73 76 76 77 80 81 82 76 73 71 68 68 69 73 68 67 69
69 80 74 74 64 59 64 55 58 62 61 65 70 73 75 77 73 73 73 78 82 81 79 77 76 74 75 75 75 74 76 74 77 77 78 76 78 80 84 78 73 75 71 71 73 75 73 72 70
83 74 71 68 60 49 57 58 54 58 64 68 71 75 75 77 74 74 76 77 80 81 80 78 75 73 74 75 78 75 75 74 75 73 78 75 76 78 80 81 78 75 74 74 74 75 78 73 72
74 61 49 46 47 47 57 57 56 67 71 71 71 74 76 77 73 73 74 73 77 76 78 78 75 74 75 75 75 75 75 74 76 73 77 76 75 75 77 78 78 77 77 78 77 77 77 77 75
67 61 50 45 46 49 62 54 59 66 69 73 78 77 77 76 78 77 75 78 75 80 80 79 75 75 75 75 75 74 75 73 73 75 76 75 78 77 79 78 77 78 78 78 78 76 77 77 77
66 58 68 57 57 49 51 59 68 66 66 68 67 74 74 76 79 76 77 80 79 82 80 78 76 76 76 77 74 75 75 74 75 75 75 74 76 80 79 79 78 78 79 78 78 77 76 76 76
67 71 57 55 44 44 49 50 50 56 58 62 62 63 71 77 78 77 77 77 78 86 81 80 78 76 77 78 76 76 76 75 75 75 76 75 76 78 76 75 77 78 78 78 76 77 76 76 76
63 60 58 54 48 42 43 47 57 56 58 58 61 64 66 78 80 77 79 79 76 81 81 80 78 77 77 78 78 76 75 76 75 75 75 74 75 76 75 75 74 76 76 77 76 76 76 76 75
67 60 59 49 44 46 46 48 61 61 62 61 61 64 69 71 77 75 79 73 71 71 71 75 79 79 80 80 78 78 76 75 74 75 75 75 74 76 76 75 74 75 76 76 76 76 78 75 75

GFSSGP_sfc_temp_144.txt.gz
Temp
80 81 82 71 60 59 58 65 73 69 68 75 74 70 72 71 68 57 73 76 78 77 80 81 82 82 82 82 82 82 83 83 83 83 83 83 83 83 83 83 83 83 84 84 84 83 84 84 83
80 84 76 65 56 56 59 70 68 71 75 76 77 75 71 65 74 71 71 78 79 78 77 79 81 82 82 83 83 82 83 83 83 83 83 83 83 83 83 83 83 83 84 84 83 84 84 83 84
82 85 65 60 55 57 59 70 71 76 80 78 74 79 72 67 74 74 78 79 79 76 76 79 82 82 83 83 83 83 83 83 83 83 82 83 83 83 84 83 84 84 84 84 84 84 84 84 84
76 71 68 58 58 69 69 72 77 77 81 81 78 69 76 80 76 77 80 79 76 76 75 81 82 83 83 83 83 83 83 83 83 83 83 83 83 84 84 83 84 83 84 84 84 84 84 83 84
75 68 58 58 62 67 69 78 79 74 75 76 76 69 69 78 80 80 79 79 75 75 76 80 83 83 83 83 83 83 83 83 83 83 83 84 84 84 84 84 84 84 84 84 84 84 84 84 84
65 66 56 54 59 63 70 78 77 75 78 77 73 71 67 78 77 78 80 77 78 76 78 80 83 83 83 83 83 83 83 83 82 83 84 84 84 84 84 85 84 84 85 84 84 84 83 83 83
62 60 57 58 56 60 67 76 72 76 76 76 79 65 67 73 76 77 78 78 78 78 77 77 78 81 83 83 83 83 83 83 83 84 84 84 84 84 84 84 85 85 85 84 84 83 83 83 84
64 62 58 58 56 58 71 75 78 75 73 85 81 67 64 72 75 78 74 74 74 76 77 74 76 76 76 78 83 84 83 83 84 84 84 84 85 85 85 84 84 85 85 84 84 83 83 83 83
71 58 55 57 58 62 71 68 79 84 80 83 84 77 78 77 76 75 72 73 72 74 73 74 74 74 74 76 80 83 84 83 84 83 84 82 77 79 80 82 85 85 84 84 84 83 83 83 83
64 57 62 66 66 63 68 67 71 76 78 78 76 77 79 79 75 73 72 71 71 71 72 73 74 74 74 81 76 75 77 74 75 76 76 74 74 75 80 81 85 85 85 85 84 84 84 84 77
66 60 70 69 68 69 65 69 73 73 71 77 71 74 76 76 75 74 72 72 71 73 74 74 73 72 74 74 73 73 73 74 73 75 74 74 76 74 75 74 76 75 82 78 81 80 79 79 77
66 72 72 71 70 67 65 68 70 77 76 83 82 78 78 75 75 74 71 71 71 72 73 74 71 71 71 73 73 73 73 73 72 74 75 73 72 73 73 73 74 74 75 75 75 76 77 77 78
62 67 73 73 72 68 69 68 68 75 81 85 86 83 79 77 75 77 75 73 71 72 73 73 73 73 73 73 72 72 72 74 75 74 75 74 75 73 74 73 74 75 75 74 75 75 76 76 78
69 67 74 73 69 70 66 65 69 75 80 82 81 77 75 78 78 76 74 70 69 73 71 71 73 72 74 71 72 71 72 74 75 76 76 76 75 75 74 75 75 72 74 75 76 75 77 77 78
71 67 67 71 71 69 70 64 65 72 77 80 78 76 78 80 77 76 75 72 73 72 74 72 72 72 71 70 71 71 72 75 74 76 76 76 74 73 73 72 72 71 76 76 77 76 78 78 80
70 67 60 65 69 73 70 58 68 72 74 74 74 76 75 78 77 79 77 76 75 72 73 72 80 74 71 70 70 70 72 74 74 75 76 78 76 74 72 72 72 74 74 75 76 76 77 75 76
71 59 58 63 69 69 67 60 68 70 72 71 73 73 74 74 76 78 80 76 75 75 73 72 74 72 72 71 71 71 75 74 75 75 76 77 77 75 71 70 70 72 71 72 72 73 73 74 75
61 62 63 62 66 66 63 62 67 68 69 70 72 72 72 73 75 77 79 78 76 74 73 77 74 71 70 70 70 71 73 77 76 75 75 76 74 74 72 71 71 71 69 70 70 70 73 74 76
68 67 60 63 68 66 63 64 66 66 67 68 67 69 70 74 76 79 79 79 76 75 74 74 74 71 71 70 70 69 72 74 73 75 76 74 73 74 72 71 70 68 68 69 71 70 73 74 75
70 67 60 65 69 65 64 64 66 66 67 68 68 69 71 71 72 77 78 78 77 75 73 72 73 73 74 73 73 73 73 76 74 75 75 73 75 75 76 70 69 68 68 71 70 69 72 72 74
69 63 62 63 67 68 65 59 61 65 66 68 69 71 73 73 71 73 74 77 76 75 74 74 73 73 73 74 73 72 73 74 71 72 72 75 77 77 75 72 70 68 70 70 69 71 69 68 72
55 74 72 70 62 53 65 48 56 61 62 65 69 69 71 72 71 72 74 75 76 76 77 76 75 73 74 73 72 72 72 70 71 72 73 75 77 78 76 75 72 70 68 70 70 71 67 69 70
67 76 71 71 61 56 58 53 56 60 58 62 67 70 72 74 73 71 74 76 78 78 77 76 75 74 73 72 72 73 73 74 72 73 76 73 75 76 77 75 72 71 69 70 70 72 72 70 70
77 72 67 61 54 47 53 53 51 53 59 66 67 71 73 73 76 74 74 75 76 79 79 76 73 72 72 72 73 75 75 72 72 71 76 73 74 74 75 76 73 73 72 71 71 72 73 71 68
68 56 45 45 45 45 54 53 51 61 65 64 67 70 73 75 76 75 70 72 75 75 76 76 73 72 72 72 72 73 72 72 73 73 74 72 72 73 75 74 74 73 74 75 74 74 75 74 73
60 57 47 41 41 46 57 50 54 63 66 66 67 70 73 74 75 75 71 74 76 76 76 76 73 72 74 73 72 72 72 70 71 72 72 75 74 74 77 75 75 76 75 76 75 74 75 75 74
62 54 60 50 46 45 47 56 60 63 63 63 63 65 64 70 71 73 74 74 76 76 77 76 74 74 75 75 72 72 72 72 73 73 73 72 74 77 75 75 75 76 76 76 74 73 74 74 74
61 65 53 48 40 39 46 48 48 54 56 60 60 61 63 66 69 74 77 74 76 78 78 77 76 75 75 75 76 75 73 73 72 70 73 73 74 75 76 74 75 76 75 75 74 74 74 74 73
60 55 51 48 45 40 40 44 57 54 57 57 61 62 63 64 70 72 74 78 74 77 78 76 76 75 75 75 76 75 75 73 72 72 72 73 73 74 74 74 74 75 75 74 74 73 74 74 73
63 57 51 46 44 43 43 44 60 59 59 60 61 63 63 65 67 72 73 71 71 72 76 74 75 76 75 76 75 75 76 74 72 72 73 72 73 73 74 73 73 73 74 74 74 74 76 73 73